[[{"header":{"parameterUnit":"m.s-1","parameterCategory":1,"la1":31.0,"la2":29.5877,"lo1":-88.7671,"lo2":-86.6584,"dy":0.0162,"dx":0.0185,"nx":115,"ny":88,"refTime":"2023-07-30T06:00:00:Z","depth":0,"parameterNumber":2,"parameterNumberName":"U-component_of_WINDS"},"data":[0.0,0.0,0.0,0.0,0.0,0.0,0.0,0.0,0.0,0.0,0.0,0.0,0.0,0.0,0.0,0.0,0.0,0.0,0.0,0.0,0.0,0.0,0.0,0.0,0.0,0.0,0.0,0.0,0.0,0.0,0.0,0.0,0.0,0.0,0.0,0.0,0.0,0.0,0.0,0.0,0.0,0.0,0.0,0.0,0.0,0.0,0.0,0.0,0.0,0.0,0.0,0.0,0.0,0.0,0.0,0.0,0.0,0.0,0.0,0.0,0.0,0.0,0.0,0.0,0.0,0.0,0.0,0.0,0.0,0.0,0.0,0.0,0.0,0.0,0.0,0.0,0.0,0.0,0.0,0.0,0.0,0.0,0.0,0.0,0.0,0.0,0.0,0.0,0.0,0.0,0.0,0.0,0.0,0.0,0.0,0.0,0.0,0.0,0.0,0.0,0.0,0.0,0.0,0.0,0.0,0.0,0.0,0.0,0.0,0.0,0.0,0.0,0.0,0.0,0.0,0.0,0.0,0.0,0.0,0.0,0.0,0.0,0.0,0.0,0.0,0.0,0.0,0.0,0.0,0.0,0.0,0.0,0.0,0.0,0.0,0.0,0.0,0.0,0.0,0.0,0.0,0.0,0.0,0.0,0.0,0.0,0.0,0.0,0.0,0.0,0.0,0.0,0.0,0.0,0.0,0.0,0.0,0.0,0.0,0.0,0.0,0.0,0.0,0.0,0.0,0.0,0.0,0.0,0.0,0.0,0.0,0.0,0.0,0.0,0.0,0.0,0.0,0.0,0.0,0.0,0.0,0.0,0.0,0.0,0.0,0.0,0.0,0.0,0.0,0.0,0.0,0.0,0.0,0.0,0.0,0.0,0.0,0.0,0.0,0.0,0.0,0.0,0.0,0.0,0.0,0.0,0.0,0.0,0.0,0.0,0.0,0.0,0.0,0.0,0.0,0.0,0.0,0.0,0.0,0.0,0.0,0.0,0.0,0.0,0.0,0.0,0.0,0.0,0.0,0.0,0.0,0.0,0.0,0.0,0.0,0.0,0.0,0.0,0.0,0.0,0.0,0.0,0.0,0.0,0.0,0.0,0.0,0.0,0.0,0.0,0.0,0.0,0.0,0.0,0.0,0.0,0.0,0.0,0.0,0.0,0.0,0.0,0.0,0.0,0.0,0.0,0.0,0.0,0.0,0.0,0.0,0.0,0.0,0.0,0.0,0.0,0.0,0.0,0.0,0.0,0.0,0.0,0.0,0.0,0.0,0.0,0.0,0.0,0.0,0.0,0.0,0.0,0.0,0.0,0.0,0.0,0.0,0.0,0.0,0.0,0.0,0.0,0.0,0.0,0.0,0.0,0.0,0.0,0.0,0.0,0.0,0.0,0.0,0.0,0.0,0.0,0.0,0.0,0.0,0.0,0.0,0.0,0.0,0.0,0.0,0.0,0.0,0.0,0.0,0.0,0.0,0.0,0.0,0.0,0.0,0.0,0.0,0.0,0.0,0.0,0.0,0.0,0.0,0.0,0.0,0.0,0.0,0.0,0.0,0.0,0.0,0.0,0.0,0.0,0.0,0.0,0.0,0.0,0.0,0.0,0.0,0.0,0.0,0.0,0.0,0.0,0.0,0.0,0.0,0.0,0.0,0.0,0.0,0.0,0.0,0.0,0.0,0.0,0.0,0.0,0.0,0.0,0.0,0.0,0.0,0.0,0.0,0.0,0.0,0.0,0.0,0.0,0.0,0.0,0.0,0.0,0.0,0.0,0.0,0.0,0.0,0.0,0.0,0.0,0.0,0.0,0.0,0.0,0.0,0.0,0.0,0.0,0.0,0.0,0.0,0.0,0.0,0.0,0.0,0.0,0.0,0.0,0.0,0.0,0.0,0.0,0.0,0.0,0.0,0.0,0.0,0.0,0.0,0.0,0.0,0.0,0.0,0.0,0.0,0.0,0.0,0.0,0.0,0.0,0.0,0.0,0.0,0.0,0.0,0.0,0.0,0.0,0.0,0.0,0.0,0.0,0.0,0.0,0.0,0.0,0.0,0.0,0.0,0.0,0.0,0.0,0.0,0.0,0.0,0.0,0.0,0.0,0.0,0.0,0.0,0.0,0.0,0.0,0.0,0.0,0.0,0.0,0.0,0.0,0.0,0.0,0.0,0.0,0.0,0.0,0.0,0.0,0.0,0.0,0.0,0.0,0.0,0.0,0.0,0.0,0.0,0.0,0.0,0.0,0.0,0.0,0.0,0.0,0.0,0.0,0.0,0.0,0.0,0.0,0.0,0.0,0.0,0.0,0.0,0.0,0.0,0.0,0.0,0.0,0.0,0.0,0.0,0.0,0.0,0.0,0.0,0.0,0.0,0.0,0.0,0.0,0.0,0.0,0.0,0.0,0.0,0.0,0.0,0.0,0.0,0.0,0.0,0.0,0.0,0.0,0.0,0.0,0.0,0.0,0.0,0.0,0.0,0.0,0.0,0.0,0.0,0.0,0.0,0.0,0.0,0.0,0.0,0.0,0.0,0.0,0.0,0.0,0.0,0.0,0.0,0.0,0.0,0.0,0.0,0.0,0.0,0.0,0.0,0.0,0.0,0.0,0.0,0.0,0.0,0.0,0.0,0.0,0.0,0.0,0.0,0.0,0.0,0.0,0.0,0.0,0.0,0.0,0.0,0.0,0.0,0.0,0.0,0.0,0.0,0.0,0.0,0.0,0.0,0.0,0.0,0.0,0.0,0.0,0.0,0.0,0.0,0.0,0.0,0.0,0.0,0.0,0.0,0.0,0.0,0.0,0.0,0.0,0.0,0.0,0.0,0.0,0.0,0.0,0.0,0.0,0.0,0.0,0.0,0.0,0.0,0.0,0.0,0.0,0.0,0.0,0.0,0.0,0.0,0.0,0.0,0.0,0.0,0.0,0.0,0.0,0.0,0.0,0.0,0.0,0.0,0.0,0.0,0.0,0.0,0.0,0.0,0.0,0.0,0.0,0.0,0.0,0.0,0.0,0.0,0.0,0.0,0.0,0.0,0.0,0.0,0.0,0.0,0.0,0.0,0.0,0.0,0.0,0.0,0.0,0.0,0.0,0.0,0.0,0.0,0.0,0.0,0.0,0.0,0.0,0.0,0.0,0.0,0.0,0.0,0.0,0.0,0.0,0.0,0.0,0.0,0.0,0.0,0.0,0.0,0.0,0.0,0.0,0.0,0.0,0.0,0.0,0.0,0.0,0.0,0.0,0.0,0.0,0.0,0.0,0.0,0.0,0.0,0.0,0.0,0.0,0.0,0.0,0.0,0.0,0.0,0.0,0.0,0.0,0.0,0.0,0.0,0.0,0.0,0.0,0.0,0.0,0.0,0.0,0.0,0.0,0.0,0.0,0.0,0.0,0.0,0.0,0.0,0.0,0.0,0.0,0.0,0.0,0.0,0.0,0.0,0.0,0.0,0.0,0.0,0.0,0.0,0.0,0.0,0.0,0.0,0.0,0.0,0.0,0.0,0.0,0.0,0.0,0.0,0.0,0.0,0.0,0.0,0.0,0.0,0.0,0.0,0.0,0.0,0.0,0.0,0.0,0.0,0.0,0.0,0.0,0.0,0.0,0.0,0.0,0.0,0.0,0.0,0.0,0.0,0.0,0.0,0.0,0.0,0.0,0.0,0.0,0.0,0.0,0.0,0.0,0.0,0.0,0.0,0.0,0.0,0.0,0.0,0.0,0.0,0.0,0.0,0.0,0.0,0.0,0.0,0.0,0.0,0.0,0.0,0.0,0.0,0.0,0.0,0.0,0.0,0.0,0.0,0.0,0.0,0.0,0.0,0.0,0.0,0.0,0.0,0.0,0.0,0.0,0.0,0.0,0.0,0.0,0.0,0.0,0.0,0.0,0.0,0.0,0.0,0.0,0.0,0.0,0.0,0.0,0.0,0.0,0.0,0.0,0.0,0.0,0.0,0.0,0.0,0.0,0.0,0.0,0.0,0.0,0.0,0.0,0.0,0.0,0.0,0.0,0.0,0.0,0.0,0.0,0.0,0.0,0.0,0.0,0.0,0.0,0.0,0.0,0.0,0.0,0.0,0.0,0.0,0.0,0.0,0.0,0.0,0.0,0.0,0.0,0.0,0.0,0.0,0.0,0.0,0.0,0.0,0.0,0.0,0.0,0.0,0.0,0.0,0.0,0.0,0.0,0.0,0.0,0.0,0.0,0.0,0.0,0.0,0.0,0.0,0.0,0.0,0.0,0.0,0.0,0.0,0.0,0.0,0.0,0.0,0.0,0.0,0.0,-2.8987,0.0,0.0,0.0,0.0,0.0,0.0,0.0,0.0,0.0,0.0,0.0,0.0,0.0,0.0,0.0,0.0,0.0,0.0,0.0,0.0,0.0,0.0,0.0,0.0,0.0,0.0,0.0,0.0,0.0,0.0,0.0,0.0,0.0,0.0,0.0,0.0,0.0,0.0,0.0,0.0,0.0,0.0,0.0,0.0,0.0,0.0,0.0,0.0,0.0,0.0,0.0,0.0,0.0,0.0,0.0,0.0,0.0,0.0,0.0,0.0,0.0,0.0,0.0,0.0,0.0,0.0,0.0,0.0,0.0,0.0,0.0,0.0,0.0,0.0,0.0,0.0,0.0,0.0,0.0,0.0,0.0,0.0,0.0,0.0,0.0,0.0,0.0,0.0,0.0,0.0,0.0,0.0,0.0,0.0,0.0,0.0,0.0,0.0,0.0,0.0,0.0,0.0,0.0,0.0,0.0,0.0,0.0,0.0,0.0,0.0,-2.8987,-2.8987,-2.8987,-2.8987,-2.8987,0.0,0.0,0.0,0.0,0.0,0.0,0.0,0.0,0.0,0.0,0.0,0.0,0.0,0.0,0.0,0.0,0.0,0.0,0.0,0.0,0.0,0.0,0.0,0.0,0.0,0.0,0.0,0.0,0.0,0.0,0.0,0.0,0.0,0.0,0.0,0.0,0.0,0.0,0.0,0.0,0.0,0.0,0.0,0.0,0.0,0.0,0.0,0.0,0.0,0.0,0.0,0.0,0.0,0.0,0.0,0.0,0.0,0.0,0.0,0.0,0.0,0.0,0.0,0.0,0.0,0.0,0.0,0.0,0.0,0.0,0.0,0.0,0.0,0.0,0.0,0.0,0.0,0.0,0.0,0.0,0.0,0.0,0.0,0.0,0.0,0.0,0.0,0.0,0.0,0.0,0.0,0.0,0.0,0.0,0.0,0.0,0.0,0.0,0.0,0.0,0.0,0.0,0.0,0.0,0.0,0.0,0.0,0.0,0.0,0.0,0.0,0.0,-2.8959,-2.897,-2.8964,0.0,0.0,0.0,0.0,0.0,0.0,0.0,0.0,0.0,0.0,0.0,0.0,0.0,0.0,0.0,0.0,0.0,0.0,0.0,0.0,0.0,0.0,0.0,0.0,0.0,0.0,0.0,0.0,0.0,0.0,0.0,0.0,0.0,0.0,0.0,0.0,0.0,0.0,0.0,0.0,0.0,0.0,0.0,0.0,0.0,0.0,0.0,0.0,0.0,0.0,0.0,0.0,0.0,0.0,0.0,0.0,0.0,0.0,0.0,0.0,0.0,0.0,0.0,0.0,0.0,0.0,0.0,0.0,0.0,0.0,0.0,0.0,0.0,0.0,0.0,0.0,0.0,0.0,0.0,0.0,0.0,0.0,0.0,0.0,0.0,0.0,0.0,0.0,0.0,0.0,0.0,0.0,0.0,0.0,0.0,0.0,0.0,0.0,0.0,0.0,0.0,0.0,0.0,0.0,0.0,0.0,0.0,0.0,0.0,0.0,-2.881,-2.881,-2.881,0.0,-2.8905,0.0,0.0,0.0,0.0,0.0,0.0,0.0,0.0,0.0,0.0,0.0,0.0,0.0,0.0,0.0,0.0,0.0,0.0,0.0,0.0,0.0,0.0,0.0,0.0,0.0,0.0,0.0,0.0,0.0,0.0,0.0,0.0,0.0,0.0,0.0,0.0,0.0,0.0,0.0,0.0,0.0,0.0,0.0,0.0,0.0,0.0,0.0,0.0,0.0,0.0,0.0,0.0,0.0,0.0,0.0,0.0,0.0,0.0,0.0,0.0,0.0,0.0,0.0,0.0,0.0,0.0,0.0,0.0,0.0,0.0,0.0,0.0,0.0,0.0,0.0,0.0,0.0,0.0,0.0,0.0,0.0,0.0,0.0,0.0,0.0,0.0,0.0,0.0,0.0,0.0,0.0,0.0,0.0,0.0,0.0,0.0,0.0,0.0,0.0,0.0,0.0,0.0,0.0,0.0,0.0,0.0,0.0,0.0,0.0,0.0,-2.8816,-2.8816,-2.8324,-2.811,0.0,0.0,0.0,0.0,0.0,0.0,0.0,0.0,0.0,0.0,0.0,0.0,0.0,0.0,0.0,0.0,0.0,0.0,0.0,0.0,0.0,0.0,0.0,0.0,0.0,0.0,0.0,0.0,0.0,0.0,0.0,0.0,0.0,0.0,0.0,0.0,0.0,0.0,0.0,0.0,0.0,0.0,0.0,0.0,0.0,0.0,0.0,0.0,0.0,0.0,0.0,0.0,0.0,0.0,0.0,0.0,0.0,0.0,0.0,0.0,0.0,0.0,0.0,0.0,0.0,0.0,0.0,0.0,0.0,0.0,0.0,0.0,0.0,0.0,0.0,0.0,0.0,0.0,0.0,0.0,0.0,0.0,0.0,0.0,0.0,0.0,0.0,0.0,0.0,0.0,0.0,0.0,0.0,0.0,0.0,0.0,0.0,0.0,0.0,0.0,0.0,0.0,0.0,0.0,0.0,0.0,0.0,0.0,0.0,0.0,-2.8662,-2.8687,-2.8651,-2.7919,-2.7513,-2.7518,0.0,0.0,0.0,0.0,0.0,0.0,0.0,0.0,0.0,0.0,0.0,0.0,0.0,0.0,0.0,0.0,0.0,0.0,0.0,0.0,0.0,0.0,0.0,0.0,0.0,0.0,0.0,0.0,0.0,0.0,0.0,0.0,0.0,0.0,0.0,0.0,0.0,0.0,0.0,0.0,0.0,0.0,0.0,0.0,0.0,0.0,0.0,0.0,0.0,0.0,0.0,0.0,0.0,0.0,0.0,0.0,0.0,0.0,0.0,0.0,0.0,0.0,0.0,0.0,0.0,0.0,0.0,0.0,0.0,0.0,0.0,0.0,0.0,0.0,0.0,0.0,0.0,0.0,0.0,0.0,0.0,0.0,0.0,0.0,0.0,0.0,0.0,0.0,0.0,0.0,0.0,0.0,0.0,0.0,0.0,0.0,0.0,0.0,0.0,0.0,0.0,0.0,0.0,0.0,0.0,0.0,0.0,0.0,-2.8406,-2.8406,-2.8424,-2.8406,-2.7641,-2.7246,0.0,0.0,0.0,0.0,0.0,0.0,0.0,0.0,0.0,0.0,0.0,0.0,0.0,0.0,0.0,0.0,0.0,0.0,0.0,0.0,0.0,0.0,0.0,0.0,0.0,0.0,0.0,0.0,0.0,0.0,0.0,0.0,0.0,0.0,0.0,0.0,0.0,0.0,0.0,0.0,0.0,0.0,0.0,0.0,0.0,0.0,0.0,0.0,0.0,0.0,0.0,0.0,0.0,0.0,0.0,0.0,0.0,0.0,0.0,0.0,0.0,0.0,0.0,0.0,0.0,0.0,0.0,0.0,0.0,0.0,0.0,0.0,0.0,0.0,0.0,0.0,0.0,0.0,0.0,0.0,0.0,0.0,0.0,0.0,0.0,0.0,0.0,0.0,0.0,0.0,0.0,0.0,0.0,0.0,0.0,0.0,0.0,0.0,0.0,0.0,0.0,0.0,0.0,0.0,0.0,0.0,0.0,0.0,0.0,-2.8255,-2.8255,-2.8273,-2.8237,-2.749,-2.6841,0.0,0.0,0.0,0.0,0.0,0.0,0.0,0.0,0.0,0.0,0.0,0.0,0.0,0.0,0.0,0.0,0.0,0.0,0.0,0.0,0.0,0.0,0.0,0.0,0.0,0.0,0.0,0.0,0.0,0.0,0.0,0.0,0.0,0.0,0.0,0.0,0.0,0.0,0.0,0.0,0.0,0.0,0.0,0.0,0.0,0.0,0.0,0.0,0.0,0.0,0.0,0.0,0.0,0.0,0.0,0.0,0.0,0.0,0.0,0.0,0.0,0.0,0.0,0.0,0.0,0.0,0.0,0.0,0.0,0.0,0.0,0.0,0.0,0.0,0.0,0.0,0.0,0.0,0.0,0.0,0.0,0.0,0.0,0.0,0.0,0.0,0.0,0.0,0.0,0.0,0.0,0.0,0.0,0.0,0.0,0.0,0.0,0.0,0.0,0.0,0.0,0.0,0.0,0.0,0.0,0.0,0.0,0.0,0.0,-2.8461,0.0,-2.8478,-2.8461,-2.7735,-2.6832,0.0,0.0,0.0,0.0,0.0,0.0,0.0,0.0,0.0,0.0,0.0,0.0,0.0,0.0,0.0,0.0,0.0,0.0,0.0,0.0,0.0,0.0,0.0,0.0,0.0,0.0,0.0,0.0,0.0,0.0,0.0,0.0,0.0,0.0,0.0,0.0,0.0,0.0,0.0,0.0,0.0,0.0,0.0,0.0,0.0,0.0,0.0,0.0,0.0,0.0,0.0,0.0,0.0,0.0,0.0,0.0,0.0,0.0,0.0,0.0,0.0,0.0,0.0,0.0,0.0,0.0,0.0,0.0,0.0,0.0,0.0,0.0,0.0,0.0,0.0,0.0,0.0,0.0,0.0,0.0,0.0,0.0,0.0,0.0,0.0,0.0,0.0,0.0,0.0,0.0,0.0,0.0,0.0,0.0,0.0,0.0,0.0,0.0,0.0,0.0,0.0,0.0,0.0,0.0,0.0,0.0,0.0,0.0,-2.8411,-2.9086,-2.9139,-2.916,-2.9104,-2.8417,-2.724,0.0,0.0,0.0,0.0,0.0,0.0,0.0,0.0,0.0,0.0,0.0,0.0,0.0,0.0,0.0,0.0,0.0,0.0,0.0,0.0,0.0,0.0,0.0,0.0,0.0,0.0,0.0,0.0,0.0,0.0,0.0,0.0,0.0,0.0,0.0,0.0,0.0,0.0,0.0,0.0,0.0,0.0,0.0,0.0,0.0,0.0,0.0,0.0,0.0,0.0,0.0,0.0,0.0,0.0,0.0,0.0,0.0,0.0,0.0,0.0,0.0,0.0,0.0,0.0,0.0,0.0,0.0,0.0,0.0,0.0,0.0,0.0,0.0,0.0,0.0,0.0,0.0,0.0,0.0,0.0,0.0,0.0,0.0,0.0,0.0,0.0,0.0,0.0,0.0,0.0,0.0,0.0,0.0,0.0,0.0,0.0,0.0,0.0,0.0,0.0,0.0,0.0,0.0,0.0,0.0,0.0,0.0,0.0,0.0,-3.0326,-3.0344,-3.0344,-3.0309,-2.961,-2.8508,0.0,0.0,0.0,0.0,0.0,0.0,0.0,0.0,0.0,0.0,0.0,0.0,0.0,0.0,0.0,0.0,0.0,0.0,0.0,0.0,0.0,0.0,0.0,0.0,0.0,0.0,0.0,0.0,0.0,0.0,0.0,0.0,0.0,0.0,0.0,0.0,0.0,0.0,0.0,0.0,0.0,0.0,0.0,0.0,0.0,0.0,0.0,0.0,0.0,0.0,0.0,0.0,0.0,0.0,0.0,0.0,0.0,0.0,0.0,0.0,0.0,0.0,0.0,0.0,0.0,0.0,0.0,0.0,0.0,0.0,0.0,0.0,0.0,0.0,0.0,0.0,0.0,0.0,0.0,0.0,0.0,0.0,0.0,0.0,0.0,0.0,0.0,0.0,0.0,0.0,0.0,0.0,0.0,0.0,0.0,0.0,0.0,0.0,0.0,0.0,0.0,0.0,0.0,0.0,0.0,0.0,0.0,0.0,0.0,-3.3147,-3.2722,-3.2465,-3.2465,-3.1755,-3.0231,-2.7846,0.0,0.0,0.0,0.0,0.0,0.0,0.0,0.0,0.0,0.0,0.0,0.0,0.0,0.0,0.0,0.0,0.0,0.0,0.0,0.0,0.0,0.0,0.0,0.0,0.0,0.0,0.0,0.0,0.0,0.0,0.0,0.0,0.0,0.0,0.0,0.0,0.0,0.0,0.0,0.0,0.0,0.0,0.0,0.0,0.0,0.0,0.0,0.0,0.0,0.0,0.0,0.0,0.0,0.0,0.0,0.0,0.0,0.0,0.0,0.0,0.0,0.0,0.0,0.0,0.0,0.0,0.0,0.0,0.0,0.0,0.0,0.0,0.0,0.0,0.0,0.0,0.0,0.0,0.0,0.0,0.0,0.0,0.0,0.0,0.0,0.0,0.0,0.0,0.0,0.0,0.0,0.0,0.0,0.0,0.0,0.0,0.0,0.0,0.0,0.0,0.0,0.0,0.0,0.0,0.0,0.0,0.0,0.0,-3.7302,-3.614,-3.5448,-3.5314,-3.4524,-3.234,0.0,0.0,0.0,0.0,0.0,0.0,0.0,0.0,0.0,0.0,0.0,0.0,0.0,0.0,0.0,0.0,0.0,0.0,0.0,0.0,0.0,0.0,0.0,0.0,0.0,0.0,0.0,0.0,0.0,0.0,0.0,0.0,0.0,0.0,0.0,0.0,0.0,0.0,0.0,0.0,0.0,0.0,0.0,0.0,0.0,0.0,0.0,0.0,0.0,0.0,0.0,0.0,0.0,0.0,0.0,0.0,0.0,0.0,0.0,0.0,0.0,0.0,0.0,0.0,0.0,0.0,0.0,0.0,0.0,0.0,0.0,0.0,0.0,0.0,0.0,0.0,0.0,0.0,0.0,0.0,0.0,0.0,0.0,0.0,0.0,0.0,0.0,0.0,0.0,0.0,0.0,0.0,0.0,0.0,0.0,0.0,0.0,0.0,0.0,0.0,0.0,0.0,0.0,0.0,0.0,0.0,0.0,0.0,0.0,-4.0143,-4.0365,-3.9725,-3.8236,-3.639,-3.4425,0.0,0.0,0.0,0.0,0.0,0.0,0.0,0.0,0.0,0.0,0.0,0.0,0.0,0.0,0.0,0.0,0.0,0.0,0.0,0.0,0.0,0.0,0.0,0.0,0.0,0.0,0.0,0.0,0.0,0.0,0.0,0.0,0.0,0.0,0.0,0.0,0.0,0.0,0.0,0.0,0.0,0.0,0.0,0.0,0.0,0.0,0.0,0.0,0.0,0.0,0.0,0.0,0.0,0.0,0.0,0.0,0.0,0.0,0.0,0.0,0.0,0.0,0.0,0.0,0.0,0.0,0.0,0.0,0.0,0.0,0.0,0.0,0.0,0.0,0.0,0.0,0.0,0.0,0.0,0.0,0.0,0.0,0.0,0.0,0.0,0.0,0.0,0.0,0.0,0.0,0.0,0.0,0.0,0.0,0.0,0.0,0.0,0.0,0.0,0.0,0.0,0.0,0.0,0.0,0.0,0.0,0.0,0.0,-3.8916,-4.1273,-4.2594,-4.2722,-4.1563,-3.903,-3.6531,0.0,0.0,0.0,0.0,0.0,0.0,0.0,0.0,0.0,0.0,0.0,0.0,0.0,0.0,0.0,0.0,0.0,0.0,0.0,0.0,0.0,0.0,0.0,0.0,0.0,0.0,0.0,0.0,0.0,0.0,0.0,0.0,0.0,0.0,0.0,0.0,0.0,0.0,0.0,0.0,0.0,0.0,0.0,0.0,0.0,0.0,0.0,0.0,0.0,0.0,0.0,0.0,0.0,0.0,0.0,0.0,0.0,0.0,0.0,0.0,0.0,0.0,0.0,0.0,0.0,0.0,0.0,0.0,0.0,0.0,0.0,0.0,0.0,0.0,0.0,0.0,0.0,0.0,0.0,0.0,0.0,0.0,0.0,0.0,0.0,0.0,0.0,0.0,0.0,0.0,0.0,0.0,0.0,0.0,0.0,0.0,0.0,0.0,0.0,0.0,0.0,0.0,0.0,0.0,0.0,0.0,0.0,0.0,-3.9868,-4.1424,-4.3504,-4.4598,-4.4513,-4.1745,-3.8524,0.0,0.0,0.0,0.0,0.0,0.0,0.0,0.0,0.0,0.0,0.0,0.0,0.0,0.0,0.0,0.0,0.0,0.0,0.0,0.0,0.0,0.0,0.0,0.0,0.0,0.0,0.0,0.0,0.0,0.0,0.0,0.0,0.0,0.0,0.0,0.0,0.0,0.0,0.0,0.0,0.0,0.0,0.0,0.0,0.0,0.0,0.0,0.0,0.0,0.0,0.0,0.0,0.0,0.0,0.0,0.0,0.0,0.0,0.0,0.0,0.0,0.0,0.0,0.0,0.0,0.0,0.0,0.0,0.0,0.0,0.0,0.0,0.0,0.0,0.0,0.0,0.0,0.0,0.0,0.0,0.0,0.0,0.0,0.0,0.0,0.0,0.0,0.0,0.0,0.0,0.0,0.0,0.0,0.0,0.0,0.0,0.0,0.0,0.0,0.0,0.0,0.0,0.0,0.0,0.0,0.0,0.0,0.0,-4.0865,-4.2895,-4.4012,-4.4598,-4.4598,-4.2236,-3.9783,0.0,0.0,0.0,0.0,0.0,0.0,0.0,0.0,0.0,0.0,0.0,0.0,0.0,0.0,0.0,0.0,0.0,0.0,0.0,0.0,0.0,0.0,0.0,0.0,0.0,0.0,0.0,0.0,0.0,0.0,0.0,0.0,0.0,0.0,0.0,0.0,0.0,0.0,0.0,0.0,0.0,0.0,0.0,0.0,0.0,0.0,0.0,0.0,-2.6612,0.0,0.0,0.0,0.0,0.0,0.0,0.0,0.0,0.0,0.0,0.0,0.0,0.0,0.0,0.0,0.0,0.0,0.0,0.0,0.0,0.0,0.0,0.0,0.0,0.0,0.0,0.0,0.0,0.0,0.0,0.0,0.0,0.0,0.0,0.0,0.0,0.0,0.0,0.0,0.0,0.0,0.0,0.0,0.0,0.0,0.0,0.0,0.0,0.0,0.0,0.0,0.0,0.0,0.0,0.0,0.0,0.0,0.0,0.0,-4.1525,-4.3325,-4.4181,-4.4598,-4.4547,-4.3064,-4.1035,0.0,0.0,0.0,0.0,0.0,0.0,0.0,0.0,0.0,0.0,0.0,0.0,0.0,0.0,0.0,0.0,0.0,0.0,0.0,0.0,0.0,0.0,0.0,0.0,0.0,0.0,0.0,0.0,0.0,0.0,0.0,0.0,0.0,0.0,0.0,0.0,0.0,0.0,0.0,0.0,0.0,0.0,0.0,0.0,0.0,0.0,0.0,0.0,0.0,0.0,0.0,0.0,0.0,0.0,0.0,0.0,0.0,0.0,0.0,0.0,0.0,0.0,0.0,0.0,0.0,0.0,0.0,0.0,0.0,0.0,0.0,0.0,0.0,0.0,0.0,0.0,0.0,0.0,0.0,0.0,0.0,0.0,0.0,0.0,0.0,0.0,0.0,0.0,0.0,0.0,0.0,0.0,0.0,0.0,0.0,0.0,0.0,0.0,0.0,0.0,0.0,0.0,0.0,0.0,0.0,0.0,0.0,-4.0138,-4.1982,-4.3538,-4.4231,-4.4598,-4.4581,-4.3826,-4.2083,-3.9225,0.0,0.0,0.0,0.0,0.0,0.0,0.0,0.0,0.0,0.0,0.0,0.0,0.0,0.0,0.0,0.0,0.0,0.0,0.0,0.0,0.0,0.0,0.0,0.0,0.0,0.0,0.0,0.0,0.0,0.0,0.0,0.0,0.0,0.0,0.0,0.0,0.0,0.0,-2.0273,-2.3474,0.0,0.0,0.0,0.0,0.0,0.0,0.0,0.0,-2.9509,0.0,0.0,0.0,0.0,0.0,0.0,0.0,0.0,0.0,0.0,0.0,0.0,0.0,0.0,0.0,0.0,0.0,0.0,0.0,0.0,0.0,0.0,0.0,0.0,0.0,0.0,0.0,0.0,0.0,0.0,0.0,0.0,0.0,0.0,0.0,0.0,0.0,0.0,0.0,0.0,0.0,0.0,0.0,0.0,0.0,0.0,0.0,0.0,0.0,0.0,0.0,0.0,0.0,0.0,0.0,0.0,-3.8802,-4.0392,-4.2236,-4.4344,-4.453,-4.4598,-4.4581,-4.3826,-4.2303,-3.9926,0.0,0.0,0.0,0.0,0.0,0.0,0.0,0.0,0.0,0.0,0.0,0.0,0.0,0.0,0.0,0.0,0.0,0.0,0.0,0.0,0.0,0.0,0.0,0.0,0.0,0.0,0.0,0.0,0.0,0.0,0.0,0.0,0.0,0.0,0.0,0.0,0.0,0.0,0.0,-2.6109,-2.8144,0.0,0.0,0.0,0.0,0.0,0.0,0.0,0.0,-3.0699,0.0,0.0,0.0,0.0,0.0,0.0,0.0,0.0,0.0,0.0,0.0,0.0,0.0,0.0,0.0,0.0,0.0,0.0,0.0,0.0,0.0,0.0,0.0,0.0,0.0,0.0,0.0,0.0,0.0,0.0,0.0,0.0,0.0,0.0,0.0,0.0,0.0,0.0,0.0,0.0,0.0,0.0,0.0,0.0,0.0,0.0,0.0,0.0,0.0,0.0,0.0,0.0,0.0,0.0,0.0,-3.9495,-4.1407,-4.3081,-4.4547,-4.4598,-4.4598,-4.4581,-4.3826,-4.2202,0.0,0.0,0.0,0.0,0.0,0.0,0.0,0.0,0.0,0.0,0.0,0.0,0.0,0.0,0.0,0.0,0.0,0.0,0.0,0.0,0.0,0.0,0.0,0.0,0.0,0.0,0.0,0.0,0.0,0.0,0.0,0.0,0.0,0.0,0.0,0.0,0.0,0.0,0.0,0.0,-2.7894,-2.9482,-3.2187,0.0,0.0,0.0,0.0,0.0,0.0,-3.1971,-3.1119,0.0,0.0,0.0,0.0,0.0,0.0,0.0,0.0,0.0,0.0,0.0,0.0,0.0,0.0,0.0,0.0,0.0,0.0,0.0,0.0,0.0,0.0,0.0,0.0,0.0,0.0,0.0,0.0,0.0,0.0,0.0,0.0,0.0,0.0,0.0,0.0,0.0,0.0,0.0,0.0,0.0,0.0,0.0,0.0,0.0,0.0,0.0,0.0,0.0,0.0,0.0,0.0,0.0,0.0,0.0,-4.0299,-4.2354,-4.3792,-4.4564,-4.4598,-4.4598,-4.4581,-4.3673,-4.1948,0.0,0.0,0.0,0.0,0.0,0.0,0.0,0.0,0.0,0.0,0.0,0.0,0.0,0.0,0.0,0.0,0.0,0.0,0.0,0.0,0.0,0.0,0.0,0.0,0.0,0.0,0.0,0.0,0.0,0.0,0.0,0.0,0.0,0.0,0.0,0.0,0.0,0.0,0.0,0.0,0.0,-3.0361,-3.3216,-3.2715,0.0,0.0,0.0,0.0,-3.325,-3.2252,0.0,0.0,0.0,0.0,0.0,0.0,0.0,0.0,0.0,0.0,0.0,0.0,0.0,0.0,0.0,0.0,0.0,0.0,0.0,0.0,0.0,0.0,0.0,0.0,0.0,0.0,0.0,0.0,0.0,0.0,0.0,0.0,0.0,0.0,0.0,0.0,0.0,0.0,0.0,0.0,0.0,0.0,0.0,0.0,0.0,0.0,0.0,0.0,0.0,0.0,0.0,0.0,0.0,0.0,0.0,0.0,-4.1001,-4.2598,-4.3792,-4.4547,-4.4598,-4.4598,-4.4581,-4.3183,-4.166,0.0,0.0,0.0,0.0,0.0,0.0,0.0,0.0,0.0,0.0,0.0,0.0,0.0,0.0,0.0,0.0,0.0,0.0,0.0,0.0,0.0,0.0,0.0,0.0,0.0,0.0,0.0,0.0,0.0,0.0,0.0,0.0,0.0,0.0,0.0,0.0,0.0,0.0,0.0,0.0,0.0,-3.0405,-3.3462,-3.3087,-3.245,0.0,0.0,-3.2549,-3.2612,-3.2495,0.0,0.0,0.0,0.0,0.0,0.0,0.0,0.0,0.0,0.0,0.0,0.0,0.0,0.0,0.0,0.0,0.0,0.0,0.0,0.0,0.0,0.0,0.0,0.0,0.0,0.0,0.0,0.0,0.0,0.0,0.0,0.0,0.0,0.0,0.0,0.0,0.0,0.0,0.0,0.0,0.0,0.0,0.0,0.0,0.0,0.0,0.0,0.0,0.0,0.0,0.0,0.0,0.0,0.0,0.0,-3.8667,-4.1153,-4.3115,-4.4276,-4.4615,-4.4993,-4.5213,-4.5229,-4.4164,-4.2516,0.0,0.0,0.0,0.0,0.0,0.0,0.0,0.0,0.0,0.0,0.0,0.0,0.0,0.0,0.0,0.0,0.0,0.0,0.0,0.0,0.0,0.0,0.0,0.0,0.0,0.0,0.0,0.0,0.0,0.0,0.0,0.0,0.0,0.0,0.0,0.0,0.0,0.0,0.0,0.0,0.0,0.0,-3.2528,-3.2926,0.0,0.0,0.0,-3.2959,-3.2844,0.0,0.0,0.0,0.0,0.0,0.0,0.0,0.0,0.0,0.0,0.0,0.0,0.0,0.0,0.0,0.0,0.0,0.0,0.0,0.0,0.0,0.0,0.0,0.0,0.0,0.0,0.0,0.0,0.0,0.0,0.0,0.0,0.0,0.0,0.0,0.0,0.0,0.0,0.0,0.0,0.0,0.0,0.0,0.0,0.0,0.0,0.0,0.0,0.0,0.0,0.0,0.0,0.0,0.0,0.0,0.0,0.0,-4.1745,-4.3809,-4.5043,-4.5399,-4.5974,-4.6363,-4.6498,-4.5805,0.0,0.0,0.0,0.0,0.0,0.0,0.0,0.0,0.0,0.0,0.0,0.0,0.0,0.0,0.0,0.0,0.0,0.0,0.0,0.0,0.0,0.0,0.0,0.0,0.0,0.0,0.0,-2.4971,0.0,0.0,0.0,0.0,0.0,0.0,0.0,0.0,0.0,0.0,0.0,0.0,0.0,0.0,-3.0313,-3.1736,-3.273,-3.327,0.0,0.0,-3.327,-3.3124,-3.2704,-3.2014,0.0,0.0,0.0,0.0,0.0,0.0,0.0,0.0,0.0,0.0,0.0,0.0,0.0,0.0,0.0,0.0,0.0,0.0,0.0,0.0,0.0,0.0,0.0,0.0,0.0,0.0,0.0,0.0,0.0,0.0,0.0,0.0,0.0,0.0,0.0,0.0,0.0,0.0,0.0,0.0,0.0,0.0,0.0,0.0,0.0,0.0,0.0,0.0,0.0,0.0,0.0,0.0,0.0,0.0,0.0,-4.3172,-4.484,-4.6295,-4.7631,-4.7703,-4.8075,-4.8748,-4.8041,-4.6249,0.0,0.0,0.0,0.0,0.0,0.0,0.0,0.0,0.0,0.0,0.0,0.0,0.0,0.0,0.0,0.0,0.0,0.0,0.0,0.0,0.0,0.0,0.0,0.0,0.0,0.0,0.0,0.0,0.0,0.0,0.0,0.0,0.0,0.0,0.0,0.0,0.0,0.0,0.0,0.0,0.0,-3.0011,-3.1508,-3.2533,-3.3124,0.0,0.0,-3.3124,-3.3124,-3.3086,-3.2466,-3.0871,0.0,0.0,0.0,0.0,0.0,0.0,0.0,0.0,0.0,0.0,0.0,0.0,0.0,0.0,0.0,0.0,0.0,0.0,0.0,0.0,0.0,0.0,0.0,0.0,0.0,0.0,0.0,0.0,0.0,0.0,0.0,0.0,0.0,0.0,0.0,0.0,0.0,0.0,0.0,0.0,0.0,0.0,0.0,0.0,0.0,0.0,0.0,0.0,0.0,0.0,0.0,0.0,0.0,-4.0916,-4.3375,-4.5838,-4.7331,-4.7889,-4.8781,-4.939,-4.9678,-4.9407,-4.8071,0.0,0.0,0.0,0.0,0.0,0.0,0.0,0.0,0.0,0.0,0.0,0.0,0.0,0.0,0.0,0.0,0.0,0.0,0.0,0.0,0.0,0.0,0.0,0.0,0.0,0.0,0.0,0.0,-3.3784,-3.414,-3.2971,0.0,0.0,0.0,0.0,0.0,0.0,0.0,0.0,0.0,0.0,-3.0735,-3.1849,-3.2608,0.0,0.0,-3.3124,-3.3124,-3.3124,-3.3124,-3.2729,-3.1763,-3.0407,0.0,0.0,0.0,0.0,0.0,0.0,0.0,0.0,0.0,0.0,0.0,0.0,0.0,0.0,0.0,0.0,0.0,0.0,0.0,0.0,0.0,0.0,0.0,0.0,0.0,0.0,0.0,0.0,0.0,0.0,0.0,0.0,0.0,0.0,0.0,0.0,0.0,0.0,0.0,0.0,0.0,0.0,0.0,0.0,0.0,0.0,0.0,0.0,0.0,0.0,0.0,0.0,-4.1837,-4.4079,-4.6807,-4.8477,-4.8869,-5.0101,-5.0862,-5.1099,-5.1116,-5.0067,0.0,0.0,0.0,0.0,0.0,0.0,0.0,0.0,0.0,0.0,0.0,0.0,0.0,0.0,0.0,0.0,0.0,0.0,0.0,0.0,0.0,0.0,0.0,0.0,0.0,0.0,0.0,0.0,-3.5457,-3.5279,-3.3118,0.0,0.0,0.0,0.0,0.0,0.0,0.0,0.0,0.0,0.0,-3.1375,-3.2077,-3.2704,-3.3124,-3.3124,-3.3124,-3.3124,-3.3124,-3.3124,-3.293,-3.2541,0.0,0.0,0.0,0.0,0.0,0.0,0.0,0.0,0.0,0.0,0.0,0.0,0.0,0.0,0.0,0.0,0.0,0.0,0.0,0.0,0.0,0.0,0.0,0.0,0.0,0.0,0.0,0.0,0.0,0.0,0.0,0.0,0.0,0.0,0.0,0.0,0.0,0.0,0.0,0.0,0.0,0.0,0.0,0.0,0.0,0.0,0.0,0.0,0.0,0.0,0.0,0.0,0.0,-4.3369,-4.5635,-4.7868,-4.9695,-5.105,-5.1877,-5.2604,-5.3348,-5.3416,-5.235,-5.0033,0.0,0.0,0.0,0.0,0.0,0.0,0.0,0.0,0.0,0.0,0.0,0.0,0.0,0.0,0.0,0.0,0.0,0.0,0.0,0.0,0.0,0.0,0.0,0.0,0.0,0.0,-3.4382,-3.4927,-3.4502,0.0,0.0,0.0,0.0,0.0,0.0,0.0,0.0,0.0,0.0,-3.0645,-3.1804,-3.2152,-3.2717,-3.3124,-3.3136,-3.3136,-3.3124,-3.3136,-3.3124,-3.3124,0.0,0.0,0.0,0.0,0.0,0.0,0.0,0.0,0.0,0.0,0.0,0.0,0.0,0.0,0.0,0.0,0.0,0.0,0.0,0.0,0.0,0.0,0.0,0.0,0.0,0.0,0.0,-3.1441,-3.374,0.0,0.0,0.0,0.0,0.0,0.0,0.0,0.0,0.0,0.0,0.0,-3.9732,-3.9986,0.0,0.0,0.0,0.0,0.0,0.0,0.0,0.0,0.0,0.0,0.0,0.0,-4.4671,-4.6464,-4.9103,-5.0963,-5.1911,-5.2706,-5.323,-5.3501,-5.3518,-5.2435,-5.0152,0.0,0.0,0.0,0.0,0.0,0.0,0.0,0.0,0.0,0.0,0.0,0.0,0.0,0.0,0.0,0.0,0.0,0.0,0.0,0.0,0.0,0.0,0.0,0.0,0.0,-3.4814,0.0,0.0,0.0,0.0,0.0,0.0,0.0,0.0,0.0,0.0,0.0,-2.9795,-3.0721,-3.1536,-3.2235,-3.2717,-3.2955,-3.325,0.0,0.0,0.0,0.0,0.0,0.0,0.0,0.0,0.0,0.0,0.0,0.0,0.0,0.0,-2.7233,-2.6121,-2.6119,-2.5981,-2.4908,0.0,0.0,0.0,0.0,0.0,0.0,0.0,0.0,0.0,0.0,0.0,0.0,0.0,0.0,0.0,0.0,-3.7601,0.0,0.0,0.0,0.0,0.0,0.0,0.0,0.0,-4.2185,-4.254,-4.2777,-4.3031,-4.3386,0.0,-4.3606,-4.2236,0.0,0.0,0.0,0.0,0.0,0.0,0.0,0.0,-4.6104,-4.7614,-5.0219,-5.1826,-5.2317,-5.3095,-5.3518,-5.3518,-5.3518,-5.2807,-5.1336,-4.9864,-4.7682,0.0,0.0,0.0,0.0,0.0,0.0,0.0,0.0,0.0,0.0,0.0,0.0,0.0,0.0,0.0,0.0,0.0,0.0,0.0,0.0,0.0,0.0,0.0,-3.6003,0.0,0.0,0.0,0.0,0.0,0.0,0.0,0.0,0.0,-2.9158,-2.996,-3.0922,-3.1738,-3.2412,-3.2867,-3.3043,0.0,0.0,0.0,0.0,0.0,0.0,0.0,-3.3432,-3.3621,-3.3345,-3.283,-3.2102,-3.1072,-3.0344,-3.0357,0.0,0.0,-2.855,-2.8098,-2.7675,-2.6737,-2.6006,-2.5157,-2.4021,-2.3608,-2.3486,0.0,0.0,0.0,0.0,0.0,0.0,0.0,0.0,-3.6592,-3.7811,0.0,-4.0011,0.0,0.0,0.0,0.0,0.0,0.0,0.0,0.0,-4.6053,-4.6413,-4.5821,-4.643,-4.6819,-4.6819,-4.6126,-4.5771,-4.5618,-4.3538,0.0,0.0,0.0,0.0,0.0,0.0,-4.7581,-4.9086,-5.12,-5.23,-5.2384,-5.3112,-5.3518,-5.3518,-5.3518,-5.3484,-5.3433,-5.2029,-5.0559,-4.9069,-4.5551,0.0,0.0,0.0,0.0,0.0,0.0,0.0,0.0,0.0,0.0,0.0,0.0,0.0,0.0,0.0,0.0,0.0,0.0,0.0,0.0,-3.5806,0.0,0.0,0.0,0.0,0.0,0.0,0.0,0.0,0.0,0.0,-3.0764,-3.1301,-3.1868,-3.2177,0.0,0.0,0.0,0.0,-3.3746,-3.3269,-3.3156,-3.3199,-3.3194,-3.3596,-3.4098,-3.4613,0.0,0.0,-3.3307,-3.2215,-3.1486,-3.1474,-3.1834,-3.1818,-3.0738,-2.9292,-2.8344,-2.8391,-2.704,-2.5871,-2.5528,-2.5027,-2.4782,-3.6823,0.0,0.0,0.0,0.0,-3.3706,-3.596,-3.9614,-3.9851,-4.139,-4.3809,-4.4012,0.0,0.0,0.0,0.0,0.0,0.0,-4.5449,-4.616,-4.6599,-4.6955,-4.7263,-4.7496,-4.7868,-4.8359,-4.8173,-4.8054,-4.8037,-4.7394,-4.5906,-4.3673,0.0,0.0,0.0,0.0,-4.9103,-5.0541,-5.1725,-5.2587,-5.3162,-5.3382,-5.3518,-5.3518,-5.3518,-5.3518,-5.3501,-5.3078,-5.2147,-5.0593,-4.8545,0.0,0.0,0.0,0.0,0.0,0.0,0.0,0.0,0.0,0.0,0.0,0.0,0.0,0.0,0.0,0.0,0.0,0.0,0.0,-3.7079,-3.7614,-3.7664,0.0,0.0,0.0,0.0,0.0,0.0,0.0,0.0,0.0,-3.2574,-3.2642,-3.2739,0.0,0.0,-3.3847,-3.3684,-3.4135,-3.4575,-3.4768,0.0,0.0,0.0,-3.4638,-3.4537,-3.47,-3.468,-3.4613,-3.4299,-3.3658,-3.3181,-3.3169,-3.224,-3.1383,-3.1098,-3.0687,-2.9748,-2.8289,-2.7433,-2.6754,-2.5877,-2.5505,-2.5457,-4.3369,-4.0663,-3.7729,-3.7172,-3.8244,-3.8261,-4.0223,-4.342,-4.342,-4.4451,-4.6126,-4.6126,-4.5889,-4.5478,-4.5478,0.0,0.0,0.0,-4.6972,-4.7665,-4.7665,-4.7919,-4.8342,-4.8342,-4.8578,-4.9001,-4.9018,-4.9018,-4.9018,-4.9018,-4.8105,-4.6397,0.0,0.0,-4.7682,-4.8832,-5.0168,-5.1606,-5.2384,-5.301,-5.3501,-5.3518,-5.3518,-5.3518,-5.3518,-5.3518,-5.3518,-5.3518,-5.3078,-5.2147,-5.0661,-4.8595,0.0,0.0,0.0,0.0,0.0,0.0,0.0,0.0,0.0,0.0,0.0,-3.1008,0.0,0.0,0.0,0.0,-3.6072,-3.7143,-3.8661,-3.8542,0.0,0.0,0.0,0.0,0.0,0.0,0.0,-3.4353,-3.3811,-3.3607,-3.4038,-3.3896,-3.3734,-3.3734,-3.4198,-3.443,-3.4261,0.0,-3.5044,-3.5157,-3.4893,-3.4793,-3.5119,-3.5082,-3.5082,-3.5341,-3.519,-3.5006,-3.4994,-3.4555,-3.4248,-3.4059,-3.316,-3.1946,-3.098,-3.0636,-2.9943,-2.7992,-2.7173,-2.6572,-2.583,-2.5684,-2.5684,-4.9018,-4.8426,-4.1644,-4.0375,-4.2777,-4.2828,-4.4401,-4.6921,-4.6938,-4.6972,-4.6972,-4.6972,-4.6972,-4.6972,-4.6955,0.0,0.0,-4.7973,-4.8342,-4.9001,-4.9018,-4.9018,-4.9018,-4.9001,-4.9018,-4.9018,-4.9018,-4.9018,-4.9018,-4.9018,-4.9001,-4.8984,-4.8392,-4.846,-4.9187,-4.9898,-5.0963,-5.2384,-5.3112,-5.3501,-5.3518,-5.3518,-5.3518,-5.3518,-5.3518,-5.3518,-5.3518,-5.3518,-5.3518,-5.3467,-5.2164,-5.0678,-4.9171,0.0,0.0,0.0,0.0,0.0,0.0,0.0,0.0,0.0,0.0,0.0,0.0,0.0,0.0,0.0,-3.8882,0.0,-3.9574,-3.9005,0.0,0.0,0.0,-3.8447,-3.8752,-3.7504,-3.6733,-3.6921,0.0,0.0,-3.5085,0.0,-3.4801,-3.4851,-3.5207,-3.532,-3.4806,-3.5207,-3.537,-3.5014,-3.4889,-3.4864,-3.5027,-3.5341,-3.5755,-3.6216,-3.5943,-3.5583,-3.5533,-3.5119,-3.4826,-3.4731,-3.4157,-3.302,-3.0764,-2.9902,-2.8918,-2.7862,-2.6651,-2.5732,-2.5684,-2.5684,-2.5684,-4.9018,-4.8849,-4.7107,-4.6769,-4.7394,-4.7411,-4.7817,-4.846,-4.8494,-4.8477,-4.8477,-4.8477,-4.8477,-4.8477,-4.8477,-4.8578,-4.8748,-4.8748,-4.8832,-4.9001,-4.9018,-4.9018,-4.9018,-4.9018,-4.9018,-4.9018,-4.9018,-4.9018,-4.9018,-4.9018,-4.9018,-4.9035,-4.939,-4.9949,-5.0693,-5.142,-5.2249,-5.3213,-5.3416,-5.3518,-5.3518,-5.3518,-5.3518,-5.3518,-5.3518,-5.3518,-5.3518,-5.3518,-5.3518,-5.3501,-5.3162,-5.2266,-5.0712,-4.753,0.0,0.0,0.0,0.0,0.0,0.0,0.0,0.0,0.0,-3.5975,-3.5938,0.0,-3.8271,0.0,-4.0179,-4.0905,-4.0943,-4.0771,0.0,0.0,-4.0122,-3.9802,-4.0188,-3.8555,-3.7359,-3.7287,-3.609,-3.5294,-3.5387,-3.5353,-3.5458,-3.5893,-3.5717,-3.5445,-3.5332,-3.5818,-3.6166,-3.5981,-3.5977,-3.6015,-3.599,-3.6069,-3.6207,-3.638,-3.6292,-3.6169,-3.6157,-3.5717,-3.5307,-3.5132,-3.3204,-3.1949,-3.2137,-2.979,-2.8012,-2.7983,-2.6853,-2.5684,-2.5684,-2.5684,-2.5684,-4.9796,-4.9492,-4.9492,-4.9306,-4.9018,-4.9018,-4.9018,-4.9018,-4.9018,-4.9018,-4.9018,-4.9018,-4.9018,-4.9018,-4.9018,-4.9018,-4.9018,-4.9018,-4.9018,-4.9018,-4.9018,-4.9018,-4.9018,-4.9018,-4.9018,-4.9018,-4.9018,-4.9018,-4.9018,-4.9018,-4.9018,-4.9035,-5.0067,-5.0811,-5.1185,-5.1928,-5.2706,-5.3501,-5.3518,-5.3518,-5.3518,-5.3518,-5.3518,-5.3518,-5.3518,-5.3518,-5.3518,-5.3518,-5.3518,-5.3518,-5.3518,-5.2959,-5.1742,-4.9204,-4.6921,0.0,0.0,0.0,0.0,0.0,0.0,0.0,0.0,0.0,0.0,0.0,-4.0091,0.0,-4.122,-4.1737,-4.1437,-4.1422,-4.1527,-4.1826,-4.1398,-4.1328,-4.1867,-3.9978,-3.8579,-3.8493,-3.6968,-3.5906,-3.5906,-3.5918,-3.6019,-3.6367,-3.6107,-3.5906,-3.5931,-3.6169,-3.6417,-3.6417,-3.6417,-3.6417,-3.6417,-3.6417,-3.6417,-3.6417,-3.6417,-3.6417,-3.6405,-3.6119,-3.5906,-3.5775,-3.4287,-3.2771,-3.2367,-3.0535,-2.8671,-2.7731,-2.7003,-2.6231,-2.5762,-2.5684,-2.5684,-5.0828,-5.0236,-5.0236,-4.9881,-4.9272,-4.9289,-4.9187,-4.9018,-4.9018,-4.9018,-4.9018,-4.9018,-4.9018,-4.9018,-4.9018,-4.9018,-4.9018,-4.9018,-4.9018,-4.9018,-4.9018,-4.9018,-4.9018,-4.9018,-4.9018,-4.9018,-4.9018,-4.9018,-4.9018,-4.9018,-4.9018,-4.9069,-5.0405,-5.1065,-5.1116,-5.1792,-5.2604,-5.3484,-5.3518,-5.3518,-5.3518,-5.3518,-5.3518,-5.3518,-5.3518,-5.3518,-5.3518,-5.3518,-5.3518,-5.3518,-5.3518,-5.3179,-5.2452,-5.0456,-4.8714,0.0,-4.5149,0.0,0.0,0.0,0.0,0.0,0.0,0.0,0.0,-4.1237,-4.1716,-4.1542,-4.2141,-4.2291,-4.1707,-4.1639,-4.1863,-4.2455,-4.253,-4.2716,-4.3135,-4.1267,-3.9885,-3.9885,-3.7828,-3.6417,-3.6392,-3.6417,-3.6405,-3.6405,-3.6392,-3.6355,-3.6392,-3.6392,-3.6417,-3.6417,-3.6417,-3.6417,-3.6417,-3.6417,-3.6417,-3.6417,-3.6417,-3.6417,-3.6417,-3.6405,-3.6405,-3.6307,-3.5662,-3.4529,-3.2403,-3.1427,-2.9964,-2.7945,-2.7316,-2.6826,-2.6122,-2.5927,-2.5859,-5.11,-5.1014,-5.0965,-5.0913,-5.0794,-5.0811,-5.0101,-4.9018,-4.9018,-4.9018,-4.9018,-4.9018,-4.9018,-4.9018,-4.9018,-4.9018,-4.9018,-4.9018,-4.9018,-4.9018,-4.9018,-4.9018,-4.9018,-4.9018,-4.9018,-4.9018,-4.9018,-4.9018,-4.9018,-4.9018,-4.9018,-4.9035,-4.9864,-5.0304,-5.0338,0.0,0.0,0.0,-5.3518,-5.3518,-5.3518,-5.3518,-5.3518,-5.3518,-5.3518,0.0,-5.3518,-5.3518,-5.3518,-5.3518,-5.3518,0.0,0.0,0.0,0.0,0.0,0.0,0.0,0.0,0.0,0.0,0.0,-4.5018,-4.3675,-4.1808,-4.1979,-4.2254,-4.2231,-4.2776,-4.3065,-4.2946,-4.2916,-4.3015,-4.3135,-4.311,-4.317,-4.3195,-4.1267,-3.9885,-3.9842,-3.7828,-3.6405,-3.6417,-3.6417,-3.6417,-3.6417,-3.6417,-3.6417,-3.6417,-3.6417,-3.6417,-3.6417,-3.6417,-3.6417,-3.6417,-3.6417,-3.6417,-3.6417,-3.6417,-3.6417,-3.6417,-3.6417,-3.6417,-3.6358,-3.5437,-3.4558,-3.3915,-3.2029,-3.0245,-2.934,-2.8276,-2.7383,-2.6875,-2.6768,-2.6768,-5.2114,0.0,-5.1758,-5.1539,0.0,-5.1234,-5.0794,-5.0101,-5.0101,-5.0101,-5.0067,-4.9695,-4.9543,-4.9526,-4.9171,-4.9018,-4.9018,-4.9018,-4.9018,-4.9018,-4.9018,-4.9018,-4.9018,-4.9018,-4.9018,-4.9018,-4.9018,-4.9018,-4.9018,-4.9018,-4.9018,-4.9018,-4.9729,-5.0101,-5.0135,-5.12,-5.2131,-5.2909,-5.3298,-5.3518,-5.3518,-5.3518,-5.3518,-5.3518,0.0,0.0,0.0,0.0,0.0,0.0,0.0,0.0,0.0,0.0,0.0,-5.1217,-5.0105,-4.977,-5.0398,-4.9093,-4.8264,-4.8384,-4.6865,-4.5304,-4.3838,-4.3813,-4.3848,-4.3823,-4.4107,-4.4167,-4.3853,-4.3783,-4.3648,-4.3349,-4.3305,-4.3305,-4.313,-4.1782,-4.0532,-3.9855,-3.8347,-3.707,-3.6452,-3.6417,-3.6417,-3.6417,-3.6417,-3.6417,-3.6417,-3.6417,-3.6417,-3.6417,-3.6417,-3.6417,-3.6417,-3.6417,-3.6417,-3.6417,-3.6417,-3.6417,-3.6417,-3.6417,-3.6417,-3.6358,-3.5823,-3.5223,-3.4374,-3.2705,-3.0995,-3.0096,-2.8936,-2.7973,-2.7656,-2.7314,-2.7012,-5.3129,-5.252,-5.2536,-5.2181,-5.1623,-5.1591,-5.1623,-5.1606,0.0,0.0,0.0,-5.0557,-5.0287,-5.0253,-4.9661,-4.9407,-4.939,-4.939,-4.939,-4.939,-4.9407,-4.939,-4.939,-4.939,-4.939,-4.939,-4.9407,-4.9306,-4.9187,-4.9204,-4.912,-4.9069,-4.9593,-4.9881,-4.9982,-5.1234,-5.1911,-5.1944,-5.2976,-5.3518,-5.3518,-5.3518,-5.3518,-5.3518,-5.3518,-5.3518,-5.3518,-5.3518,-5.3518,-5.3518,-5.3518,-5.3213,-5.257,-5.2503,-5.2249,-5.1674,-5.1623,-5.1877,-5.2436,-5.1383,-5.0485,-4.9899,-4.7762,-4.6244,-4.5763,-4.5488,-4.5289,-4.5289,-4.5289,-4.505,-4.4541,-4.4481,-4.4272,-4.3693,-4.3633,-4.3648,-4.3608,-4.2626,-4.1525,-4.0334,-3.9204,-3.799,-3.6922,-3.6656,-3.6556,-3.6543,-3.6493,-3.6417,-3.6417,-3.6417,-3.6417,-3.6417,-3.6417,-3.6417,-3.6417,-3.6417,-3.6417,-3.6417,-3.6417,-3.6417,-3.6417,-3.6417,-3.6417,-3.6417,-3.6417,-3.5823,-3.4629,-3.3204,-3.1887,-3.0566,-2.926,-2.8301,-2.8232,-2.7744,-2.7305,-5.3433,-5.3348,-5.3331,-5.3281,-5.3179,-5.3179,-5.3196,-5.3078,-5.176,-5.1234,-5.1217,-5.1116,-5.1065,-5.1048,-5.0963,-5.0896,-5.0881,-5.0881,-5.0913,0.0,-5.0881,-5.0881,-5.0913,-5.0913,-5.0896,-5.0864,-5.0913,-5.0574,-4.9999,-4.9932,-4.9627,-4.9086,-4.9103,-4.9171,-4.9221,-4.9982,-5.0405,-5.0456,-5.2452,-5.3518,-5.3518,-5.3518,-5.3518,-5.3518,-5.3518,-5.3518,-5.3518,-5.3518,-5.3518,-5.3518,-5.3518,-5.345,-5.3348,-5.3331,-5.3298,-5.3196,-5.3179,-5.323,-5.3281,-5.1536,-4.9679,-4.7946,-4.7377,-4.6875,-4.6232,-4.5633,-4.5289,-4.5289,-4.5349,-4.5259,-4.5155,-4.5155,-4.511,-4.499,-4.5005,-4.5005,-4.4945,-4.4011,-4.2796,-4.1498,-4.038,-3.9133,-3.7918,-3.7324,-3.7073,-3.6998,-3.6769,-3.643,-3.6417,-3.6417,-3.6417,-3.6417,-3.6417,-3.6417,-3.6417,-3.6417,-3.6417,-3.6417,-3.6417,-3.6417,-3.6417,-3.6417,-3.6417,-3.6417,-3.6417,-3.5918,-3.4739,-3.3254,-3.2028,-3.0721,-2.9398,-2.8441,-2.8344,-2.8135,-2.8057,-5.3856,-5.3518,-5.3518,-5.3518,-5.3518,-5.3518,-5.3518,-5.345,-5.2756,-5.2469,-5.2401,-5.1995,-5.1792,-5.1758,-5.1386,-5.1234,-5.1234,-5.1234,-5.1234,-5.1234,-5.1234,-5.1234,-5.1234,-5.1234,-5.1234,-5.1234,-5.1234,-5.1016,-5.0727,-5.071,-5.0321,-4.961,-4.9204,-4.9018,-4.9052,-4.9729,-5.0101,-5.0118,-5.1911,-5.2841,-5.2875,-5.3281,-5.3518,-5.3518,-5.3518,-5.3518,-5.3518,-5.3518,-5.3518,-5.3518,-5.3518,-5.3518,-5.3518,-5.3518,-5.3518,-5.3518,-5.3518,-5.3518,-5.3518,-5.1557,-4.975,-4.8267,-4.7609,-4.7189,-4.689,-4.6561,-4.6396,-4.6381,-4.6381,-4.6232,-4.5888,-4.5858,-4.5708,-4.5334,-4.5289,-4.5289,-4.5248,-4.4899,-4.3777,-4.2057,-4.1237,-4.0133,-3.8249,-3.7789,-3.7626,-3.7588,-3.7197,-3.6722,-3.6468,-3.6417,-3.6417,-3.6417,-3.6417,-3.6417,-3.6417,-3.6417,-3.6417,-3.6417,-3.6417,-3.6417,-3.6417,-3.6417,-3.6417,-3.6417,-3.6417,-3.6156,-3.5523,-3.441,-3.3005,-3.1633,-3.0317,-2.9303,-2.8601,-2.8301,-2.8301,-5.4515,-5.3991,-5.3805,-5.3653,-5.3518,-5.3518,-5.3518,-5.3518,-5.3501,-5.3518,-5.3416,-5.2841,-5.257,-5.252,-5.1978,-5.1742,-5.1725,-5.1725,-5.1725,-5.1725,-5.1742,-5.1742,-5.1692,-5.1709,-5.1725,-5.1742,-5.1725,-5.164,-5.1488,-5.1471,-5.1065,-5.0338,-4.961,-4.9238,-4.9255,-4.9644,-4.9847,-4.9932,-5.1133,-5.1978,-5.2317,-5.2926,-5.3315,-5.3501,-5.3518,-5.3518,-5.3518,-5.3518,-5.3518,-5.3518,-5.3518,-5.3518,-5.3518,-5.3518,-5.3518,-5.3518,-5.3518,-5.3382,-5.3076,-5.1463,-4.9931,-4.8851,-4.7876,-4.7309,-4.7309,-4.7309,-4.7309,-4.7309,-4.7249,-4.7055,-4.6651,-4.6546,-4.6337,-4.5813,-4.5738,-4.5813,-4.5768,-4.5753,-4.4974,-4.2927,-4.2292,-4.124,-3.9388,-3.8464,-3.814,-3.7939,-3.7525,-3.701,-3.6681,-3.6505,-3.6417,-3.6417,-3.6417,-3.6417,-3.6417,-3.6417,-3.6417,-3.6417,-3.6417,-3.6417,-3.6417,-3.6417,-3.6417,-3.6417,-3.6417,-3.6358,-3.631,-3.5271,-3.3871,-3.2443,-3.1071,-2.9817,-2.8548,-2.8184,-2.8144,-5.5564,-5.5429,-5.4769,-5.411,-5.3551,-5.3534,-5.3534,-5.3518,-5.3518,-5.3518,-5.3484,-5.3416,-5.3365,-5.3382,-5.3281,-5.3213,-5.323,-5.3281,-5.3247,-5.323,-5.3298,-5.3298,-5.3213,-5.3247,-5.3298,-5.3247,-5.3213,-5.2824,-5.2232,-5.2164,-5.1826,-5.1099,-5.0355,-4.9982,-4.9932,-4.9424,-4.9137,-4.912,-4.9898,-5.0947,-5.2232,-5.2384,-5.2756,-5.3484,-5.3501,-5.3518,-5.3501,-5.3518,-5.3518,-5.3518,-5.3518,-5.3518,-5.3518,-5.3518,-5.3518,-5.3518,-5.3518,-5.3093,-5.2117,-5.1005,-4.9931,-4.8866,-4.7876,-4.7309,-4.7309,-4.7309,-4.7309,-4.7309,-4.7309,-4.7264,-4.7234,-4.7189,-4.71,-4.698,-4.698,-4.713,-4.7025,-4.7115,-4.6592,-4.5216,-4.3854,-4.2753,-4.1163,-3.9762,-3.8655,-3.814,-3.7638,-3.7211,-3.701,-3.6681,-3.6417,-3.6417,-3.6417,-3.6417,-3.6417,-3.6417,-3.6417,-3.6417,-3.6417,-3.6417,-3.6417,-3.6417,-3.6417,-3.6417,-3.6417,-3.6417,-3.6156,-3.5319,-3.4068,-3.2521,-3.1152,-2.9838,-2.8648,-2.7978,-2.7754,-5.6105,-5.5683,-5.5378,-5.482,-5.4194,-5.4143,-5.3907,-5.3518,-5.3518,-5.3518,-5.3518,-5.3518,-5.3518,-5.3518,-5.3518,-5.3518,-5.3518,-5.3518,-5.3518,-5.3518,-5.3518,-5.3518,-5.3518,-5.3518,-5.3518,-5.3518,-5.3518,-5.3331,-5.2976,-5.2536,-5.2147,-5.1809,-5.1133,-5.0541,-5.0118,-4.9796,-4.9458,-4.9018,-4.9289,-4.9949,-5.0913,-5.1437,-5.2012,-5.2689,-5.279,-5.3044,-5.345,-5.3518,-5.3518,-5.3518,-5.3518,-5.3518,-5.3518,-5.3518,-5.3518,-5.3518,-5.3518,-5.3314,-5.287,-5.132,-5.0204,-4.9773,-4.8225,-4.7309,-4.7309,-4.7309,-4.7309,-4.7309,-4.7309,-4.7309,-4.7309,-4.7309,-4.7309,-4.7309,-4.7309,-4.7309,-4.7309,-4.7309,-4.6829,-4.5524,-4.427,-4.3026,-4.1713,-4.0311,-3.9221,-3.8592,-3.8027,-3.7563,-3.7236,-3.6757,-3.6455,-3.6417,-3.6417,-3.6417,-3.6417,-3.6417,-3.6417,-3.6417,-3.6417,-3.6417,-3.6417,-3.6417,-3.6417,-3.6417,-3.6417,-3.6417,-3.6417,-3.5953,-3.5005,-3.2948,-3.0188,-2.8573,-2.8025,-2.7578,-2.7256,-5.6799,-5.6325,-5.6105,-5.5581,-5.4905,-5.4905,-5.46,-5.411,-5.3907,-5.3805,-5.3788,-5.3602,-5.3518,-5.3518,-5.3518,-5.3518,-5.3518,-5.3518,-5.3518,-5.3518,-5.3518,-5.3518,-5.3518,-5.3518,-5.3518,-5.3518,-5.3518,-5.3501,-5.345,-5.2942,-5.2638,-5.252,-5.1877,-5.1133,-5.0439,-5.0236,-4.9729,-4.9069,-4.9018,-4.9255,-4.9796,-5.0338,-5.1048,-5.1894,-5.1995,-5.2367,-5.3129,-5.3162,-5.3281,-5.3501,-5.3518,-5.3518,-5.3518,-5.3518,-5.3518,-5.3518,-5.3518,-5.3518,-5.345,-5.1557,-5.0397,-5.0242,-4.8475,-4.7309,-4.7309,-4.7309,-4.7309,-4.7309,-4.7309,-4.7309,-4.7309,-4.7309,-4.7309,-4.7309,-4.7309,-4.7309,-4.7309,-4.7309,-4.6975,-4.5958,-4.4932,-4.3361,-4.1838,-4.0478,-3.9484,-3.912,-3.8454,-3.7902,-3.7412,-3.6908,-3.6417,-3.6417,-3.6417,-3.6417,-3.6417,-3.6417,-3.6417,-3.6417,-3.6417,-3.6417,-3.6417,-3.6417,-3.6417,-3.6417,-3.6417,-3.6417,-3.6417,-3.6203,-3.5439,-3.273,-3.0012,-2.7927,-2.7777,-2.7246,-2.6797,-5.7831,-5.7662,-5.7036,-5.6325,-5.5631,-5.5647,-5.5632,-5.5429,-5.4837,-5.4532,-5.4397,-5.3822,-5.3518,-5.3518,-5.3518,-5.3518,-5.3518,-5.3518,-5.3518,-5.3518,-5.3518,-5.3518,-5.3518,-5.3518,-5.3518,-5.3518,-5.3518,-5.3518,-5.3501,-5.345,-5.345,-5.3382,-5.2638,-5.1894,-5.1166,-5.049,-4.9746,-4.9171,-4.9035,-4.9035,-4.9086,-4.9137,-4.9864,-5.1065,-5.1219,-5.1606,-5.2266,-5.2367,-5.2706,-5.3467,-5.3501,-5.3518,-5.3518,-5.3518,-5.3518,-5.3518,-5.3518,-5.3518,-5.328,-5.1631,-5.0435,-5.0165,-4.8584,-4.7352,-4.7309,-4.7309,-4.7309,-4.7309,-4.7309,-4.7309,-4.7309,-4.7309,-4.7309,-4.7309,-4.7309,-4.7309,-4.7309,-4.7309,-4.7309,-4.6975,-4.5928,-4.4163,-4.1923,-4.0503,-3.9878,-3.946,-3.8693,-3.7977,-3.7776,-3.7036,-3.6505,-3.6417,-3.6417,-3.6417,-3.6417,-3.6417,-3.6417,-3.6417,-3.6417,-3.6417,-3.6417,-3.6417,-3.6417,-3.6417,-3.6417,-3.6417,-3.6417,-3.5846,-3.48,-3.2639,-2.9916,-2.8211,-2.7476,-2.6906,-2.6455,-5.7881,-5.7865,-5.7611,-5.707,-5.6444,-5.641,-5.6173,-5.5664,-5.5446,-5.5023,-5.46,-5.4296,-5.3957,-5.3518,-5.3518,-5.3518,-5.3518,-5.3518,-5.3518,-5.3518,-5.3518,-5.3518,-5.3518,-5.3518,-5.3518,-5.3518,-5.3518,-5.3518,-5.3518,-5.3518,-5.3518,-5.3484,-5.323,-5.2689,-5.1911,-5.1183,-5.0456,-4.9746,-4.9255,-4.9018,-4.9018,-4.9018,-4.9289,-4.9779,-5.0253,-5.0845,-5.1557,-5.2046,-5.2452,-5.2739,-5.3213,-5.3518,-5.3518,-5.3518,-5.3518,-5.3518,-5.3518,-5.3518,-5.3348,-5.217,-5.1043,-5.0358,-4.911,-4.7904,-4.7467,-4.7309,-4.7309,-4.7309,-4.7309,-4.7309,-4.7309,-4.7309,-4.7309,-4.7309,-4.7309,-4.7309,-4.7309,-4.7309,-4.7309,-4.7121,-4.6166,-4.441,-4.2363,-4.1169,-4.0605,-3.9777,-3.8718,-3.8103,-3.7839,-3.7061,-3.6417,-3.6417,-3.6417,-3.6417,-3.6417,-3.6417,-3.6417,-3.6417,-3.6417,-3.6417,-3.6417,-3.6417,-3.6417,-3.6417,-3.6417,-3.6417,-3.637,-3.5511,-3.44,-3.2635,-2.9926,-2.8147,-2.7088,-2.6595,-2.6192,-5.7881,-5.7881,-5.7881,-5.7611,-5.7171,-5.7154,-5.6884,-5.6393,-5.6173,-5.5767,-5.5294,-5.482,-5.4296,-5.3856,-5.3619,-5.3518,-5.3518,-5.3518,-5.3518,-5.3518,-5.3518,-5.3518,-5.3518,-5.3518,-5.3518,-5.3518,-5.3518,-5.3518,-5.3518,-5.3518,-5.3518,-5.3501,-5.3518,-5.3112,-5.2317,-5.1557,-5.0828,-5.0101,-4.9373,-4.9018,-4.9018,-4.9018,-4.9018,-4.9086,-4.9492,-5.0101,-5.0828,-5.1336,-5.186,-5.23,-5.2824,-5.3247,-5.3467,-5.3518,-5.3518,-5.3518,-5.3518,-5.3518,-5.3382,-5.2505,-5.1467,-5.0474,-4.9432,-4.8377,-4.7467,-4.7309,-4.7309,-4.7309,-4.7309,-4.7309,-4.7309,-4.7309,-4.7309,-4.7309,-4.7309,-4.7309,-4.7309,-4.7309,-4.7309,-4.7164,-4.6211,-4.4503,-4.2703,-4.1936,-4.1032,-3.9878,-3.8718,-3.8052,-3.7864,-3.7098,-3.6417,-3.6417,-3.6417,-3.6417,-3.6417,-3.6417,-3.6417,-3.6417,-3.6417,-3.6417,-3.6417,-3.6417,-3.6417,-3.6417,-3.6417,-3.6417,-3.5966,-3.5174,-3.3919,-3.2454,-3.0455,-2.8497,-2.7401,-2.633,-2.6006,-5.7881,-5.7881,-5.7881,-5.7865,-5.778,-5.778,-5.7831,-5.7611,-5.707,-5.6714,-5.6376,-5.531,-5.4718,-5.4397,-5.389,-5.3568,-5.3518,-5.3518,-5.3518,-5.3518,-5.3518,-5.3518,-5.3518,-5.3518,-5.3518,-5.3518,-5.3518,-5.3518,-5.3518,-5.3518,-5.3518,-5.3518,-5.3518,-5.3162,-5.2367,-5.1708,-5.0913,-5.0202,-4.9492,-4.9069,-4.9018,-4.9018,-4.9018,-4.9018,-4.9069,-4.9407,-5.0067,-5.0168,-5.0862,-5.1995,-5.2249,-5.2672,-5.3281,-5.3467,-5.3518,-5.3518,-5.3518,-5.3518,-5.3399,-5.2592,-5.1651,-5.0627,-4.9496,-4.8569,-4.7737,-4.7381,-4.7309,-4.7309,-4.7309,-4.7309,-4.7309,-4.7309,-4.7309,-4.7309,-4.7309,-4.7309,-4.7309,-4.7309,-4.7309,-4.7164,-4.6299,-4.4978,-4.3693,-4.2558,-4.1419,-4.0172,-3.8831,-3.8002,-3.7902,-3.7061,-3.6505,-3.6417,-3.6417,-3.6417,-3.6417,-3.6417,-3.6417,-3.6417,-3.6417,-3.6417,-3.6417,-3.6417,-3.6417,-3.6417,-3.6417,-3.6417,-3.626,-3.5413,-3.4414,-3.2848,-3.077,-2.8898,-2.7695,-2.6706,-2.6005,-5.7881,-5.7881,-5.7881,-5.7881,-5.7881,-5.7881,-5.7881,-5.7865,-5.7628,-5.7289,-5.6765,-5.6308,-5.5581,-5.4718,-5.4329,-5.3991,-5.3518,-5.3518,-5.3518,-5.3518,-5.3518,-5.3518,-5.3518,-5.3518,-5.3518,-5.3518,-5.3518,-5.3518,-5.3518,-5.3518,-5.3518,-5.3518,-5.3518,-5.3382,-5.3078,-5.2367,-5.1606,-5.0879,-5.0135,-4.9526,-4.9069,-4.9018,-4.9018,-4.9018,-4.9018,-4.912,-4.934,-4.983,-5.0304,-5.0828,-5.1285,-5.1894,-5.2604,-5.3213,-5.3501,-5.3518,-5.3518,-5.3518,-5.3467,-5.3179,-5.2505,-5.1504,-5.0458,-4.9456,-4.8403,-4.7679,-4.7352,-4.7309,-4.7309,-4.7309,-4.7309,-4.7309,-4.7309,-4.7309,-4.7309,-4.7309,-4.7309,-4.7309,-4.7309,-4.7266,-4.6931,-4.6151,-4.4964,-4.3693,-4.2398,-4.0939,-3.9317,-3.8114,-3.7826,-3.7084,-3.6455,-3.6417,-3.6417,-3.6417,-3.6417,-3.6417,-3.6417,-3.6417,-3.6417,-3.6417,-3.6417,-3.6417,-3.6417,-3.6417,-3.6417,-3.6307,-3.615,-3.5643,-3.4647,-3.3279,-3.1337,-2.9621,-2.8105,-2.7106,-2.6372,-5.7881,-5.7881,-5.7881,-5.7881,-5.7881,-5.7881,-5.7881,-5.7881,-5.7881,-5.7628,-5.7222,-5.6917,-5.6156,-5.5141,-5.4735,-5.4177,-5.3551,-5.3518,-5.3518,-5.3518,-5.3518,-5.3518,-5.3518,-5.3518,-5.3518,-5.3518,-5.3518,-5.3518,-5.3518,-5.3518,-5.3518,-5.3518,-5.3518,-5.3501,-5.3416,-5.2706,-5.1944,-5.1234,-5.0456,-4.9729,-4.9171,-4.9018,-4.9018,-4.9018,-4.9018,-4.9018,-4.9035,-4.9458,-4.9813,-5.0152,-5.0811,-5.1555,-5.2266,-5.279,-5.3179,-5.3467,-5.3518,-5.3518,-5.3518,-5.3467,-5.3025,-5.1974,-5.0968,-4.9947,-4.8882,-4.7876,-4.7352,-4.7309,-4.7309,-4.7309,-4.7309,-4.7309,-4.7309,-4.7309,-4.7309,-4.7309,-4.7309,-4.7309,-4.7309,-4.7309,-4.7266,-4.6638,-4.5598,-4.4826,-4.3332,-4.1599,-3.9816,-3.8231,-3.7857,-3.6983,-3.6619,-3.6417,-3.6417,-3.6417,-3.6417,-3.6417,-3.6417,-3.6417,-3.6417,-3.6417,-3.6417,-3.6417,-3.6417,-3.6417,-3.6417,-3.6132,-3.5997,-3.5725,-3.4944,-3.3353,-3.1866,-3.05,-2.9036,-2.7589,-2.6696,-5.7881,-5.7881,-5.7881,-5.7881,-5.7881,-5.7881,-5.7881,-5.7881,-5.7881,-5.7865,-5.7679,-5.7222,-5.6444,-5.5666,-5.5023,-5.4329,-5.3619,-5.3518,-5.3518,-5.3518,-5.3518,-5.3518,-5.3518,-5.3518,-5.3518,-5.3518,-5.3518,-5.3518,-5.3518,-5.3518,-5.3518,-5.3518,-5.3518,-5.3518,-5.3382,-5.2739,-5.2063,-5.1202,-5.0541,-4.9864,-4.9086,-4.9018,-4.9018,-4.9018,-4.9018,-4.9018,-4.9018,-4.9103,-4.9373,-5.0016,-5.0659,-5.1319,-5.1978,-5.2198,-5.257,-5.3247,-5.3416,-5.345,-5.3467,-5.3518,-5.3144,-5.2205,-5.1043,-5.0009,-4.911,-4.803,-4.7309,-4.7309,-4.7309,-4.7309,-4.7309,-4.7309,-4.7309,-4.7309,-4.7309,-4.7309,-4.7309,-4.7309,-4.7309,-4.7309,-4.7251,-4.6873,-4.5779,-4.5494,-4.3882,-4.1835,-4.0341,-3.9051,-3.7686,-3.6883,-3.6518,-3.6417,-3.6417,-3.6417,-3.6417,-3.6417,-3.6417,-3.6417,-3.6417,-3.6417,-3.6417,-3.6417,-3.6417,-3.6417,-3.638,-3.6069,-3.5755,-3.5483,-3.5019,-3.3818,-3.2518,-3.1315,-2.986,-2.8196,-2.6962,-5.7881,-5.7881,-5.7881,-5.7881,-5.7881,-5.7881,-5.7881,-5.7881,-5.7881,-5.7881,-5.7814,-5.7679,-5.6867,-5.5732,-5.5497,-5.4735,-5.3754,-5.3518,-5.3518,-5.3518,-5.3518,-5.3518,-5.3518,-5.3518,-5.3518,-5.3518,-5.3518,-5.3518,-5.3518,-5.3518,-5.3518,-5.3518,-5.3518,-5.3518,-5.3433,-5.3264,-5.2469,-5.1354,-5.1065,-5.0253,-4.9187,-4.9018,-4.9018,-4.9018,-4.9018,-4.9018,-4.9018,-4.9018,-4.9069,-4.9306,-4.9999,-5.0439,-5.076,-5.1234,-5.186,-5.2536,-5.2689,-5.2926,-5.3382,-5.3518,-5.3348,-5.299,-5.1447,-5.0281,-4.997,-4.8309,-4.7467,-4.7309,-4.7309,-4.7309,-4.7309,-4.7309,-4.7309,-4.7309,-4.7309,-4.7309,-4.7309,-4.7309,-4.7309,-4.7309,-4.7309,-4.7077,-4.6682,-4.5884,-4.4616,-4.2494,-4.0844,-3.9207,-3.7664,-3.6795,-3.6417,-3.6417,-3.6417,-3.6417,-3.6417,-3.6417,-3.6417,-3.6417,-3.6417,-3.6417,-3.6417,-3.6417,-3.6417,-3.6417,-3.6417,-3.6182,-3.5655,-3.5207,-3.453,-3.396,-3.273,-3.1347,-2.9908,-2.8412,-2.7321,-5.7881,-5.7881,-5.7881,-5.7881,-5.7881,-5.7881,-5.7881,-5.7881,-5.7881,-5.7881,-5.7881,-5.7881,-5.7087,-5.5766,-5.57,-5.4888,-5.3636,-5.3518,-5.3518,-5.3518,-5.3518,-5.3518,-5.3518,-5.3518,-5.3518,-5.3518,-5.3518,-5.3518,-5.3518,-5.3518,-5.3518,-5.3518,-5.3518,-5.3518,-5.3518,-5.3467,-5.2739,-5.1455,-5.1151,-5.0507,-4.9137,-4.9018,-4.9018,-4.9018,-4.9018,-4.9018,-4.9018,-4.9018,-4.9018,-4.9103,-4.9424,-4.9763,-5.0084,-5.049,-5.1234,-5.2164,-5.2317,-5.2672,-5.3315,-5.3518,-5.3518,-5.323,-5.1902,-5.0946,-5.0258,-4.8856,-4.7876,-4.7381,-4.7309,-4.7309,-4.7309,-4.7309,-4.7309,-4.7309,-4.7309,-4.7309,-4.7309,-4.7309,-4.7309,-4.7309,-4.7309,-4.7309,-4.7309,-4.658,-4.4973,-4.2964,-4.1442,-3.9434,-3.7448,-3.6868,-3.6417,-3.6417,-3.6417,-3.6417,-3.6417,-3.6417,-3.6417,-3.6417,-3.6417,-3.6417,-3.6417,-3.6417,-3.6417,-3.6417,-3.6417,-3.6179,-3.5491,-3.4856,-3.4374,-3.3576,-3.2465,-3.1581,-3.0339,-2.9306,-2.8143,-5.7881,-5.7881,-5.7881,-5.7881,-5.7881,-5.7881,-5.7881,-5.7881,-5.7881,-5.7881,-5.7848,-5.7797,-5.6917,-5.5733,-5.5513,-5.482,-5.3518,-5.3518,-5.3518,-5.3518,-5.3518,-5.3518,-5.3518,-5.3518,-5.3518,-5.3518,-5.3518,-5.3518,-5.3518,-5.3518,-5.3518,-5.3518,-5.3518,-5.3518,-5.3518,-5.3501,-5.2655,-5.1505,-5.1234,-5.0473,-4.9289,-4.9018,-4.9018,-4.9018,-4.9018,-4.9018,-4.9018,-4.9018,-4.9018,-4.9018,-4.9018,-4.9357,-4.9881,-4.9965,-5.0608,-5.1606,-5.1894,-5.2266,-5.3145,-5.3264,-5.3416,-5.3247,-5.247,-5.1578,-5.0627,-4.9456,-4.8377,-4.7679,-4.7381,-4.7309,-4.7309,-4.7309,-4.7309,-4.7309,-4.7309,-4.7309,-4.7309,-4.7309,-4.7309,-4.7309,-4.7309,-4.7309,-4.7309,-4.7016,-4.6064,-4.3522,-4.2011,-4.0172,-3.8148,-3.695,-3.6597,-3.6417,-3.6417,-3.6417,-3.6417,-3.6417,-3.6417,-3.6417,-3.6417,-3.6417,-3.6417,-3.6417,-3.6417,-3.6417,-3.6417,-3.5881,-3.5064,-3.4525,-3.4161,-3.3615,-3.2767,-3.212,-3.1388,-3.0498,-2.9443,-5.7881,-5.7881,-5.7881,-5.7881,-5.7881,-5.7881,-5.7881,-5.7881,-5.7881,-5.7881,-5.7763,-5.7306,-5.6545,-5.5683,-5.5141,-5.4329,-5.3568,-5.3518,-5.3518,-5.3518,-5.3518,-5.3518,-5.3518,-5.3518,-5.3518,-5.3518,-5.3518,-5.3518,-5.3518,-5.3518,-5.3518,-5.3518,-5.3518,-5.3518,-5.3518,-5.3467,-5.2756,-5.1455,-5.1234,-5.0473,-4.9306,-4.9018,-4.9018,-4.9018,-4.9018,-4.9018,-4.9018,-4.9018,-4.9018,-4.9018,-4.9018,-4.912,-4.9272,-4.9306,-4.9779,-5.0456,-5.071,-5.12,-5.2232,-5.2621,-5.2858,-5.323,-5.2594,-5.1796,-5.1541,-4.9876,-4.8866,-4.8335,-4.7807,-4.7352,-4.7309,-4.7309,-4.7309,-4.7309,-4.7309,-4.7309,-4.7309,-4.7309,-4.7309,-4.7309,-4.7309,-4.7309,-4.7309,-4.7309,-4.6108,-4.4175,-4.2536,-4.0896,-3.9104,-3.7339,-3.6763,-3.6546,-3.6417,-3.6417,-3.6417,-3.6417,-3.6417,-3.6417,-3.6417,-3.6417,-3.6417,-3.6417,-3.6417,-3.6417,-3.6417,-3.5692,-3.4831,-3.4562,-3.4274,-3.3646,-3.3081,-3.2469,-3.1892,-3.1276,-3.0668,-5.7881,-5.7881,-5.7881,-5.7881,-5.7881,-5.7881,-5.7881,-5.7881,-5.7881,-5.7881,-5.7729,-5.7137,-5.641,-5.5647,-5.4921,-5.4194,-5.3636,-5.3518,-5.3518,-5.3518,-5.3518,-5.3518,-5.3518,-5.3518,-5.3518,-5.3518,-5.3518,-5.3518,-5.3518,-5.3518,-5.3518,-5.3518,-5.3518,-5.3518,-5.3518,-5.3484,-5.2672,-5.1489,-5.12,-5.0507,-4.9255,-4.9018,-4.9018,-4.9018,-4.9018,-4.9018,-4.9018,-4.9018,-4.9018,-4.9018,-4.9018,-4.9018,-4.9018,-4.9018,-4.9373,-4.9932,-5.0118,-5.0591,-5.1522,-5.2131,-5.2503,-5.2909,-5.267,-5.2402,-5.1813,-5.0419,-4.9376,-4.8759,-4.7961,-4.7309,-4.7309,-4.7309,-4.7309,-4.7309,-4.7309,-4.7309,-4.7309,-4.7309,-4.7309,-4.7309,-4.7309,-4.7309,-4.7309,-4.7309,-4.6416,-4.4659,-4.3585,-4.1912,-3.9559,-3.7917,-3.7079,-3.6709,-3.6499,-3.6417,-3.6417,-3.6417,-3.6417,-3.6417,-3.6417,-3.6417,-3.6417,-3.6417,-3.6417,-3.638,-3.6304,-3.5617,-3.4868,-3.465,-3.4198,-3.3508,-3.2982,-3.2655,-3.2321,-3.1872,-3.1339,-5.7881,-5.7881,-5.7881,-5.7881,-5.7881,-5.7881,-5.7881,-5.7881,-5.7881,-5.7797,-5.756,-5.6951,-5.6122,-5.5463,-5.4718,-5.4059,-5.367,-5.3518,-5.3518,-5.3518,-5.3518,-5.3518,-5.3518,-5.3518,-5.3518,-5.3518,-5.3518,-5.3518,-5.3518,-5.3518,-5.3518,-5.3518,-5.3518,-5.3518,-5.3518,-5.3281,-5.2587,-5.1386,-5.098,-5.0355,-4.9238,-4.9018,-4.9018,-4.9018,-4.9018,-4.9018,-4.9018,-4.9018,-4.9018,-4.9018,-4.9018,-4.9018,-4.9018,-4.9052,-4.9221,-4.9881,-4.983,-5.0236,-5.0896,-5.1522,-5.1928,-5.2215,-5.2825,-5.2925,-5.2139,-5.108,-5.0009,-4.9029,-4.8183,-4.7309,-4.7309,-4.7309,-4.7309,-4.7309,-4.7309,-4.7309,-4.7309,-4.7309,-4.7309,-4.7309,-4.7309,-4.7309,-4.7309,-4.7251,-4.6254,-4.5288,-4.424,-4.2792,-4.0441,-3.8536,-3.7616,-3.6756,-3.6499,-3.6417,-3.6417,-3.6417,-3.6417,-3.6417,-3.6417,-3.6417,-3.6417,-3.6417,-3.6392,-3.6219,-3.5968,-3.5378,-3.4793,-3.4412,-3.3909,-3.3338,-3.3,-3.2766,-3.2584,-3.2453,-3.1785,-5.7881,-5.7881,-5.7881,-5.7881,-5.7881,-5.7881,-5.7881,-5.7881,-5.7848,-5.7526,-5.6934,-5.6224,-5.548,-5.4786,-5.4025,-5.3602,-5.3534,-5.3518,-5.3518,-5.3518,-5.3518,-5.3518,-5.3518,-5.3518,-5.3518,-5.3518,-5.3518,-5.3518,-5.3518,-5.3518,-5.3518,-5.3518,-5.3518,-5.3518,-5.3315,-5.2858,-5.2198,-5.1268,-5.0693,-4.9898,-4.9238,-4.9018,-4.9018,-4.9018,-4.9018,-4.9018,-4.9018,-4.9018,-4.9018,-4.9018,-4.9018,-4.9018,-4.9018,-4.9018,-4.9103,-4.9221,-4.9306,-4.9644,-5.0219,-5.0439,-5.1166,-5.1944,-5.2486,-5.2892,-5.2566,-5.1557,-5.0435,-4.9551,-4.835,-4.7309,-4.7309,-4.7309,-4.7309,-4.7309,-4.7309,-4.7309,-4.7309,-4.7309,-4.7309,-4.7309,-4.7309,-4.7309,-4.7309,-4.7309,-4.6855,-4.5975,-4.5039,-4.3485,-4.1363,-3.9444,-3.7992,-3.7142,-3.6465,-3.6417,-3.6417,-3.6417,-3.6417,-3.6417,-3.6417,-3.6417,-3.6417,-3.6417,-3.6355,-3.6107,-3.578,-3.5245,-3.4718,-3.4236,-3.3721,-3.3237,-3.3031,-3.2918,-3.2541,-3.2139,-3.1537,-5.7881,-5.7881,-5.7881,-5.7881,-5.7881,-5.7881,-5.7881,-5.7831,-5.7492,-5.7137,-5.6545,-5.5666,-5.4955,-5.4465,-5.3839,-5.3518,-5.3518,-5.3518,-5.3518,-5.3518,-5.3518,-5.3518,-5.3518,-5.3518,-5.3518,-5.3518,-5.3518,-5.3518,-5.3518,-5.3518,-5.3518,-5.3518,-5.3518,-5.3518,-5.3331,-5.2723,-5.1944,-5.1217,-5.0473,-4.9729,-4.9086,-4.9018,-4.9018,-4.9018,-4.9018,-4.9018,-4.9018,-4.9018,-4.9018,-4.9018,-4.9018,-4.9018,-4.9018,-4.9018,-4.9018,-4.9018,-4.9018,-4.912,-4.956,-4.983,-5.049,-5.1065,-5.1775,-5.2418,-5.2539,-5.1801,-5.0671,-4.9512,-4.8434,-4.7309,-4.7309,-4.7309,-4.7309,-4.7309,-4.7309,-4.7309,-4.7309,-4.7309,-4.7309,-4.7309,-4.7309,-4.7309,-4.7309,-4.7309,-4.7309,-4.669,-4.5809,-4.4094,-4.222,-4.0783,-3.9186,-3.7328,-3.6546,-3.6417,-3.6417,-3.6417,-3.6417,-3.6417,-3.6417,-3.6417,-3.6417,-3.6417,-3.6144,-3.5868,-3.5458,-3.5044,-3.4613,-3.4073,-3.3596,-3.3212,-3.3124,-3.2867,-3.2328,-3.1788,-3.1235,-5.7881,-5.7881,-5.7881,-5.7881,-5.7865,-5.7712,-5.7645,-5.7526,-5.6884,-5.6444,-5.619,-5.5175,-5.4532,-5.4245,-5.3839,-5.3518,-5.3518,-5.3518,-5.3518,-5.3518,-5.3518,-5.3518,-5.3518,-5.3518,-5.3518,-5.3518,-5.3518,-5.3518,-5.3518,-5.3518,-5.3518,-5.3518,-5.3518,-5.3518,-5.3348,-5.2486,-5.1809,-5.115,-5.0287,-4.9543,-4.9154,-4.9018,-4.9018,-4.9018,-4.9018,-4.9018,-4.9018,-4.9018,-4.9018,-4.9018,-4.9018,-4.9018,-4.9018,-4.9018,-4.9018,-4.9018,-4.9018,-4.9018,-4.9171,-4.9458,-4.9898,-5.0355,-5.1217,-5.1826,-5.2135,-5.1688,-5.0725,-4.9069,-4.7919,-4.7309,-4.7309,-4.7309,-4.7309,-4.7309,-4.7309,-4.7309,-4.7309,-4.7309,-4.7309,-4.7309,-4.7309,-4.7309,-4.7309,-4.7309,-4.7309,-4.7115,-4.6232,-4.4806,-4.3122,-4.248,-4.0759,-3.8064,-3.6722,-3.6452,-3.6417,-3.6417,-3.6417,-3.6417,-3.6417,-3.6417,-3.6417,-3.6417,-3.6069,-3.5755,-3.5157,-3.4731,-3.4336,-3.3909,-3.342,-3.3162,-3.3136,-3.2772,-3.2051,-3.1599,-3.1148,-5.7881,-5.7881,-5.7865,-5.7881,-5.7763,-5.7205,-5.6934,-5.6833,-5.6156,-5.5446,-5.504,-5.4668,-5.4194,-5.3771,-5.3619,-5.3518,-5.3518,-5.3518,-5.3518,-5.3518,-5.3518,-5.3518,-5.3518,-5.3518,-5.3518,-5.3518,-5.3518,-5.3518,-5.3518,-5.3518,-5.3518,-5.3518,-5.3518,-5.3467,-5.3213,-5.2131,-5.1352,-5.098,-4.9864,-4.9137,-4.9035,-4.9018,-4.9018,-4.9018,-4.9018,-4.9018,-4.9018,-4.9018,-4.9018,-4.9018,-4.9018,-4.9018,-4.9018,-4.9018,-4.9018,-4.9018,-4.9018,-4.9018,-4.9035,-4.9187,-4.9458,-4.9864,-5.0388,-5.1065,-5.1648,-5.129,-5.0285,-4.8988,-4.7961,-4.7381,-4.7352,-4.7309,-4.7309,-4.7309,-4.7309,-4.7309,-4.7309,-4.7309,-4.7309,-4.7309,-4.7309,-4.7309,-4.7309,-4.7309,-4.7279,-4.707,-4.6554,-4.5184,-4.3618,-4.2553,-4.2109,-3.9448,-3.7023,-3.6581,-3.6675,-3.6628,-3.6452,-3.6465,-3.6417,-3.6417,-3.6417,-3.6367,-3.6056,-3.5667,-3.5102,-3.455,-3.4123,-3.3696,-3.3287,-3.3124,-3.3124,-3.2508,-3.165,-3.1298,-3.1125,-5.7137,-5.7848,-5.7442,-5.7273,-5.7171,-5.6494,-5.619,-5.6021,-5.5412,-5.4905,-5.4549,-5.4126,-5.3788,-5.3551,-5.3518,-5.3518,-5.3518,-5.3518,-5.3518,-5.3518,-5.3518,-5.3518,-5.3518,-5.3518,-5.3518,-5.3518,-5.3518,-5.3518,-5.3518,-5.3518,-5.3518,-5.3518,-5.3467,-5.3196,-5.2892,-5.1775,-5.1065,-5.0422,-4.961,-4.9052,-4.9018,-4.9018,-4.9018,-4.9018,-4.9018,-4.9018,-4.9018,-4.9018,-4.9018,-4.9018,-4.9018,-4.9018,-4.9018,-4.9018,-4.9018,-4.9018,-4.9018,-4.9018,-4.9018,-4.9018,-4.9221,-4.9492,-4.9932,-5.0794,-5.1681,-5.1291,-5.0408,-4.9797,-4.8759,-4.7988,-4.7452,-4.7309,-4.7309,-4.7309,-4.7309,-4.7309,-4.7309,-4.7309,-4.7309,-4.7309,-4.7309,-4.7309,-4.7309,-4.7309,-4.7309,-4.7219,-4.6776,-4.5752,-4.3385,-4.1007,-4.0867,-4.0731,-3.8456,-3.6662,-3.6896,-3.7023,-3.6628,-3.6546,-3.6417,-3.6417,-3.6417,-3.6304,-3.6206,-3.5722,-3.5135,-3.4537,-3.4042,-3.3545,-3.3174,-3.3124,-3.3124,-3.2458,-3.1763,-3.1468,-3.1168,-5.6359,-5.7273,-5.6765,-5.6528,-5.6461,-5.575,-5.5446,-5.5344,-5.4651,-5.4313,-5.4194,-5.3771,-5.3534,-5.3518,-5.3518,-5.3518,-5.3518,-5.3518,-5.3518,-5.3518,-5.3518,-5.3518,-5.3518,-5.3518,-5.3518,-5.3518,-5.3518,-5.3518,-5.3518,-5.3518,-5.3518,-5.3518,-5.3518,-5.3061,-5.2334,-5.1572,-5.0845,-4.9796,-4.9306,-4.9018,-4.9018,-4.9018,-4.9018,-4.9018,-4.9018,-4.9018,-4.9018,-4.9018,-4.9018,-4.9018,-4.9018,-4.9018,-4.9018,-4.9018,-4.9018,-4.9018,-4.9018,-4.9018,-4.9018,-4.9018,-4.9018,-4.9238,-4.9661,-5.0524,-5.1239,-5.1024,-5.0719,-5.0408,-4.9313,-4.8455,-4.7876,-4.7538,-4.7309,-4.7309,-4.7309,-4.7309,-4.7309,-4.7309,-4.7309,-4.7309,-4.7309,-4.7309,-4.7309,-4.7309,-4.7309,-4.7309,-4.6837,-4.6162,-4.3835,-4.0894,-4.0524,-4.0916,-3.868,-3.715,-3.7861,-3.7769,-3.7256,-3.6849,-3.6769,-3.7036,-3.7381,-3.7119,-3.6847,-3.619,-3.5531,-3.5035,-3.4778,-3.3916,-3.3124,-3.3124,-3.3036,-3.2541,-3.2068,-3.1779,-3.1387,-5.5732,-5.5817,-5.5801,-5.5749,-5.5733,-5.4972,-5.4668,-5.4634,-5.3923,-5.367,-5.3687,-5.3534,-5.3518,-5.3518,-5.3518,-5.3518,-5.3518,-5.3518,-5.3518,-5.3518,-5.3518,-5.3518,-5.3518,-5.3518,-5.3518,-5.3518,-5.3518,-5.3518,-5.3518,-5.3518,-5.3518,-5.3501,-5.3298,-5.2909,-5.2164,-5.1234,-5.0321,-4.9458,-4.9052,-4.9018,-4.9018,-4.9018,-4.9018,-4.9018,-4.9018,-4.9018,-4.9018,-4.9018,-4.9018,-4.9018,-4.9018,-4.9018,-4.9018,-4.9018,-4.9018,-4.9018,-4.9018,-4.9018,-4.9018,-4.9018,-4.9018,-4.9204,-4.9576,-5.0084,-5.0576,-5.0809,-5.0752,-5.071,-4.9837,-4.9063,-4.8486,-4.7973,-4.7609,-4.7309,-4.7309,-4.7309,-4.7309,-4.7309,-4.7309,-4.7309,-4.7309,-4.7309,-4.7309,-4.7309,-4.7309,-4.7309,-4.6965,-4.6275,-4.4711,-4.2324,-4.1412,-4.0731,-3.8469,-3.7861,-3.9139,-3.8961,-3.8134,-3.7906,-3.7919,-3.8437,-3.905,-3.8541,-3.7832,-3.7372,-3.6845,-3.6187,-3.547,-3.476,-3.4043,-3.3381,-3.3021,-3.302,-3.275,-3.245,-3.1978,-5.4363,-5.4346,-5.4363,-5.4617,-5.4972,-5.4228,-5.3923,-5.3873,-5.3619,-5.3518,-5.3518,-5.3518,-5.3518,-5.3518,-5.3518,-5.3518,-5.3518,-5.3518,-5.3518,-5.3518,-5.3518,-5.3518,-5.3518,-5.3518,-5.3518,-5.3518,-5.3518,-5.3518,-5.3518,-5.345,-5.3095,-5.2942,-5.2756,-5.2266,-5.1555,-5.0591,-4.9644,-4.9289,-4.9018,-4.9018,-4.9018,-4.9018,-4.9018,-4.9018,-4.9018,-4.9018,-4.9018,-4.9018,-4.9018,-4.9018,-4.9018,-4.9018,-4.9018,-4.9018,-4.9018,-4.9018,-4.9018,-4.9018,-4.9018,-4.9018,-4.9018,-4.9035,-4.9289,-4.9593,-4.9982,-5.0624,-5.0857,-5.0763,-5.0704,-5.0099,-4.8825,-4.8444,-4.8099,-4.7581,-4.7309,-4.7309,-4.7309,-4.7309,-4.7309,-4.7309,-4.7309,-4.7309,-4.7309,-4.7309,-4.7309,-4.7279,-4.689,-4.6282,-4.4763,-4.346,-4.24,-4.145,-3.9434,-3.9112,-4.039,-3.9828,-3.8917,-3.9006,-3.9152,-3.9579,-4.0059,-3.9697,-3.9051,-3.8589,-3.8086,-3.7434,-3.6658,-3.5789,-3.5084,-3.4649,-3.4245,-3.4024,-3.3661,-3.3196,-3.2763,-5.3518,-5.3518,-5.3518,-5.3805,-5.4177,-5.3721,-5.3518,-5.3518,-5.3518,-5.3518,-5.3518,-5.3518,-5.3518,-5.3518,-5.3518,-5.3518,-5.3518,-5.3518,-5.3518,-5.3518,-5.3518,-5.3518,-5.3518,-5.3518,-5.3518,-5.3518,-5.3518,-5.3518,-5.3501,-5.3281,-5.2858,-5.2384,-5.1843,-5.1285,-5.076,-4.9729,-4.9018,-4.9018,-4.9018,-4.9018,-4.9018,-4.9018,-4.9018,-4.9018,-4.9018,-4.9018,-4.9018,-4.9018,-4.9018,-4.9018,-4.9018,-4.9018,-4.9018,-4.9018,-4.9018,-4.9018,-4.9018,-4.9018,-4.9018,-4.9018,-4.9018,-4.9018,-4.9035,-4.9323,-4.9779,-5.0456,-5.0691,-5.0992,-5.122,-5.0948,-4.9266,-4.8948,-4.8267,-4.7566,-4.7352,-4.7309,-4.7309,-4.7309,-4.7309,-4.7309,-4.7309,-4.7309,-4.7309,-4.7309,-4.7309,-4.7189,-4.677,-4.6204,-4.5173,-4.3941,-4.2906,-4.1986,-4.0873,-4.1127,-4.1726,-4.0575,-3.9711,-4.0661,-4.0703,-4.0532,-4.0703,-4.049,-4.0208,-3.9704,-3.9173,-3.8627,-3.7713,-3.6642,-3.6246,-3.6013,-3.5611,-3.5196,-3.4419,-3.3991,-3.3787,-5.3518,-5.3518,-5.3518,-5.3534,-5.3602,-5.3534,-5.3518,-5.3518,-5.3518,-5.3518,-5.3518,-5.3518,-5.3518,-5.3518,-5.3518,-5.3518,-5.3518,-5.3518,-5.3518,-5.3518,-5.3518,-5.3518,-5.3518,-5.3518,-5.3518,-5.3518,-5.3484,-5.3484,-5.3382,-5.2841,-5.2418,-5.1742,-5.0896,-5.0236,-5.005,-4.9407,-4.9035,-4.9018,-4.9018,-4.9018,-4.9018,-4.9018,-4.9018,-4.9018,-4.9018,-4.9018,-4.9018,-4.9018,-4.9018,-4.9018,-4.9018,-4.9018,-4.9018,-4.9018,-4.9018,-4.9018,-4.9018,-4.9018,-4.9018,-4.9018,-4.9018,-4.9018,-4.9018,-4.9103,-4.9221,-4.9763,-5.0543,-5.0977,-5.1226,-5.0923,-5.0131,-4.9456,-4.8569,-4.7651,-4.7381,-4.7309,-4.7309,-4.7309,-4.7309,-4.7309,-4.7309,-4.7309,-4.7309,-4.7309,-4.7309,-4.7115,-4.6666,-4.5998,-4.5227,-4.4525,-4.3587,-4.2679,-4.1864,-4.2044,-4.2126,-4.1014,-4.0632,-4.1713,-4.2181,-4.1864,-4.1782,-4.1767,-4.1381,-4.0797,-4.0236,-3.9675,-3.8589,-3.7419,-3.7335,-3.7238,-3.6799,-3.6272,-3.5451,-3.4953,-3.4868,-5.3518,-5.3518,-5.3518,-5.3518,-5.3518,-5.3518,-5.3518,-5.3518,-5.3518,-5.3518,-5.3518,-5.3518,-5.3518,-5.3518,-5.3518,-5.3518,-5.3518,-5.3518,-5.3518,-5.3518,-5.3518,-5.3518,-5.3518,-5.3518,-5.3518,-5.3501,-5.3467,-5.3112,-5.2672,-5.2249,-5.1555,-5.0811,-5.005,-4.9441,-4.934,-4.9069,-4.9018,-4.9018,-4.9018,-4.9018,-4.9018,-4.9018,-4.9018,-4.9018,-4.9018,-4.9018,-4.9018,-4.9018,-4.9018,-4.9018,-4.9018,-4.9018,-4.9018,-4.9018,-4.9018,-4.9018,-4.9018,-4.9018,-4.9018,-4.9018,-4.9018,-4.9018,-4.9018,-4.9018,-4.9086,-4.9695,-5.0405,-5.1067,-5.1413,-5.1119,-5.0472,-5.0172,-4.9311,-4.7764,-4.7309,-4.7309,-4.7309,-4.7309,-4.7309,-4.7309,-4.7309,-4.7309,-4.7309,-4.7309,-4.7309,-4.7309,-4.695,-4.6187,-4.5385,-4.5087,-4.443,-4.3537,-4.286,-4.286,-4.2603,-4.1838,-4.1589,-4.2441,-4.2875,-4.286,-4.286,-4.2765,-4.2547,-4.1953,-4.1362,-4.0687,-3.9598,-3.8667,-3.8573,-3.8368,-3.7927,-3.7607,-3.7048,-3.6581,-3.6389,-5.3518,-5.3518,-5.3518,-5.3518,-5.3518,-5.3518,-5.3518,-5.3518,-5.3518,-5.3518,-5.3518,-5.3518,-5.3518,-5.3518,-5.3518,-5.3518,-5.3518,-5.3518,-5.3518,-5.3518,-5.3518,-5.3518,-5.3518,-5.3518,-5.3518,-5.345,-5.3145,-5.2756,-5.2334,-5.1758,-5.0879,-4.9915,-4.9255,-4.9137,-4.9052,-4.9018,-4.9018,-4.9018,-4.9018,-4.9018,-4.9018,-4.9018,-4.9018,-4.9018,-4.9018,-4.9018,-4.9018,-4.9018,-4.9018,-4.9018,-4.9018,-4.9018,-4.9018,-4.9018,-4.9018,-4.9018,-4.9018,-4.9018,-4.9018,-4.9018,-4.9018,-4.9018,-4.9018,-4.9018,-4.9052,-4.9407,-5.0016,-5.071,-5.1505,-5.1273,-5.0672,-5.0446,-4.9584,-4.8042,-4.7381,-4.7381,-4.7309,-4.7309,-4.7309,-4.7309,-4.7309,-4.7309,-4.7309,-4.7309,-4.7309,-4.7309,-4.7264,-4.6396,-4.5589,-4.5289,-4.484,-4.3858,-4.325,-4.317,-4.317,-4.2996,-4.2915,-4.325,-4.3305,-4.3305,-4.325,-4.3076,-4.3076,-4.297,-4.1888,-4.103,-4.0465,-3.9928,-3.9297,-3.9104,-3.9017,-3.8733,-3.8497,-3.7928,-3.7315,-5.3518,-5.3518,-5.3518,-5.3518,-5.3518,-5.3518,-5.3518,-5.3518,-5.3518,-5.3518,-5.3518,-5.3518,-5.3518,-5.3518,-5.3518,-5.3518,-5.3518,-5.3518,-5.3518,-5.3518,-5.3518,-5.3518,-5.3518,-5.3518,-5.3382,-5.3145,-5.2807,-5.2334,-5.2046,-5.0896,-4.9813,-4.9272,-4.9086,-4.9018,-4.9018,-4.9018,-4.9018,-4.9018,-4.9018,-4.9018,-4.9018,-4.9018,-4.9018,-4.9018,-4.9018,-4.9018,-4.9018,-4.9018,-4.9018,-4.9018,-4.9018,-4.9018,-4.9018,-4.9018,-4.9018,-4.9018,-4.9018,-4.9018,-4.9018,-4.9018,-4.9018,-4.9018,-4.9018,-4.9018,-4.9035,-4.9171,-4.9627,-5.0185,-5.083,-5.081,-5.0629,-5.0171,-4.9726,-4.8615,-4.7679,-4.7495,-4.7352,-4.7309,-4.7309,-4.7309,-4.7309,-4.7309,-4.7309,-4.7309,-4.7309,-4.7309,-4.716,-4.6486,-4.5753,-4.5379,-4.4796,-4.3708,-4.329,-4.3305,-4.3305,-4.3305,-4.3305,-4.3305,-4.3305,-4.3305,-4.3305,-4.3275,-4.317,-4.2836,-4.1953,-4.119,-4.0516,-3.9978,-3.9457,-3.9388,-3.9388,-3.926,-3.8811,-3.8138,-3.7494,-5.3518,-5.3518,-5.3518,-5.3518,-5.3518,-5.3518,-5.3518,-5.3518,-5.3518,-5.3518,-5.3518,-5.3518,-5.3518,-5.3518,-5.3518,-5.3518,-5.3518,-5.3518,-5.3518,-5.3518,-5.3518,-5.3518,-5.3484,-5.3433,-5.3162,-5.2739,-5.23,-5.1674,-5.0777,-4.9712,-4.934,-4.9052,-4.9018,-4.9018,-4.9018,-4.9018,-4.9018,-4.9018,-4.9018,-4.9018,-4.9018,-4.9018,-4.9018,-4.9018,-4.9018,-4.9018,-4.9018,-4.9018,-4.9018,-4.9018,-4.9018,-4.9018,-4.9018,-4.9018,-4.9018,-4.9018,-4.9018,-4.9018,-4.9018,-4.9018,-4.9018,-4.9018,-4.9018,-4.9018,-4.9018,-4.9086,-4.934,-4.9847,-5.0289,-5.0392,-5.022,-4.98,-4.9307,-4.8552,-4.774,-4.7424,-4.7309,-4.7309,-4.7309,-4.7309,-4.7309,-4.7309,-4.7309,-4.7309,-4.7309,-4.7309,-4.704,-4.6426,-4.5858,-4.5469,-4.4721,-4.3633,-4.3305,-4.3305,-4.3305,-4.3305,-4.3305,-4.3305,-4.3305,-4.3305,-4.3305,-4.326,-4.317,-4.2746,-4.1953,-4.1175,-4.0427,-3.9933,-3.9418,-3.9388,-3.9373,-3.9305,-3.908,-3.8407,-3.7778,-5.3518,-5.3518,-5.3518,-5.3518,-5.3518,-5.3518,-5.3518,-5.3518,-5.3518,-5.3518,-5.3518,-5.3518,-5.3518,-5.3518,-5.3518,-5.3518,-5.3518,-5.3518,-5.3518,-5.3518,-5.3467,-5.3518,-5.3467,-5.3145,-5.2756,-5.2283,-5.164,-5.0896,-5.0065,-4.9424,-4.9018,-4.9018,-4.9018,-4.9018,-4.9018,-4.9018,-4.9018,-4.9018,-4.9018,-4.9018,-4.9018,-4.9018,-4.9018,-4.9018,-4.9018,-4.9018,-4.9018,-4.9018,-4.9018,-4.9018,-4.9018,-4.9018,-4.9018,-4.9018,-4.9018,-4.9018,-4.9018,-4.9018,-4.9018,-4.9018,-4.9018,-4.9018,-4.9018,-4.9018,-4.9018,-4.9052,-4.9255,-4.956,-4.9854,-5.002,-4.9729,-4.9397,-4.8841,-4.8239,-4.7787,-4.7322,-4.7309,-4.7309,-4.7309,-4.7309,-4.7309,-4.7309,-4.7309,-4.7309,-4.7309,-4.7309,-4.7055,-4.6516,-4.5918,-4.5409,-4.4586,-4.3544,-4.3349,-4.3305,-4.3305,-4.3305,-4.3305,-4.3305,-4.3305,-4.3305,-4.3305,-4.323,-4.3125,-4.2671,-4.2013,-4.1265,-4.0516,-3.9873,-3.9388,-3.9388,-3.9388,-3.9328,-3.9155,-3.8691,-3.8078,-5.3518,-5.3518,-5.3518,-5.3518,-5.3518,-5.3518,-5.3518,-5.3518,-5.3518,-5.3518,-5.3518,-5.3518,-5.3518,-5.3518,-5.3518,-5.3518,-5.3518,-5.3518,-5.3518,-5.345,-5.3247,-5.323,-5.3027,-5.2638,-5.2063,-5.1589,-5.1014,-5.0287,-4.9929,-4.9494,-4.9212,-4.9032,-4.9018,-4.9018,-4.9018,-4.9018,-4.9018,-4.9018,-4.9018,-4.9018,-4.9018,-4.9018,-4.9018,-4.9018,-4.9018,-4.9018,-4.9018,-4.9018,-4.9018,-4.9018,-4.9018,-4.9018,-4.9018,-4.9018,-4.9018,-4.9018,-4.9018,-4.9018,-4.9018,-4.9018,-4.9018,-4.9018,-4.9018,-4.9018,-4.9018,-4.9018,-4.9171,-4.9255,-4.9531,-4.9565,-4.9373,-4.9038,-4.857,-4.8137,-4.7722,-4.7402,-4.7309,-4.7309,-4.7309,-4.7309,-4.7309,-4.7309,-4.7309,-4.7309,-4.7309,-4.7309,-4.716,-4.6651,-4.5918,-4.5349,-4.4511,-4.3554,-4.3379,-4.3305,-4.3305,-4.3305,-4.3305,-4.3305,-4.3305,-4.3305,-4.3305,-4.32,-4.312,-4.2656,-4.2162,-4.1399,-4.0681,-4.0008,-3.9478,-3.9388,-3.9388,-3.9388,-3.92,-3.8886,-3.8452,-5.3518,-5.3518,-5.3518,-5.3518,-5.3501,-5.3518,-5.3484,-5.3518,-5.3518,-5.345,-5.3501,-5.3484,-5.3518,-5.3518,-5.3501,-5.3484,-5.3433,-5.3331,-5.3484,-5.3145,-5.2858,-5.2621,-5.2485,-5.1941,-5.1283,-5.0676,-5.0152,-4.9794,-4.9483,-4.9449,-4.9449,-4.9063,-4.9018,-4.9018,-4.9018,-4.9018,-4.9018,-4.9018,-4.9018,-4.9018,-4.9018,-4.9018,-4.9018,-4.9018,-4.9018,-4.9018,-4.9018,-4.9018,-4.9018,-4.9018,-4.9018,-4.9018,-4.9018,-4.9018,-4.9018,-4.9018,-4.9018,-4.9018,-4.9018,-4.9018,-4.9018,-4.9018,-4.9018,-4.9018,-4.9018,-4.9018,-4.9035,-4.9069,-4.9097,-4.91,-4.8962,-4.8612,-4.8298,-4.7947,-4.7627,-4.7422,-4.7279,-4.7309,-4.7309,-4.7309,-4.7309,-4.7309,-4.7309,-4.7309,-4.7309,-4.7309,-4.7309,-4.6875,-4.5888,-4.517,-4.4481,-4.3648,-4.3379,-4.3305,-4.3305,-4.3305,-4.3305,-4.3305,-4.3305,-4.3305,-4.3305,-4.3245,-4.314,-4.2821,-4.2327,-4.1609,-4.0861,-4.0083,-3.9679,-3.9478,-3.9388,-3.9388,-3.9388,-3.9185,-3.8796,-5.2959,-5.2942,-5.2621,-5.2503,-5.2486,-5.2486,-5.2486,-5.2486,-5.2486,-5.2486,-5.2622,-5.3145,-5.3501,-5.3484,-5.3501,-5.3196,-5.3077,-5.2959,-5.2621,-5.2317,-5.2278,-5.1911,-5.1586,-5.1429,-5.0866,-5.0258,-4.9743,-4.9371,-4.9111,-4.9195,-4.9226,-4.9063,-4.9032,-4.9063,-4.9063,-4.9032,-4.9032,-4.9018,-4.9094,-4.9094,-4.9094,-4.9032,-4.9001,-4.9018,-4.9018,-4.9018,-4.9018,-4.9018,-4.9018,-4.9018,-4.9018,-4.9018,-4.9018,-4.9018,-4.9018,-4.9018,-4.9018,-4.9018,-4.9018,-4.9018,-4.9018,-4.9018,-4.9018,-4.9018,-4.9018,-4.9018,-4.9018,-4.9052,-4.9052,-4.9072,-4.8332,-4.7926,-4.7595,-4.7262,-4.7082,-4.6884,-4.7085,-4.7309,-4.7309,-4.7309,-4.7309,-4.7309,-4.7309,-4.7309,-4.7294,-4.7189,-4.7204,-4.6606,-4.5708,-4.5005,-4.4302,-4.3723,-4.3424,-4.3305,-4.3305,-4.3305,-4.3305,-4.3305,-4.3305,-4.3305,-4.3305,-4.3305,-4.32,-4.2931,-4.2551,-4.1908,-4.1145,-4.0337,-3.9768,-3.9478,-3.9418,-3.9388,-3.9388,-3.9388,-3.914,-5.2164,-5.2063,-5.1505,-5.1219,-5.1234,-5.1219,-5.1285,-5.1285,-5.1268,-5.1285,-5.1471,-5.2621,-5.3145,-5.3213,-5.3179,-5.2755,-5.253,-5.2539,-5.2,-5.1899,-5.164,-5.1706,-5.158,-5.1218,-5.0695,-5.0167,-4.9661,-4.9294,-4.9049,-4.9389,-4.9622,-4.9243,-4.9168,-4.9182,-4.9212,-4.9182,-4.9256,-4.9509,-4.9551,-4.9436,-4.9273,-4.9077,-4.9032,-4.9018,-4.9018,-4.9018,-4.9018,-4.9018,-4.9018,-4.9018,-4.9018,-4.9018,-4.9018,-4.9018,-4.9018,-4.9018,-4.9018,-4.9018,-4.9018,-4.9018,-4.9018,-4.9018,-4.9018,-4.9018,-4.9018,-4.9018,-4.9018,-4.9018,-4.9018,-4.8772,-4.8035,-4.7427,-4.7109,-4.6827,-4.6692,-4.6501,-4.686,-4.7219,-4.7294,-4.7294,-4.7309,-4.7309,-4.7309,-4.7309,-4.7189,-4.71,-4.6666,-4.5978,-4.5334,-4.4796,-4.4182,-4.3693,-4.3379,-4.3305,-4.3305,-4.3305,-4.3305,-4.3305,-4.3305,-4.3305,-4.3305,-4.3305,-4.3275,-4.3185,-4.2746,-4.2087,-4.1429,-4.0681,-4.0157,-3.9604,-3.9433,-3.9388,-3.9388,-3.9388,-3.9388,-5.1388,-5.1403,-5.1268,-5.12,-5.1183,-5.1183,-5.1234,-5.1217,-5.1183,-5.1234,-5.1231,-5.1336,-5.1657,-5.164,-5.1624,-5.1743,-5.2377,-5.2291,-5.2717,-5.2849,-5.1784,-5.1822,-5.1724,-5.1176,-5.0673,-5.0252,-4.9872,-4.9573,-4.958,-5.0174,-5.0352,-4.9867,-4.9838,-5.0033,-5.0517,-5.0324,-5.0004,-5.023,-5.0352,-5.0314,-5.0079,-4.9739,-4.9094,-4.9018,-4.9018,-4.9018,-4.9018,-4.9018,-4.9018,-4.9018,-4.9018,-4.9018,-4.9018,-4.9018,-4.9018,-4.9018,-4.9018,-4.9018,-4.9018,-4.9018,-4.9018,-4.9018,-4.9018,-4.9018,-4.9018,-4.9018,-4.9018,-4.9018,-4.897,-4.8909,-4.8312,-4.7568,-4.715,-4.6861,-4.668,-4.6482,-4.6574,-4.6935,-4.7204,-4.7249,-4.7309,-4.7309,-4.7309,-4.7189,-4.695,-4.6756,-4.6352,-4.5663,-4.484,-4.4407,-4.4018,-4.3663,-4.3319,-4.3305,-4.3305,-4.3305,-4.3305,-4.3305,-4.3305,-4.3305,-4.3305,-4.3305,-4.326,-4.323,-4.2851,-4.2237,-4.1579,-4.1055,-4.0337,-3.9798,-3.9508,-3.9388,-3.9388,-3.9388,-3.9388]},{"header":{"parameterUnit":"m.s-1","parameterCategory":1,"la1":31.0,"la2":29.5877,"lo1":-88.7671,"lo2":-86.6584,"dy":0.0162,"dx":0.0185,"nx":115,"ny":88,"refTime":"2023-07-30T06:00:00:Z","depth":0,"parameterNumber":3,"parameterNumberName":"V-component_of_WINDS"},"data":[0.0,0.0,0.0,0.0,0.0,0.0,0.0,0.0,0.0,0.0,0.0,0.0,0.0,0.0,0.0,0.0,0.0,0.0,0.0,0.0,0.0,0.0,0.0,0.0,0.0,0.0,0.0,0.0,0.0,0.0,0.0,0.0,0.0,0.0,0.0,0.0,0.0,0.0,0.0,0.0,0.0,0.0,0.0,0.0,0.0,0.0,0.0,0.0,0.0,0.0,0.0,0.0,0.0,0.0,0.0,0.0,0.0,0.0,0.0,0.0,0.0,0.0,0.0,0.0,0.0,0.0,0.0,0.0,0.0,0.0,0.0,0.0,0.0,0.0,0.0,0.0,0.0,0.0,0.0,0.0,0.0,0.0,0.0,0.0,0.0,0.0,0.0,0.0,0.0,0.0,0.0,0.0,0.0,0.0,0.0,0.0,0.0,0.0,0.0,0.0,0.0,0.0,0.0,0.0,0.0,0.0,0.0,0.0,0.0,0.0,0.0,0.0,0.0,0.0,0.0,0.0,0.0,0.0,0.0,0.0,0.0,0.0,0.0,0.0,0.0,0.0,0.0,0.0,0.0,0.0,0.0,0.0,0.0,0.0,0.0,0.0,0.0,0.0,0.0,0.0,0.0,0.0,0.0,0.0,0.0,0.0,0.0,0.0,0.0,0.0,0.0,0.0,0.0,0.0,0.0,0.0,0.0,0.0,0.0,0.0,0.0,0.0,0.0,0.0,0.0,0.0,0.0,0.0,0.0,0.0,0.0,0.0,0.0,0.0,0.0,0.0,0.0,0.0,0.0,0.0,0.0,0.0,0.0,0.0,0.0,0.0,0.0,0.0,0.0,0.0,0.0,0.0,0.0,0.0,0.0,0.0,0.0,0.0,0.0,0.0,0.0,0.0,0.0,0.0,0.0,0.0,0.0,0.0,0.0,0.0,0.0,0.0,0.0,0.0,0.0,0.0,0.0,0.0,0.0,0.0,0.0,0.0,0.0,0.0,0.0,0.0,0.0,0.0,0.0,0.0,0.0,0.0,0.0,0.0,0.0,0.0,0.0,0.0,0.0,0.0,0.0,0.0,0.0,0.0,0.0,0.0,0.0,0.0,0.0,0.0,0.0,0.0,0.0,0.0,0.0,0.0,0.0,0.0,0.0,0.0,0.0,0.0,0.0,0.0,0.0,0.0,0.0,0.0,0.0,0.0,0.0,0.0,0.0,0.0,0.0,0.0,0.0,0.0,0.0,0.0,0.0,0.0,0.0,0.0,0.0,0.0,0.0,0.0,0.0,0.0,0.0,0.0,0.0,0.0,0.0,0.0,0.0,0.0,0.0,0.0,0.0,0.0,0.0,0.0,0.0,0.0,0.0,0.0,0.0,0.0,0.0,0.0,0.0,0.0,0.0,0.0,0.0,0.0,0.0,0.0,0.0,0.0,0.0,0.0,0.0,0.0,0.0,0.0,0.0,0.0,0.0,0.0,0.0,0.0,0.0,0.0,0.0,0.0,0.0,0.0,0.0,0.0,0.0,0.0,0.0,0.0,0.0,0.0,0.0,0.0,0.0,0.0,0.0,0.0,0.0,0.0,0.0,0.0,0.0,0.0,0.0,0.0,0.0,0.0,0.0,0.0,0.0,0.0,0.0,0.0,0.0,0.0,0.0,0.0,0.0,0.0,0.0,0.0,0.0,0.0,0.0,0.0,0.0,0.0,0.0,0.0,0.0,0.0,0.0,0.0,0.0,0.0,0.0,0.0,0.0,0.0,0.0,0.0,0.0,0.0,0.0,0.0,0.0,0.0,0.0,0.0,0.0,0.0,0.0,0.0,0.0,0.0,0.0,0.0,0.0,0.0,0.0,0.0,0.0,0.0,0.0,0.0,0.0,0.0,0.0,0.0,0.0,0.0,0.0,0.0,0.0,0.0,0.0,0.0,0.0,0.0,0.0,0.0,0.0,0.0,0.0,0.0,0.0,0.0,0.0,0.0,0.0,0.0,0.0,0.0,0.0,0.0,0.0,0.0,0.0,0.0,0.0,0.0,0.0,0.0,0.0,0.0,0.0,0.0,0.0,0.0,0.0,0.0,0.0,0.0,0.0,0.0,0.0,0.0,0.0,0.0,0.0,0.0,0.0,0.0,0.0,0.0,0.0,0.0,0.0,0.0,0.0,0.0,0.0,0.0,0.0,0.0,0.0,0.0,0.0,0.0,0.0,0.0,0.0,0.0,0.0,0.0,0.0,0.0,0.0,0.0,0.0,0.0,0.0,0.0,0.0,0.0,0.0,0.0,0.0,0.0,0.0,0.0,0.0,0.0,0.0,0.0,0.0,0.0,0.0,0.0,0.0,0.0,0.0,0.0,0.0,0.0,0.0,0.0,0.0,0.0,0.0,0.0,0.0,0.0,0.0,0.0,0.0,0.0,0.0,0.0,0.0,0.0,0.0,0.0,0.0,0.0,0.0,0.0,0.0,0.0,0.0,0.0,0.0,0.0,0.0,0.0,0.0,0.0,0.0,0.0,0.0,0.0,0.0,0.0,0.0,0.0,0.0,0.0,0.0,0.0,0.0,0.0,0.0,0.0,0.0,0.0,0.0,0.0,0.0,0.0,0.0,0.0,0.0,0.0,0.0,0.0,0.0,0.0,0.0,0.0,0.0,0.0,0.0,0.0,0.0,0.0,0.0,0.0,0.0,0.0,0.0,0.0,0.0,0.0,0.0,0.0,0.0,0.0,0.0,0.0,0.0,0.0,0.0,0.0,0.0,0.0,0.0,0.0,0.0,0.0,0.0,0.0,0.0,0.0,0.0,0.0,0.0,0.0,0.0,0.0,0.0,0.0,0.0,0.0,0.0,0.0,0.0,0.0,0.0,0.0,0.0,0.0,0.0,0.0,0.0,0.0,0.0,0.0,0.0,0.0,0.0,0.0,0.0,0.0,0.0,0.0,0.0,0.0,0.0,0.0,0.0,0.0,0.0,0.0,0.0,0.0,0.0,0.0,0.0,0.0,0.0,0.0,0.0,0.0,0.0,0.0,0.0,0.0,0.0,0.0,0.0,0.0,0.0,0.0,0.0,0.0,0.0,0.0,0.0,0.0,0.0,0.0,0.0,0.0,0.0,0.0,0.0,0.0,0.0,0.0,0.0,0.0,0.0,0.0,0.0,0.0,0.0,0.0,0.0,0.0,0.0,0.0,0.0,0.0,0.0,0.0,0.0,0.0,0.0,0.0,0.0,0.0,0.0,0.0,0.0,0.0,0.0,0.0,0.0,0.0,0.0,0.0,0.0,0.0,0.0,0.0,0.0,0.0,0.0,0.0,0.0,0.0,0.0,0.0,0.0,0.0,0.0,0.0,0.0,0.0,0.0,0.0,0.0,0.0,0.0,0.0,0.0,0.0,0.0,0.0,0.0,0.0,0.0,0.0,0.0,0.0,0.0,0.0,0.0,0.0,0.0,0.0,0.0,0.0,0.0,0.0,0.0,0.0,0.0,0.0,0.0,0.0,0.0,0.0,0.0,0.0,0.0,0.0,0.0,0.0,0.0,0.0,0.0,0.0,0.0,0.0,0.0,0.0,0.0,0.0,0.0,0.0,0.0,0.0,0.0,0.0,0.0,0.0,0.0,0.0,0.0,0.0,0.0,0.0,0.0,0.0,0.0,0.0,0.0,0.0,0.0,0.0,0.0,0.0,0.0,0.0,0.0,0.0,0.0,0.0,0.0,0.0,0.0,0.0,0.0,0.0,0.0,0.0,0.0,0.0,0.0,0.0,0.0,0.0,0.0,0.0,0.0,0.0,0.0,0.0,0.0,0.0,0.0,0.0,0.0,0.0,0.0,0.0,0.0,0.0,0.0,0.0,0.0,0.0,0.0,0.0,0.0,0.0,0.0,0.0,0.0,0.0,0.0,0.0,0.0,0.0,0.0,0.0,0.0,0.0,0.0,0.0,0.0,0.0,0.0,0.0,0.0,0.0,0.0,0.0,0.0,0.0,0.0,0.0,0.0,0.0,0.0,0.0,0.0,0.0,0.0,0.0,0.0,0.0,0.0,0.0,0.0,0.0,0.0,0.0,0.0,0.0,0.0,0.0,0.0,0.0,0.0,0.0,0.0,0.0,0.0,0.0,0.0,0.0,0.0,0.0,0.0,0.0,0.0,0.0,0.0,0.0,0.0,0.0,0.0,0.0,0.0,0.0,0.0,0.0,0.0,0.0,0.0,0.0,0.0,0.0,0.0,0.0,0.0,0.0,0.0,0.0,0.0,0.0,0.0,0.0,0.0,0.0,0.0,0.0,-1.0586,0.0,0.0,0.0,0.0,0.0,0.0,0.0,0.0,0.0,0.0,0.0,0.0,0.0,0.0,0.0,0.0,0.0,0.0,0.0,0.0,0.0,0.0,0.0,0.0,0.0,0.0,0.0,0.0,0.0,0.0,0.0,0.0,0.0,0.0,0.0,0.0,0.0,0.0,0.0,0.0,0.0,0.0,0.0,0.0,0.0,0.0,0.0,0.0,0.0,0.0,0.0,0.0,0.0,0.0,0.0,0.0,0.0,0.0,0.0,0.0,0.0,0.0,0.0,0.0,0.0,0.0,0.0,0.0,0.0,0.0,0.0,0.0,0.0,0.0,0.0,0.0,0.0,0.0,0.0,0.0,0.0,0.0,0.0,0.0,0.0,0.0,0.0,0.0,0.0,0.0,0.0,0.0,0.0,0.0,0.0,0.0,0.0,0.0,0.0,0.0,0.0,0.0,0.0,0.0,0.0,0.0,0.0,0.0,0.0,0.0,-1.0586,-1.0586,-1.0586,-1.0586,-1.0586,0.0,0.0,0.0,0.0,0.0,0.0,0.0,0.0,0.0,0.0,0.0,0.0,0.0,0.0,0.0,0.0,0.0,0.0,0.0,0.0,0.0,0.0,0.0,0.0,0.0,0.0,0.0,0.0,0.0,0.0,0.0,0.0,0.0,0.0,0.0,0.0,0.0,0.0,0.0,0.0,0.0,0.0,0.0,0.0,0.0,0.0,0.0,0.0,0.0,0.0,0.0,0.0,0.0,0.0,0.0,0.0,0.0,0.0,0.0,0.0,0.0,0.0,0.0,0.0,0.0,0.0,0.0,0.0,0.0,0.0,0.0,0.0,0.0,0.0,0.0,0.0,0.0,0.0,0.0,0.0,0.0,0.0,0.0,0.0,0.0,0.0,0.0,0.0,0.0,0.0,0.0,0.0,0.0,0.0,0.0,0.0,0.0,0.0,0.0,0.0,0.0,0.0,0.0,0.0,0.0,0.0,0.0,0.0,0.0,0.0,0.0,0.0,-1.0719,-1.0688,-1.0649,0.0,0.0,0.0,0.0,0.0,0.0,0.0,0.0,0.0,0.0,0.0,0.0,0.0,0.0,0.0,0.0,0.0,0.0,0.0,0.0,0.0,0.0,0.0,0.0,0.0,0.0,0.0,0.0,0.0,0.0,0.0,0.0,0.0,0.0,0.0,0.0,0.0,0.0,0.0,0.0,0.0,0.0,0.0,0.0,0.0,0.0,0.0,0.0,0.0,0.0,0.0,0.0,0.0,0.0,0.0,0.0,0.0,0.0,0.0,0.0,0.0,0.0,0.0,0.0,0.0,0.0,0.0,0.0,0.0,0.0,0.0,0.0,0.0,0.0,0.0,0.0,0.0,0.0,0.0,0.0,0.0,0.0,0.0,0.0,0.0,0.0,0.0,0.0,0.0,0.0,0.0,0.0,0.0,0.0,0.0,0.0,0.0,0.0,0.0,0.0,0.0,0.0,0.0,0.0,0.0,0.0,0.0,0.0,0.0,0.0,-1.1059,-1.1059,-1.1059,0.0,-1.0807,0.0,0.0,0.0,0.0,0.0,0.0,0.0,0.0,0.0,0.0,0.0,0.0,0.0,0.0,0.0,0.0,0.0,0.0,0.0,0.0,0.0,0.0,0.0,0.0,0.0,0.0,0.0,0.0,0.0,0.0,0.0,0.0,0.0,0.0,0.0,0.0,0.0,0.0,0.0,0.0,0.0,0.0,0.0,0.0,0.0,0.0,0.0,0.0,0.0,0.0,0.0,0.0,0.0,0.0,0.0,0.0,0.0,0.0,0.0,0.0,0.0,0.0,0.0,0.0,0.0,0.0,0.0,0.0,0.0,0.0,0.0,0.0,0.0,0.0,0.0,0.0,0.0,0.0,0.0,0.0,0.0,0.0,0.0,0.0,0.0,0.0,0.0,0.0,0.0,0.0,0.0,0.0,0.0,0.0,0.0,0.0,0.0,0.0,0.0,0.0,0.0,0.0,0.0,0.0,0.0,0.0,0.0,0.0,0.0,0.0,-1.1097,-1.1097,-1.0908,-1.0755,0.0,0.0,0.0,0.0,0.0,0.0,0.0,0.0,0.0,0.0,0.0,0.0,0.0,0.0,0.0,0.0,0.0,0.0,0.0,0.0,0.0,0.0,0.0,0.0,0.0,0.0,0.0,0.0,0.0,0.0,0.0,0.0,0.0,0.0,0.0,0.0,0.0,0.0,0.0,0.0,0.0,0.0,0.0,0.0,0.0,0.0,0.0,0.0,0.0,0.0,0.0,0.0,0.0,0.0,0.0,0.0,0.0,0.0,0.0,0.0,0.0,0.0,0.0,0.0,0.0,0.0,0.0,0.0,0.0,0.0,0.0,0.0,0.0,0.0,0.0,0.0,0.0,0.0,0.0,0.0,0.0,0.0,0.0,0.0,0.0,0.0,0.0,0.0,0.0,0.0,0.0,0.0,0.0,0.0,0.0,0.0,0.0,0.0,0.0,0.0,0.0,0.0,0.0,0.0,0.0,0.0,0.0,0.0,0.0,0.0,-1.1435,-1.1373,-1.1358,-1.1033,-1.0838,-1.077,0.0,0.0,0.0,0.0,0.0,0.0,0.0,0.0,0.0,0.0,0.0,0.0,0.0,0.0,0.0,0.0,0.0,0.0,0.0,0.0,0.0,0.0,0.0,0.0,0.0,0.0,0.0,0.0,0.0,0.0,0.0,0.0,0.0,0.0,0.0,0.0,0.0,0.0,0.0,0.0,0.0,0.0,0.0,0.0,0.0,0.0,0.0,0.0,0.0,0.0,0.0,0.0,0.0,0.0,0.0,0.0,0.0,0.0,0.0,0.0,0.0,0.0,0.0,0.0,0.0,0.0,0.0,0.0,0.0,0.0,0.0,0.0,0.0,0.0,0.0,0.0,0.0,0.0,0.0,0.0,0.0,0.0,0.0,0.0,0.0,0.0,0.0,0.0,0.0,0.0,0.0,0.0,0.0,0.0,0.0,0.0,0.0,0.0,0.0,0.0,0.0,0.0,0.0,0.0,0.0,0.0,0.0,0.0,-1.2058,-1.2058,-1.2065,-1.2058,-1.1662,-1.139,0.0,0.0,0.0,0.0,0.0,0.0,0.0,0.0,0.0,0.0,0.0,0.0,0.0,0.0,0.0,0.0,0.0,0.0,0.0,0.0,0.0,0.0,0.0,0.0,0.0,0.0,0.0,0.0,0.0,0.0,0.0,0.0,0.0,0.0,0.0,0.0,0.0,0.0,0.0,0.0,0.0,0.0,0.0,0.0,0.0,0.0,0.0,0.0,0.0,0.0,0.0,0.0,0.0,0.0,0.0,0.0,0.0,0.0,0.0,0.0,0.0,0.0,0.0,0.0,0.0,0.0,0.0,0.0,0.0,0.0,0.0,0.0,0.0,0.0,0.0,0.0,0.0,0.0,0.0,0.0,0.0,0.0,0.0,0.0,0.0,0.0,0.0,0.0,0.0,0.0,0.0,0.0,0.0,0.0,0.0,0.0,0.0,0.0,0.0,0.0,0.0,0.0,0.0,0.0,0.0,0.0,0.0,0.0,0.0,-1.2359,-1.2359,-1.2367,-1.2351,-1.206,-1.1741,0.0,0.0,0.0,0.0,0.0,0.0,0.0,0.0,0.0,0.0,0.0,0.0,0.0,0.0,0.0,0.0,0.0,0.0,0.0,0.0,0.0,0.0,0.0,0.0,0.0,0.0,0.0,0.0,0.0,0.0,0.0,0.0,0.0,0.0,0.0,0.0,0.0,0.0,0.0,0.0,0.0,0.0,0.0,0.0,0.0,0.0,0.0,0.0,0.0,0.0,0.0,0.0,0.0,0.0,0.0,0.0,0.0,0.0,0.0,0.0,0.0,0.0,0.0,0.0,0.0,0.0,0.0,0.0,0.0,0.0,0.0,0.0,0.0,0.0,0.0,0.0,0.0,0.0,0.0,0.0,0.0,0.0,0.0,0.0,0.0,0.0,0.0,0.0,0.0,0.0,0.0,0.0,0.0,0.0,0.0,0.0,0.0,0.0,0.0,0.0,0.0,0.0,0.0,0.0,0.0,0.0,0.0,0.0,0.0,-1.2858,0.0,-1.2866,-1.2858,-1.2567,-1.2193,0.0,0.0,0.0,0.0,0.0,0.0,0.0,0.0,0.0,0.0,0.0,0.0,0.0,0.0,0.0,0.0,0.0,0.0,0.0,0.0,0.0,0.0,0.0,0.0,0.0,0.0,0.0,0.0,0.0,0.0,0.0,0.0,0.0,0.0,0.0,0.0,0.0,0.0,0.0,0.0,0.0,0.0,0.0,0.0,0.0,0.0,0.0,0.0,0.0,0.0,0.0,0.0,0.0,0.0,0.0,0.0,0.0,0.0,0.0,0.0,0.0,0.0,0.0,0.0,0.0,0.0,0.0,0.0,0.0,0.0,0.0,0.0,0.0,0.0,0.0,0.0,0.0,0.0,0.0,0.0,0.0,0.0,0.0,0.0,0.0,0.0,0.0,0.0,0.0,0.0,0.0,0.0,0.0,0.0,0.0,0.0,0.0,0.0,0.0,0.0,0.0,0.0,0.0,0.0,0.0,0.0,0.0,0.0,-1.3248,-1.3602,-1.3627,-1.3675,-1.361,-1.3327,-1.2847,0.0,0.0,0.0,0.0,0.0,0.0,0.0,0.0,0.0,0.0,0.0,0.0,0.0,0.0,0.0,0.0,0.0,0.0,0.0,0.0,0.0,0.0,0.0,0.0,0.0,0.0,0.0,0.0,0.0,0.0,0.0,0.0,0.0,0.0,0.0,0.0,0.0,0.0,0.0,0.0,0.0,0.0,0.0,0.0,0.0,0.0,0.0,0.0,0.0,0.0,0.0,0.0,0.0,0.0,0.0,0.0,0.0,0.0,0.0,0.0,0.0,0.0,0.0,0.0,0.0,0.0,0.0,0.0,0.0,0.0,0.0,0.0,0.0,0.0,0.0,0.0,0.0,0.0,0.0,0.0,0.0,0.0,0.0,0.0,0.0,0.0,0.0,0.0,0.0,0.0,0.0,0.0,0.0,0.0,0.0,0.0,0.0,0.0,0.0,0.0,0.0,0.0,0.0,0.0,0.0,0.0,0.0,0.0,0.0,-1.512,-1.5129,-1.5129,-1.5111,-1.4763,-1.4214,0.0,0.0,0.0,0.0,0.0,0.0,0.0,0.0,0.0,0.0,0.0,0.0,0.0,0.0,0.0,0.0,0.0,0.0,0.0,0.0,0.0,0.0,0.0,0.0,0.0,0.0,0.0,0.0,0.0,0.0,0.0,0.0,0.0,0.0,0.0,0.0,0.0,0.0,0.0,0.0,0.0,0.0,0.0,0.0,0.0,0.0,0.0,0.0,0.0,0.0,0.0,0.0,0.0,0.0,0.0,0.0,0.0,0.0,0.0,0.0,0.0,0.0,0.0,0.0,0.0,0.0,0.0,0.0,0.0,0.0,0.0,0.0,0.0,0.0,0.0,0.0,0.0,0.0,0.0,0.0,0.0,0.0,0.0,0.0,0.0,0.0,0.0,0.0,0.0,0.0,0.0,0.0,0.0,0.0,0.0,0.0,0.0,0.0,0.0,0.0,0.0,0.0,0.0,0.0,0.0,0.0,0.0,0.0,0.0,-1.7578,-1.717,-1.6945,-1.6945,-1.6575,-1.5779,-1.465,0.0,0.0,0.0,0.0,0.0,0.0,0.0,0.0,0.0,0.0,0.0,0.0,0.0,0.0,0.0,0.0,0.0,0.0,0.0,0.0,0.0,0.0,0.0,0.0,0.0,0.0,0.0,0.0,0.0,0.0,0.0,0.0,0.0,0.0,0.0,0.0,0.0,0.0,0.0,0.0,0.0,0.0,0.0,0.0,0.0,0.0,0.0,0.0,0.0,0.0,0.0,0.0,0.0,0.0,0.0,0.0,0.0,0.0,0.0,0.0,0.0,0.0,0.0,0.0,0.0,0.0,0.0,0.0,0.0,0.0,0.0,0.0,0.0,0.0,0.0,0.0,0.0,0.0,0.0,0.0,0.0,0.0,0.0,0.0,0.0,0.0,0.0,0.0,0.0,0.0,0.0,0.0,0.0,0.0,0.0,0.0,0.0,0.0,0.0,0.0,0.0,0.0,0.0,0.0,0.0,0.0,0.0,0.0,-2.073,-1.9724,-1.9197,-1.9075,-1.8648,-1.7513,0.0,0.0,0.0,0.0,0.0,0.0,0.0,0.0,0.0,0.0,0.0,0.0,0.0,0.0,0.0,0.0,0.0,0.0,0.0,0.0,0.0,0.0,0.0,0.0,0.0,0.0,0.0,0.0,0.0,0.0,0.0,0.0,0.0,0.0,0.0,0.0,0.0,0.0,0.0,0.0,0.0,0.0,0.0,0.0,0.0,0.0,0.0,0.0,0.0,0.0,0.0,0.0,0.0,0.0,0.0,0.0,0.0,0.0,0.0,0.0,0.0,0.0,0.0,0.0,0.0,0.0,0.0,0.0,0.0,0.0,0.0,0.0,0.0,0.0,0.0,0.0,0.0,0.0,0.0,0.0,0.0,0.0,0.0,0.0,0.0,0.0,0.0,0.0,0.0,0.0,0.0,0.0,0.0,0.0,0.0,0.0,0.0,0.0,0.0,0.0,0.0,0.0,0.0,0.0,0.0,0.0,0.0,0.0,0.0,-2.2654,-2.2896,-2.2361,-2.114,-2.012,-1.9033,0.0,0.0,0.0,0.0,0.0,0.0,0.0,0.0,0.0,0.0,0.0,0.0,0.0,0.0,0.0,0.0,0.0,0.0,0.0,0.0,0.0,0.0,0.0,0.0,0.0,0.0,0.0,0.0,0.0,0.0,0.0,0.0,0.0,0.0,0.0,0.0,0.0,0.0,0.0,0.0,0.0,0.0,0.0,0.0,0.0,0.0,0.0,0.0,0.0,0.0,0.0,0.0,0.0,0.0,0.0,0.0,0.0,0.0,0.0,0.0,0.0,0.0,0.0,0.0,0.0,0.0,0.0,0.0,0.0,0.0,0.0,0.0,0.0,0.0,0.0,0.0,0.0,0.0,0.0,0.0,0.0,0.0,0.0,0.0,0.0,0.0,0.0,0.0,0.0,0.0,0.0,0.0,0.0,0.0,0.0,0.0,0.0,0.0,0.0,0.0,0.0,0.0,0.0,0.0,0.0,0.0,0.0,0.0,-2.2242,-2.359,-2.4468,-2.4479,-2.3515,-2.2082,-2.0668,0.0,0.0,0.0,0.0,0.0,0.0,0.0,0.0,0.0,0.0,0.0,0.0,0.0,0.0,0.0,0.0,0.0,0.0,0.0,0.0,0.0,0.0,0.0,0.0,0.0,0.0,0.0,0.0,0.0,0.0,0.0,0.0,0.0,0.0,0.0,0.0,0.0,0.0,0.0,0.0,0.0,0.0,0.0,0.0,0.0,0.0,0.0,0.0,0.0,0.0,0.0,0.0,0.0,0.0,0.0,0.0,0.0,0.0,0.0,0.0,0.0,0.0,0.0,0.0,0.0,0.0,0.0,0.0,0.0,0.0,0.0,0.0,0.0,0.0,0.0,0.0,0.0,0.0,0.0,0.0,0.0,0.0,0.0,0.0,0.0,0.0,0.0,0.0,0.0,0.0,0.0,0.0,0.0,0.0,0.0,0.0,0.0,0.0,0.0,0.0,0.0,0.0,0.0,0.0,0.0,0.0,0.0,0.0,-2.3018,-2.3916,-2.5117,-2.5684,-2.5635,-2.4102,-2.2298,0.0,0.0,0.0,0.0,0.0,0.0,0.0,0.0,0.0,0.0,0.0,0.0,0.0,0.0,0.0,0.0,0.0,0.0,0.0,0.0,0.0,0.0,0.0,0.0,0.0,0.0,0.0,0.0,0.0,0.0,0.0,0.0,0.0,0.0,0.0,0.0,0.0,0.0,0.0,0.0,0.0,0.0,0.0,0.0,0.0,0.0,0.0,0.0,0.0,0.0,0.0,0.0,0.0,0.0,0.0,0.0,0.0,0.0,0.0,0.0,0.0,0.0,0.0,0.0,0.0,0.0,0.0,0.0,0.0,0.0,0.0,0.0,0.0,0.0,0.0,0.0,0.0,0.0,0.0,0.0,0.0,0.0,0.0,0.0,0.0,0.0,0.0,0.0,0.0,0.0,0.0,0.0,0.0,0.0,0.0,0.0,0.0,0.0,0.0,0.0,0.0,0.0,0.0,0.0,0.0,0.0,0.0,0.0,-2.3594,-2.4766,-2.541,-2.5684,-2.5684,-2.4385,-2.2969,0.0,0.0,0.0,0.0,0.0,0.0,0.0,0.0,0.0,0.0,0.0,0.0,0.0,0.0,0.0,0.0,0.0,0.0,0.0,0.0,0.0,0.0,0.0,0.0,0.0,0.0,0.0,0.0,0.0,0.0,0.0,0.0,0.0,0.0,0.0,0.0,0.0,0.0,0.0,0.0,0.0,0.0,0.0,0.0,0.0,0.0,0.0,0.0,-2.3389,0.0,0.0,0.0,0.0,0.0,0.0,0.0,0.0,0.0,0.0,0.0,0.0,0.0,0.0,0.0,0.0,0.0,0.0,0.0,0.0,0.0,0.0,0.0,0.0,0.0,0.0,0.0,0.0,0.0,0.0,0.0,0.0,0.0,0.0,0.0,0.0,0.0,0.0,0.0,0.0,0.0,0.0,0.0,0.0,0.0,0.0,0.0,0.0,0.0,0.0,0.0,0.0,0.0,0.0,0.0,0.0,0.0,0.0,0.0,-2.3975,-2.5077,-2.5508,-2.5684,-2.5654,-2.4863,-2.3691,0.0,0.0,0.0,0.0,0.0,0.0,0.0,0.0,0.0,0.0,0.0,0.0,0.0,0.0,0.0,0.0,0.0,0.0,0.0,0.0,0.0,0.0,0.0,0.0,0.0,0.0,0.0,0.0,0.0,0.0,0.0,0.0,0.0,0.0,0.0,0.0,0.0,0.0,0.0,0.0,0.0,0.0,0.0,0.0,0.0,0.0,0.0,0.0,0.0,0.0,0.0,0.0,0.0,0.0,0.0,0.0,0.0,0.0,0.0,0.0,0.0,0.0,0.0,0.0,0.0,0.0,0.0,0.0,0.0,0.0,0.0,0.0,0.0,0.0,0.0,0.0,0.0,0.0,0.0,0.0,0.0,0.0,0.0,0.0,0.0,0.0,0.0,0.0,0.0,0.0,0.0,0.0,0.0,0.0,0.0,0.0,0.0,0.0,0.0,0.0,0.0,0.0,0.0,0.0,0.0,0.0,0.0,-2.3174,-2.4238,-2.5137,-2.5537,-2.5684,-2.5674,-2.5303,-2.4297,-2.2646,0.0,0.0,0.0,0.0,0.0,0.0,0.0,0.0,0.0,0.0,0.0,0.0,0.0,0.0,0.0,0.0,0.0,0.0,0.0,0.0,0.0,0.0,0.0,0.0,0.0,0.0,0.0,0.0,0.0,0.0,0.0,0.0,0.0,0.0,0.0,0.0,0.0,0.0,-1.7011,-2.0271,0.0,0.0,0.0,0.0,0.0,0.0,0.0,0.0,-2.8064,0.0,0.0,0.0,0.0,0.0,0.0,0.0,0.0,0.0,0.0,0.0,0.0,0.0,0.0,0.0,0.0,0.0,0.0,0.0,0.0,0.0,0.0,0.0,0.0,0.0,0.0,0.0,0.0,0.0,0.0,0.0,0.0,0.0,0.0,0.0,0.0,0.0,0.0,0.0,0.0,0.0,0.0,0.0,0.0,0.0,0.0,0.0,0.0,0.0,0.0,0.0,0.0,0.0,0.0,0.0,0.0,-2.2402,-2.332,-2.4385,-2.5538,-2.5645,-2.5684,-2.5674,-2.5303,-2.4424,-2.2994,0.0,0.0,0.0,0.0,0.0,0.0,0.0,0.0,0.0,0.0,0.0,0.0,0.0,0.0,0.0,0.0,0.0,0.0,0.0,0.0,0.0,0.0,0.0,0.0,0.0,0.0,0.0,0.0,0.0,0.0,0.0,0.0,0.0,0.0,0.0,0.0,0.0,0.0,0.0,-2.2897,-2.5341,0.0,0.0,0.0,0.0,0.0,0.0,0.0,0.0,-3.1171,0.0,0.0,0.0,0.0,0.0,0.0,0.0,0.0,0.0,0.0,0.0,0.0,0.0,0.0,0.0,0.0,0.0,0.0,0.0,0.0,0.0,0.0,0.0,0.0,0.0,0.0,0.0,0.0,0.0,0.0,0.0,0.0,0.0,0.0,0.0,0.0,0.0,0.0,0.0,0.0,0.0,0.0,0.0,0.0,0.0,0.0,0.0,0.0,0.0,0.0,0.0,0.0,0.0,0.0,0.0,-2.2803,-2.3906,-2.4873,-2.5654,-2.5684,-2.5684,-2.5674,-2.5303,-2.4365,0.0,0.0,0.0,0.0,0.0,0.0,0.0,0.0,0.0,0.0,0.0,0.0,0.0,0.0,0.0,0.0,0.0,0.0,0.0,0.0,0.0,0.0,0.0,0.0,0.0,0.0,0.0,0.0,0.0,0.0,0.0,0.0,0.0,0.0,0.0,0.0,0.0,0.0,0.0,0.0,-2.5673,-2.7978,-3.0745,0.0,0.0,0.0,0.0,0.0,0.0,-3.369,-3.2936,0.0,0.0,0.0,0.0,0.0,0.0,0.0,0.0,0.0,0.0,0.0,0.0,0.0,0.0,0.0,0.0,0.0,0.0,0.0,0.0,0.0,0.0,0.0,0.0,0.0,0.0,0.0,0.0,0.0,0.0,0.0,0.0,0.0,0.0,0.0,0.0,0.0,0.0,0.0,0.0,0.0,0.0,0.0,0.0,0.0,0.0,0.0,0.0,0.0,0.0,0.0,0.0,0.0,0.0,0.0,-2.3208,-2.4453,-2.5283,-2.5664,-2.5684,-2.5684,-2.5674,-2.5215,-2.4219,0.0,0.0,0.0,0.0,0.0,0.0,0.0,0.0,0.0,0.0,0.0,0.0,0.0,0.0,0.0,0.0,0.0,0.0,0.0,0.0,0.0,0.0,0.0,0.0,0.0,0.0,0.0,0.0,0.0,0.0,0.0,0.0,0.0,0.0,0.0,0.0,0.0,0.0,0.0,0.0,0.0,-3.0295,-3.3434,-3.3951,0.0,0.0,0.0,0.0,-3.5891,-3.5429,0.0,0.0,0.0,0.0,0.0,0.0,0.0,0.0,0.0,0.0,0.0,0.0,0.0,0.0,0.0,0.0,0.0,0.0,0.0,0.0,0.0,0.0,0.0,0.0,0.0,0.0,0.0,0.0,0.0,0.0,0.0,0.0,0.0,0.0,0.0,0.0,0.0,0.0,0.0,0.0,0.0,0.0,0.0,0.0,0.0,0.0,0.0,0.0,0.0,0.0,0.0,0.0,0.0,0.0,0.0,0.0,-2.3672,-2.4656,-2.5283,-2.5654,-2.5684,-2.5684,-2.5674,-2.4932,-2.4053,0.0,0.0,0.0,0.0,0.0,0.0,0.0,0.0,0.0,0.0,0.0,0.0,0.0,0.0,0.0,0.0,0.0,0.0,0.0,0.0,0.0,0.0,0.0,0.0,0.0,0.0,0.0,0.0,0.0,0.0,0.0,0.0,0.0,0.0,0.0,0.0,0.0,0.0,0.0,0.0,0.0,-3.1485,-3.4425,-3.5482,-3.604,0.0,0.0,-3.7775,-3.7849,-3.7795,0.0,0.0,0.0,0.0,0.0,0.0,0.0,0.0,0.0,0.0,0.0,0.0,0.0,0.0,0.0,0.0,0.0,0.0,0.0,0.0,0.0,0.0,0.0,0.0,0.0,0.0,0.0,0.0,0.0,0.0,0.0,0.0,0.0,0.0,0.0,0.0,0.0,0.0,0.0,0.0,0.0,0.0,0.0,0.0,0.0,0.0,0.0,0.0,0.0,0.0,0.0,0.0,0.0,0.0,0.0,-2.2324,-2.376,-2.4893,-2.5499,-2.5693,-2.5977,-2.6103,-2.6113,-2.5498,-2.4485,0.0,0.0,0.0,0.0,0.0,0.0,0.0,0.0,0.0,0.0,0.0,0.0,0.0,0.0,0.0,0.0,0.0,0.0,0.0,0.0,0.0,0.0,0.0,0.0,0.0,0.0,0.0,0.0,0.0,0.0,0.0,0.0,0.0,0.0,0.0,0.0,0.0,0.0,0.0,0.0,0.0,0.0,-3.5732,-3.7134,0.0,0.0,0.0,-3.8761,-3.8883,0.0,0.0,0.0,0.0,0.0,0.0,0.0,0.0,0.0,0.0,0.0,0.0,0.0,0.0,0.0,0.0,0.0,0.0,0.0,0.0,0.0,0.0,0.0,0.0,0.0,0.0,0.0,0.0,0.0,0.0,0.0,0.0,0.0,0.0,0.0,0.0,0.0,0.0,0.0,0.0,0.0,0.0,0.0,0.0,0.0,0.0,0.0,0.0,0.0,0.0,0.0,0.0,0.0,0.0,0.0,0.0,0.0,-2.4102,-2.5293,-2.6006,-2.6211,-2.6543,-2.6768,-2.6846,-2.6445,0.0,0.0,0.0,0.0,0.0,0.0,0.0,0.0,0.0,0.0,0.0,0.0,0.0,0.0,0.0,0.0,0.0,0.0,0.0,0.0,0.0,0.0,0.0,0.0,0.0,0.0,0.0,-2.0953,0.0,0.0,0.0,0.0,0.0,0.0,0.0,0.0,0.0,0.0,0.0,0.0,0.0,0.0,-3.449,-3.667,-3.8237,-3.9213,0.0,0.0,-3.9213,-3.9388,-3.8975,-3.8153,0.0,0.0,0.0,0.0,0.0,0.0,0.0,0.0,0.0,0.0,0.0,0.0,0.0,0.0,0.0,0.0,0.0,0.0,0.0,0.0,0.0,0.0,0.0,0.0,0.0,0.0,0.0,0.0,0.0,0.0,0.0,0.0,0.0,0.0,0.0,0.0,0.0,0.0,0.0,0.0,0.0,0.0,0.0,0.0,0.0,0.0,0.0,0.0,0.0,0.0,0.0,0.0,0.0,0.0,0.0,-2.4988,-2.5889,-2.6728,-2.75,-2.7611,-2.7826,-2.8144,-2.7806,-2.6769,0.0,0.0,0.0,0.0,0.0,0.0,0.0,0.0,0.0,0.0,0.0,0.0,0.0,0.0,0.0,0.0,0.0,0.0,0.0,0.0,0.0,0.0,0.0,0.0,0.0,0.0,0.0,0.0,0.0,0.0,0.0,0.0,0.0,0.0,0.0,0.0,0.0,0.0,0.0,0.0,0.0,-3.4753,-3.6891,-3.843,-3.9388,0.0,0.0,-3.9388,-3.9388,-3.9343,-3.8691,-3.6791,0.0,0.0,0.0,0.0,0.0,0.0,0.0,0.0,0.0,0.0,0.0,0.0,0.0,0.0,0.0,0.0,0.0,0.0,0.0,0.0,0.0,0.0,0.0,0.0,0.0,0.0,0.0,0.0,0.0,0.0,0.0,0.0,0.0,0.0,0.0,0.0,0.0,0.0,0.0,0.0,0.0,0.0,0.0,0.0,0.0,0.0,0.0,0.0,0.0,0.0,0.0,0.0,0.0,-2.3623,-2.5106,-2.6465,-2.7395,-2.7718,-2.8164,-2.8516,-2.8682,-2.8525,-2.7754,0.0,0.0,0.0,0.0,0.0,0.0,0.0,0.0,0.0,0.0,0.0,0.0,0.0,0.0,0.0,0.0,0.0,0.0,0.0,0.0,0.0,0.0,0.0,0.0,0.0,0.0,0.0,0.0,-2.8348,-2.8774,-2.816,0.0,0.0,0.0,0.0,0.0,0.0,0.0,0.0,0.0,0.0,-3.5986,-3.7704,-3.8775,0.0,0.0,-3.9388,-3.9388,-3.9388,-3.9388,-3.9005,-3.7853,-3.6237,0.0,0.0,0.0,0.0,0.0,0.0,0.0,0.0,0.0,0.0,0.0,0.0,0.0,0.0,0.0,0.0,0.0,0.0,0.0,0.0,0.0,0.0,0.0,0.0,0.0,0.0,0.0,0.0,0.0,0.0,0.0,0.0,0.0,0.0,0.0,0.0,0.0,0.0,0.0,0.0,0.0,0.0,0.0,0.0,0.0,0.0,0.0,0.0,0.0,0.0,0.0,0.0,-2.4216,-2.5449,-2.7092,-2.7988,-2.8286,-2.8926,-2.9365,-2.9502,-2.9512,-2.8906,0.0,0.0,0.0,0.0,0.0,0.0,0.0,0.0,0.0,0.0,0.0,0.0,0.0,0.0,0.0,0.0,0.0,0.0,0.0,0.0,0.0,0.0,0.0,0.0,0.0,0.0,0.0,0.0,-2.9818,-2.9998,-2.8916,0.0,0.0,0.0,0.0,0.0,0.0,0.0,0.0,0.0,0.0,-3.698,-3.8227,-3.8975,-3.9388,-3.9388,-3.9388,-3.9388,-3.9388,-3.9388,-3.9245,-3.8781,0.0,0.0,0.0,0.0,0.0,0.0,0.0,0.0,0.0,0.0,0.0,0.0,0.0,0.0,0.0,0.0,0.0,0.0,0.0,0.0,0.0,0.0,0.0,0.0,0.0,0.0,0.0,0.0,0.0,0.0,0.0,0.0,0.0,0.0,0.0,0.0,0.0,0.0,0.0,0.0,0.0,0.0,0.0,0.0,0.0,0.0,0.0,0.0,0.0,0.0,0.0,0.0,0.0,-2.5039,-2.6348,-2.7637,-2.8691,-2.9548,-2.9951,-3.0371,-3.0801,-3.084,-3.0225,-2.8887,0.0,0.0,0.0,0.0,0.0,0.0,0.0,0.0,0.0,0.0,0.0,0.0,0.0,0.0,0.0,0.0,0.0,0.0,0.0,0.0,0.0,0.0,0.0,0.0,0.0,0.0,-2.885,-2.9568,-2.9794,0.0,0.0,0.0,0.0,0.0,0.0,0.0,0.0,0.0,0.0,-3.596,-3.7486,-3.8317,-3.899,-3.9388,-3.9403,-3.9403,-3.9388,-3.9403,-3.9388,-3.9388,0.0,0.0,0.0,0.0,0.0,0.0,0.0,0.0,0.0,0.0,0.0,0.0,0.0,0.0,0.0,0.0,0.0,0.0,0.0,0.0,0.0,0.0,0.0,0.0,0.0,0.0,0.0,-1.8198,-1.9529,0.0,0.0,0.0,0.0,0.0,0.0,0.0,0.0,0.0,0.0,0.0,-2.2939,-2.3086,0.0,0.0,0.0,0.0,0.0,0.0,0.0,0.0,0.0,0.0,0.0,0.0,-2.5791,-2.6826,-2.835,-2.9424,-2.9971,-3.043,-3.0732,-3.0889,-3.0898,-3.0273,-2.8955,0.0,0.0,0.0,0.0,0.0,0.0,0.0,0.0,0.0,0.0,0.0,0.0,0.0,0.0,0.0,0.0,0.0,0.0,0.0,0.0,0.0,0.0,0.0,0.0,0.0,-2.9277,0.0,0.0,0.0,0.0,0.0,0.0,0.0,0.0,0.0,0.0,0.0,-3.4579,-3.6049,-3.7252,-3.8247,-3.899,-3.9275,-3.9538,0.0,0.0,0.0,0.0,0.0,0.0,0.0,0.0,0.0,0.0,0.0,0.0,0.0,0.0,-3.2527,-3.1546,-3.1826,-3.2516,-3.3661,0.0,0.0,0.0,0.0,0.0,0.0,0.0,0.0,0.0,0.0,0.0,0.0,0.0,0.0,0.0,0.0,-2.1709,0.0,0.0,0.0,0.0,0.0,0.0,0.0,0.0,-2.4355,-2.456,-2.4697,-2.4844,-2.5049,0.0,-2.5176,-2.4385,0.0,0.0,0.0,0.0,0.0,0.0,0.0,0.0,-2.6551,-2.749,-2.8994,-2.9922,-3.0205,-3.0654,-3.0898,-3.0898,-3.0898,-3.0488,-2.9639,-2.8789,-2.7529,0.0,0.0,0.0,0.0,0.0,0.0,0.0,0.0,0.0,0.0,0.0,0.0,0.0,0.0,0.0,0.0,0.0,0.0,0.0,0.0,0.0,0.0,0.0,-3.0412,0.0,0.0,0.0,0.0,0.0,0.0,0.0,0.0,0.0,-3.2669,-3.4617,-3.6365,-3.7491,-3.8456,-3.917,-3.9379,0.0,0.0,0.0,0.0,0.0,0.0,0.0,-3.9843,-4.0068,-3.9738,-3.9125,-3.8257,-3.703,-3.6163,-3.6178,0.0,0.0,-3.4328,-3.4698,-3.5582,-3.6632,-3.7226,-3.7828,-3.8629,-3.8905,-3.9184,0.0,0.0,0.0,0.0,0.0,0.0,0.0,0.0,-2.1073,-2.1775,0.0,-2.3159,0.0,0.0,0.0,0.0,0.0,0.0,0.0,0.0,-2.6522,-2.6797,-2.6455,-2.6807,-2.7031,-2.7031,-2.6631,-2.6426,-2.6338,-2.5137,0.0,0.0,0.0,0.0,0.0,0.0,-2.7471,-2.834,-2.956,-3.0195,-3.0244,-3.0664,-3.0898,-3.0898,-3.0898,-3.0879,-3.085,-3.0039,-2.9264,-2.833,-2.6299,0.0,0.0,0.0,0.0,0.0,0.0,0.0,0.0,0.0,0.0,0.0,0.0,0.0,0.0,0.0,0.0,0.0,0.0,0.0,0.0,-2.9979,0.0,0.0,0.0,0.0,0.0,0.0,0.0,0.0,0.0,0.0,-3.4926,-3.6246,-3.756,-3.8347,0.0,0.0,0.0,0.0,-4.0217,-3.9649,-3.9514,-3.9478,-3.9559,-4.0038,-4.0636,-4.125,0.0,0.0,-3.9694,-3.8392,-3.7524,-3.7509,-3.8023,-3.8087,-3.6877,-3.7492,-3.8481,-3.9437,-4.0564,-4.1503,-4.1761,-4.1858,-4.2072,-2.126,0.0,0.0,0.0,0.0,-1.9509,-2.0762,-2.2871,-2.3008,-2.3896,-2.5293,-2.541,0.0,0.0,0.0,0.0,0.0,0.0,-2.624,-2.665,-2.6904,-2.7109,-2.7356,-2.7422,-2.7637,-2.792,-2.7812,-2.7744,-2.7734,-2.7363,-2.6504,-2.5215,0.0,0.0,0.0,0.0,-2.835,-2.918,-2.9863,-3.0361,-3.0693,-3.082,-3.0898,-3.0898,-3.0898,-3.0898,-3.0889,-3.0644,-3.0107,-2.9284,-2.8027,0.0,0.0,0.0,0.0,0.0,0.0,0.0,0.0,0.0,0.0,0.0,0.0,0.0,0.0,0.0,0.0,0.0,0.0,0.0,-3.1044,-3.1562,-3.1744,0.0,0.0,0.0,0.0,0.0,0.0,0.0,0.0,0.0,-3.7804,-3.8389,-3.8844,0.0,0.0,-4.0337,-4.0142,-4.0681,-4.1205,-4.1527,0.0,0.0,0.0,-4.128,-4.116,-4.1354,-4.1422,-4.125,-4.0876,-4.0113,-3.9544,-3.9529,-3.9813,-3.9898,-3.9625,-3.9722,-4.0479,-4.1842,-4.2548,-4.3024,-4.3603,-4.3844,-4.3872,-2.5039,-2.3477,-2.1838,-2.1515,-2.208,-2.209,-2.3223,-2.5068,-2.5068,-2.5664,-2.6631,-2.6631,-2.6494,-2.6191,-2.6191,0.0,0.0,0.0,-2.7119,-2.7519,-2.7519,-2.7666,-2.791,-2.791,-2.8047,-2.8291,-2.8301,-2.8301,-2.8301,-2.8301,-2.7773,-2.6787,0.0,0.0,-2.7529,-2.8193,-2.8965,-2.9795,-3.0244,-3.0605,-3.0889,-3.0898,-3.0898,-3.0898,-3.0898,-3.0898,-3.0898,-3.0898,-3.0644,-3.0107,-2.9323,-2.8057,0.0,0.0,0.0,0.0,0.0,0.0,0.0,0.0,0.0,0.0,0.0,-2.3207,0.0,0.0,0.0,0.0,-2.9934,-3.1029,-3.2441,-3.234,0.0,0.0,0.0,0.0,0.0,0.0,0.0,-3.5574,-3.7469,-3.9003,-3.9765,-4.004,-4.0202,-4.0202,-4.0756,-4.1123,-4.0831,0.0,-4.1856,-4.1991,-4.1677,-4.1557,-4.1946,-4.1901,-4.1901,-4.2117,-4.1938,-4.1811,-4.1796,-4.1272,-4.0816,-4.077,-4.0677,-4.0797,-4.1487,-4.1402,-4.1593,-4.3,-4.3591,-4.4006,-4.4514,-4.4598,-4.4598,-2.8301,-2.7959,-2.4043,-2.331,-2.4697,-2.4727,-2.5635,-2.709,-2.71,-2.7119,-2.7119,-2.7119,-2.7119,-2.7119,-2.7109,0.0,0.0,-2.7767,-2.791,-2.8291,-2.8301,-2.8301,-2.8301,-2.8291,-2.8301,-2.8301,-2.8301,-2.8301,-2.8301,-2.8301,-2.8291,-2.8281,-2.7939,-2.7978,-2.8398,-2.8809,-2.9424,-3.0244,-3.0664,-3.0889,-3.0898,-3.0898,-3.0898,-3.0898,-3.0898,-3.0898,-3.0898,-3.0898,-3.0898,-3.0869,-3.0117,-2.9333,-2.8389,0.0,0.0,0.0,0.0,0.0,0.0,0.0,0.0,0.0,0.0,0.0,0.0,0.0,0.0,0.0,-3.2481,0.0,-3.3206,-3.2729,0.0,0.0,0.0,-3.3055,-3.3985,-3.5357,-3.6573,-3.7489,0.0,0.0,-4.108,0.0,-4.1474,-4.1534,-4.2051,-4.2186,-4.1572,-4.2051,-4.2246,-4.1728,-4.1579,-4.1549,-4.1743,-4.2117,-4.2611,-4.3065,-4.2836,-4.25,-4.244,-4.1946,-4.1504,-4.1482,-4.107,-4.1142,-4.2734,-4.2605,-4.2572,-4.3317,-4.4027,-4.457,-4.4598,-4.4598,-4.4598,-2.8301,-2.8203,-2.7197,-2.7002,-2.7363,-2.7373,-2.7607,-2.7978,-2.7998,-2.7988,-2.7988,-2.7988,-2.7988,-2.7988,-2.7988,-2.8047,-2.8144,-2.8144,-2.8193,-2.8291,-2.8301,-2.8301,-2.8301,-2.8301,-2.8301,-2.8301,-2.8301,-2.8301,-2.8301,-2.8301,-2.8301,-2.831,-2.8516,-2.8838,-2.9268,-2.9687,-3.0166,-3.0723,-3.084,-3.0898,-3.0898,-3.0898,-3.0898,-3.0898,-3.0898,-3.0898,-3.0898,-3.0898,-3.0898,-3.0889,-3.0693,-3.0176,-2.9352,-2.7441,0.0,0.0,0.0,0.0,0.0,0.0,0.0,0.0,0.0,-2.7356,-2.8141,0.0,-3.1689,0.0,-3.364,-3.4324,-3.4279,-3.4211,0.0,0.0,-3.4041,-3.4145,-3.5012,-3.6747,-3.8017,-3.836,-4.0436,-4.1876,-4.2079,-4.2132,-4.2351,-4.2776,-4.2566,-4.2336,-4.2201,-4.2686,-4.3006,-4.288,-4.2781,-4.2826,-4.2796,-4.2985,-4.315,-4.326,-4.3155,-4.3105,-4.309,-4.2566,-4.2171,-4.2241,-4.2788,-4.3078,-4.2841,-4.4269,-4.5047,-4.4351,-4.4361,-4.4598,-4.4598,-4.4598,-4.4598,-2.875,-2.8574,-2.8574,-2.8467,-2.8301,-2.8301,-2.8301,-2.8301,-2.8301,-2.8301,-2.8301,-2.8301,-2.8301,-2.8301,-2.8301,-2.8301,-2.8301,-2.8301,-2.8301,-2.8301,-2.8301,-2.8301,-2.8301,-2.8301,-2.8301,-2.8301,-2.8301,-2.8301,-2.8301,-2.8301,-2.8301,-2.831,-2.8906,-2.9336,-2.9626,-2.998,-3.043,-3.0889,-3.0898,-3.0898,-3.0898,-3.0898,-3.0898,-3.0898,-3.0898,-3.0898,-3.0898,-3.0898,-3.0898,-3.0898,-3.0898,-3.0576,-2.9873,-2.8408,-2.709,0.0,0.0,0.0,0.0,0.0,0.0,0.0,0.0,0.0,0.0,0.0,-3.3196,0.0,-3.4587,-3.4944,-3.4693,-3.468,-3.4768,-3.5019,-3.4891,-3.5064,-3.5758,-3.7772,-3.9173,-3.9257,-4.1328,-4.2791,-4.2791,-4.2806,-4.2925,-4.3245,-4.303,-4.2791,-4.2821,-4.3105,-4.3305,-4.3305,-4.3305,-4.3305,-4.3305,-4.3305,-4.3305,-4.3305,-4.3305,-4.3305,-4.329,-4.3045,-4.2791,-4.2824,-4.3104,-4.3488,-4.3741,-4.4637,-4.5441,-4.5587,-4.5501,-4.5319,-4.4733,-4.4598,-4.4598,-2.9346,-2.9004,-2.9004,-2.8799,-2.8447,-2.8457,-2.8398,-2.8301,-2.8301,-2.8301,-2.8301,-2.8301,-2.8301,-2.8301,-2.8301,-2.8301,-2.8301,-2.8301,-2.8301,-2.8301,-2.8301,-2.8301,-2.8301,-2.8301,-2.8301,-2.8301,-2.8301,-2.8301,-2.8301,-2.8301,-2.8301,-2.833,-2.9101,-2.9482,-2.9512,-2.9902,-3.0371,-3.0879,-3.0898,-3.0898,-3.0898,-3.0898,-3.0898,-3.0898,-3.0898,-3.0898,-3.0898,-3.0898,-3.0898,-3.0898,-3.0898,-3.0703,-3.0283,-2.9131,-2.8125,0.0,-2.633,0.0,0.0,0.0,0.0,0.0,0.0,0.0,0.0,-3.3617,-3.4541,-3.4781,-3.5282,-3.5408,-3.4919,-3.4939,-3.5127,-3.5545,-3.5608,-3.5843,-3.6436,-3.8482,-3.9885,-3.9885,-4.192,-4.3305,-4.3275,-4.3305,-4.329,-4.329,-4.3275,-4.323,-4.3275,-4.3275,-4.3305,-4.3305,-4.3305,-4.3305,-4.3305,-4.3305,-4.3305,-4.3305,-4.3305,-4.3305,-4.3305,-4.329,-4.329,-4.3269,-4.307,-4.3311,-4.4804,-4.4779,-4.5163,-4.6394,-4.6722,-4.6464,-4.5359,-4.5021,-4.4902,-2.9577,-2.9453,-2.9499,-2.9394,-2.9326,-2.9336,-2.8926,-2.8301,-2.8301,-2.8301,-2.8301,-2.8301,-2.8301,-2.8301,-2.8301,-2.8301,-2.8301,-2.8301,-2.8301,-2.8301,-2.8301,-2.8301,-2.8301,-2.8301,-2.8301,-2.8301,-2.8301,-2.8301,-2.8301,-2.8301,-2.8301,-2.831,-2.8789,-2.9043,-2.9062,0.0,0.0,0.0,-3.0898,-3.0898,-3.0898,-3.0898,-3.0898,-3.0898,-3.0898,0.0,-3.0898,-3.0898,-3.0898,-3.0898,-3.0898,0.0,0.0,0.0,0.0,0.0,0.0,0.0,0.0,0.0,0.0,0.0,-3.3464,-3.4353,-3.378,-3.4682,-3.5299,-3.5357,-3.5893,-3.6216,-3.6116,-3.6091,-3.6094,-3.6194,-3.6254,-3.6304,-3.6487,-3.8482,-3.9885,-3.9929,-4.192,-4.329,-4.3305,-4.3305,-4.3305,-4.3305,-4.3305,-4.3305,-4.3305,-4.3305,-4.3305,-4.3305,-4.3305,-4.3305,-4.3305,-4.3305,-4.3305,-4.3305,-4.3305,-4.3305,-4.3305,-4.3305,-4.3305,-4.3329,-4.3859,-4.4332,-4.4802,-4.5955,-4.6684,-4.6613,-4.7175,-4.7428,-4.6549,-4.6363,-4.6363,-3.0088,0.0,-2.9883,-2.9756,0.0,-2.958,-2.9326,-2.8926,-2.8926,-2.8926,-2.8906,-2.8691,-2.8603,-2.8594,-2.8389,-2.8301,-2.8301,-2.8301,-2.8301,-2.8301,-2.8301,-2.8301,-2.8301,-2.8301,-2.8301,-2.8301,-2.8301,-2.8301,-2.8301,-2.8301,-2.8301,-2.8301,-2.8711,-2.8926,-2.8945,-2.956,-3.0098,-3.0547,-3.0771,-3.0898,-3.0898,-3.0898,-3.0898,-3.0898,0.0,0.0,0.0,0.0,0.0,0.0,0.0,0.0,0.0,0.0,0.0,-2.957,-2.9074,-2.8952,-2.9465,-3.0826,-3.2249,-3.3565,-3.588,-3.685,-3.5897,-3.6358,-3.6712,-3.6772,-3.701,-3.7061,-3.6797,-3.682,-3.6707,-3.6455,-3.6417,-3.6417,-3.6593,-3.7952,-3.9227,-3.9942,-4.1393,-4.2644,-4.325,-4.3305,-4.3305,-4.3305,-4.3305,-4.3305,-4.3305,-4.3305,-4.3305,-4.3305,-4.3305,-4.3305,-4.3305,-4.3305,-4.3305,-4.3305,-4.3305,-4.3305,-4.3305,-4.3305,-4.3305,-4.3329,-4.3747,-4.4182,-4.4796,-4.5957,-4.694,-4.7128,-4.7803,-4.8328,-4.7902,-4.731,-4.6786,-3.0674,-3.0322,-3.0332,-3.0127,-2.9805,-2.9861,-2.9805,-2.9795,0.0,0.0,0.0,-2.9189,-2.9033,-2.9014,-2.8672,-2.8525,-2.8516,-2.8516,-2.8516,-2.8516,-2.8525,-2.8516,-2.8516,-2.8516,-2.8516,-2.8516,-2.8525,-2.8467,-2.8398,-2.8408,-2.8359,-2.833,-2.8633,-2.8799,-2.8857,-2.958,-2.9971,-2.999,-3.0586,-3.0898,-3.0898,-3.0898,-3.0898,-3.0898,-3.0898,-3.0898,-3.0898,-3.0898,-3.0898,-3.0898,-3.0898,-3.0723,-3.0351,-3.0312,-3.0166,-2.9834,-2.9805,-2.9951,-3.035,-3.1952,-3.3812,-3.5922,-3.7907,-3.8718,-3.7892,-3.7916,-3.8002,-3.8002,-3.8002,-3.7801,-3.7374,-3.7324,-3.7149,-3.6744,-3.6694,-3.6707,-3.6754,-3.7712,-3.8978,-4.0071,-4.1312,-4.2378,-4.3518,-4.3589,-4.3469,-4.3454,-4.3394,-4.3305,-4.3305,-4.3305,-4.3305,-4.3305,-4.3305,-4.3305,-4.3305,-4.3305,-4.3305,-4.3305,-4.3305,-4.3305,-4.3305,-4.3305,-4.3305,-4.3305,-4.3305,-4.3747,-4.4624,-4.5597,-4.6504,-4.7406,-4.8338,-4.9018,-4.89,-4.8054,-4.7293,-3.085,-3.0801,-3.0791,-3.0762,-3.0703,-3.0703,-3.0713,-3.0644,-2.9959,-2.958,-2.957,-2.9512,-2.9482,-2.9473,-2.9424,-2.9385,-2.945,-2.945,-2.9394,0.0,-2.945,-2.945,-2.9394,-2.9394,-2.9385,-2.944,-2.9394,-2.9199,-2.8867,-2.8828,-2.8652,-2.834,-2.835,-2.8389,-2.8418,-2.8857,-2.9101,-2.9131,-3.0283,-3.0898,-3.0898,-3.0898,-3.0898,-3.0898,-3.0898,-3.0898,-3.0898,-3.0898,-3.0898,-3.0898,-3.0898,-3.0859,-3.0801,-3.0791,-3.0771,-3.0713,-3.0703,-3.0732,-3.0839,-3.3388,-3.6094,-3.8739,-3.9403,-3.9333,-3.8793,-3.8291,-3.8002,-3.8002,-3.8052,-3.7977,-3.7889,-3.7889,-3.7852,-3.7751,-3.7764,-3.7764,-3.7713,-3.8681,-3.9907,-4.1227,-4.2458,-4.3557,-4.4593,-4.4481,-4.4182,-4.4092,-4.3723,-4.3319,-4.3305,-4.3305,-4.3305,-4.3305,-4.3305,-4.3305,-4.3305,-4.3305,-4.3305,-4.3305,-4.3305,-4.3305,-4.3305,-4.3305,-4.3305,-4.3305,-4.3305,-4.3669,-4.4564,-4.5561,-4.6384,-4.7306,-4.8208,-4.8892,-4.897,-4.8731,-4.8595,-3.1094,-3.0898,-3.0898,-3.0898,-3.0898,-3.0898,-3.0898,-3.0859,-3.0459,-3.0293,-3.0254,-3.0019,-2.9902,-2.9883,-2.9668,-2.958,-2.958,-2.958,-2.958,-2.958,-2.958,-2.958,-2.958,-2.958,-2.958,-2.958,-2.958,-2.9528,-2.9287,-2.9277,-2.9053,-2.8643,-2.8408,-2.8301,-2.832,-2.8711,-2.8926,-2.8935,-2.9971,-3.0508,-3.0527,-3.0762,-3.0898,-3.0898,-3.0898,-3.0898,-3.0898,-3.0898,-3.0898,-3.0898,-3.0898,-3.0898,-3.0898,-3.0898,-3.0898,-3.0898,-3.0898,-3.0898,-3.0898,-3.3642,-3.6228,-3.8307,-3.9245,-3.9597,-3.9346,-3.9069,-3.8931,-3.8919,-3.8919,-3.8793,-3.8504,-3.8479,-3.8354,-3.804,-3.8002,-3.8002,-3.8052,-3.8432,-3.959,-4.1329,-4.2147,-4.3226,-4.5081,-4.5035,-4.484,-4.4796,-4.4231,-4.3763,-4.3364,-4.3305,-4.3305,-4.3305,-4.3305,-4.3305,-4.3305,-4.3305,-4.3305,-4.3305,-4.3305,-4.3305,-4.3305,-4.3305,-4.3305,-4.3305,-4.3305,-4.3472,-4.3966,-4.4743,-4.5742,-4.6678,-4.7589,-4.8289,-4.8798,-4.9018,-4.9018,-3.1475,-3.1172,-3.1064,-3.0976,-3.0898,-3.0898,-3.0898,-3.0898,-3.0889,-3.0898,-3.084,-3.0508,-3.0351,-3.0322,-3.001,-2.9873,-2.9863,-2.9863,-2.9863,-2.9863,-2.9873,-2.9873,-2.992,-2.9929,-2.9863,-2.9873,-2.9863,-2.9814,-2.9726,-2.9717,-2.9482,-2.9062,-2.8643,-2.8428,-2.8437,-2.8662,-2.8779,-2.8828,-2.9521,-3.001,-3.0205,-3.0557,-3.0781,-3.0889,-3.0898,-3.0898,-3.0898,-3.0898,-3.0898,-3.0898,-3.0898,-3.0898,-3.0898,-3.0898,-3.0898,-3.0898,-3.0898,-3.1054,-3.1498,-3.3821,-3.5945,-3.74,-3.8856,-3.9697,-3.9697,-3.9697,-3.9697,-3.9697,-3.9647,-3.9484,-3.9145,-3.9057,-3.8881,-3.8442,-3.8379,-3.8442,-3.8404,-3.8391,-3.9182,-4.1274,-4.1925,-4.2986,-4.4716,-4.5436,-4.5454,-4.5214,-4.4721,-4.4107,-4.3618,-4.3409,-4.3305,-4.3305,-4.3305,-4.3305,-4.3305,-4.3305,-4.3305,-4.3305,-4.3305,-4.3305,-4.3305,-4.3305,-4.3305,-4.3305,-4.3305,-4.3329,-4.3369,-4.4143,-4.5153,-4.6119,-4.7054,-4.795,-4.8829,-4.8815,-4.8748,-3.208,-3.2002,-3.1621,-3.124,-3.0918,-3.0908,-3.0908,-3.0898,-3.0898,-3.0898,-3.0879,-3.084,-3.081,-3.082,-3.0762,-3.0723,-3.0732,-3.0762,-3.0742,-3.0732,-3.0771,-3.0771,-3.0723,-3.0742,-3.0771,-3.0742,-3.0723,-3.0498,-3.0156,-3.0117,-2.9922,-2.9502,-2.9072,-2.8857,-2.8828,-2.8535,-2.8369,-2.8359,-2.8809,-2.9414,-3.0156,-3.0244,-3.0459,-3.0879,-3.0889,-3.0898,-3.0889,-3.0898,-3.0898,-3.0898,-3.0898,-3.0898,-3.0898,-3.0898,-3.0898,-3.0898,-3.0898,-3.1431,-3.2804,-3.4403,-3.5945,-3.7412,-3.8856,-3.9697,-3.9697,-3.9697,-3.9697,-3.9697,-3.9697,-3.9659,-3.9634,-3.9597,-3.9521,-3.9421,-3.9421,-3.9546,-3.9459,-3.9534,-4.0058,-4.1433,-4.2535,-4.3887,-4.5118,-4.5842,-4.5965,-4.5454,-4.4855,-4.4347,-4.4107,-4.3618,-4.3305,-4.3305,-4.3305,-4.3305,-4.3305,-4.3305,-4.3305,-4.3305,-4.3305,-4.3305,-4.3305,-4.3305,-4.3305,-4.3305,-4.3305,-4.3305,-4.3472,-4.4105,-4.5005,-4.6016,-4.6953,-4.7868,-4.8635,-4.846,-4.8071,-3.2393,-3.2148,-3.1973,-3.165,-3.1289,-3.126,-3.1123,-3.0898,-3.0898,-3.0898,-3.0898,-3.0898,-3.0898,-3.0898,-3.0898,-3.0898,-3.0898,-3.0898,-3.0898,-3.0898,-3.0898,-3.0898,-3.0898,-3.0898,-3.0898,-3.0898,-3.0898,-3.0791,-3.0586,-3.0332,-3.0107,-2.9912,-2.9521,-2.918,-2.8935,-2.875,-2.8555,-2.8301,-2.8457,-2.8838,-2.9394,-2.9697,-3.0029,-3.042,-3.0478,-3.0625,-3.0859,-3.0898,-3.0898,-3.0898,-3.0898,-3.0898,-3.0898,-3.0898,-3.0898,-3.0898,-3.0898,-3.117,-3.1767,-3.3968,-3.5563,-3.6162,-3.836,-3.9697,-3.9697,-3.9697,-3.9697,-3.9697,-3.9697,-3.9697,-3.9697,-3.9697,-3.9697,-3.9697,-3.9697,-3.9697,-3.9697,-3.9697,-4.0173,-4.1442,-4.2751,-4.3975,-4.5223,-4.627,-4.6535,-4.5992,-4.5319,-4.4766,-4.4377,-4.3708,-4.3349,-4.3305,-4.3305,-4.3305,-4.3305,-4.3305,-4.3305,-4.3305,-4.3305,-4.3305,-4.3305,-4.3305,-4.3305,-4.3305,-4.3305,-4.3305,-4.3305,-4.3615,-4.4305,-4.5663,-4.7046,-4.7908,-4.8298,-4.7767,-4.7208,-3.2793,-3.2519,-3.2393,-3.209,-3.1699,-3.1699,-3.1523,-3.124,-3.1123,-3.1064,-3.1055,-3.0947,-3.0898,-3.0898,-3.0898,-3.0898,-3.0898,-3.0898,-3.0898,-3.0898,-3.0898,-3.0898,-3.0898,-3.0898,-3.0898,-3.0898,-3.0898,-3.0889,-3.0859,-3.0566,-3.0391,-3.0322,-2.9951,-2.9521,-2.9121,-2.9004,-2.8711,-2.833,-2.8301,-2.8437,-2.875,-2.9062,-2.9473,-2.9961,-3.0019,-3.0234,-3.0674,-3.0693,-3.0762,-3.0889,-3.0898,-3.0898,-3.0898,-3.0898,-3.0898,-3.0898,-3.0898,-3.0898,-3.0937,-3.3642,-3.5288,-3.5508,-3.8043,-3.9697,-3.9697,-3.9697,-3.9697,-3.9697,-3.9697,-3.9697,-3.9697,-3.9697,-3.9697,-3.9697,-3.9697,-3.9697,-3.9697,-3.9697,-4.0032,-4.1019,-4.2084,-4.3646,-4.5161,-4.6462,-4.7055,-4.6621,-4.5828,-4.517,-4.4586,-4.3888,-4.3305,-4.3305,-4.3305,-4.3305,-4.3305,-4.3305,-4.3305,-4.3305,-4.3305,-4.3305,-4.3305,-4.3305,-4.3305,-4.3305,-4.3305,-4.3305,-4.3305,-4.3433,-4.3959,-4.5675,-4.6996,-4.7767,-4.799,-4.7192,-4.6413,-3.3389,-3.3291,-3.293,-3.2519,-3.2199,-3.2209,-3.2119,-3.2002,-3.166,-3.1484,-3.1406,-3.1074,-3.0898,-3.0898,-3.0898,-3.0898,-3.0898,-3.0898,-3.0898,-3.0898,-3.0898,-3.0898,-3.0898,-3.0898,-3.0898,-3.0898,-3.0898,-3.0898,-3.0889,-3.0859,-3.0859,-3.082,-3.0391,-2.9961,-2.9541,-2.915,-2.8721,-2.8389,-2.831,-2.831,-2.834,-2.8369,-2.8789,-2.9482,-2.9646,-2.9795,-3.0176,-3.0234,-3.043,-3.0869,-3.0889,-3.0898,-3.0898,-3.0898,-3.0898,-3.0898,-3.0898,-3.0898,-3.1228,-3.3529,-3.5233,-3.5617,-3.7873,-3.9645,-3.9697,-3.9697,-3.9697,-3.9697,-3.9697,-3.9697,-3.9697,-3.9697,-3.9697,-3.9697,-3.9697,-3.9697,-3.9697,-3.9697,-3.9697,-4.0032,-4.1082,-4.2834,-4.5055,-4.6491,-4.7106,-4.6922,-4.6112,-4.5259,-4.502,-4.4137,-4.3409,-4.3305,-4.3305,-4.3305,-4.3305,-4.3305,-4.3305,-4.3305,-4.3305,-4.3305,-4.3305,-4.3305,-4.3305,-4.3305,-4.3305,-4.3305,-4.3305,-4.3678,-4.4342,-4.5548,-4.6733,-4.7418,-4.7352,-4.6486,-4.5821,-3.3418,-3.3408,-3.3262,-3.2949,-3.2588,-3.2568,-3.2432,-3.2219,-3.2012,-3.1768,-3.1523,-3.1348,-3.1152,-3.0898,-3.0898,-3.0898,-3.0898,-3.0898,-3.0898,-3.0898,-3.0898,-3.0898,-3.0898,-3.0898,-3.0898,-3.0898,-3.0898,-3.0898,-3.0898,-3.0898,-3.0898,-3.0879,-3.0732,-3.042,-2.9971,-2.9551,-2.9131,-2.8721,-2.8437,-2.8301,-2.8301,-2.8301,-2.8457,-2.874,-2.9014,-2.9355,-2.9841,-3.0049,-3.0283,-3.0449,-3.0723,-3.0898,-3.0898,-3.0898,-3.0898,-3.0898,-3.0898,-3.0898,-3.1112,-3.2758,-3.4348,-3.5343,-3.7091,-3.8792,-3.9478,-3.9697,-3.9697,-3.9697,-3.9697,-3.9697,-3.9697,-3.9697,-3.9697,-3.9697,-3.9697,-3.9697,-3.9697,-3.9697,-3.9697,-3.989,-4.0844,-4.2606,-4.4642,-4.5824,-4.6403,-4.6986,-4.6142,-4.5409,-4.5095,-4.4167,-4.3305,-4.3305,-4.3305,-4.3305,-4.3305,-4.3305,-4.3305,-4.3305,-4.3305,-4.3305,-4.3305,-4.3305,-4.3305,-4.3305,-4.3305,-4.3305,-4.3344,-4.395,-4.4629,-4.5021,-4.6192,-4.6614,-4.6448,-4.5718,-4.5252,-3.3418,-3.3418,-3.3418,-3.3262,-3.3008,-3.2998,-3.2842,-3.2559,-3.2432,-3.2197,-3.1924,-3.165,-3.1348,-3.1094,-3.0957,-3.0898,-3.0898,-3.0898,-3.0898,-3.0898,-3.0898,-3.0898,-3.0898,-3.0898,-3.0898,-3.0898,-3.0898,-3.0898,-3.0898,-3.0898,-3.0898,-3.0889,-3.0898,-3.0664,-3.0205,-2.9841,-2.9346,-2.8926,-2.8506,-2.8301,-2.8301,-2.8301,-2.8301,-2.834,-2.8574,-2.8926,-2.9346,-2.9639,-2.9941,-3.0195,-3.0498,-3.0742,-3.0869,-3.0898,-3.0898,-3.0898,-3.0898,-3.0898,-3.1054,-3.2254,-3.3744,-3.5178,-3.6661,-3.8137,-3.9478,-3.9697,-3.9697,-3.9697,-3.9697,-3.9697,-3.9697,-3.9697,-3.9697,-3.9697,-3.9697,-3.9697,-3.9697,-3.9697,-3.9697,-3.9839,-4.0794,-4.2509,-4.4317,-4.507,-4.5973,-4.7106,-4.6142,-4.5349,-4.5125,-4.4212,-4.3305,-4.3305,-4.3305,-4.3305,-4.3305,-4.3305,-4.3305,-4.3305,-4.3305,-4.3305,-4.3305,-4.3305,-4.3305,-4.3305,-4.3305,-4.3305,-4.363,-4.422,-4.4505,-4.467,-4.5258,-4.5827,-4.549,-4.5036,-4.4818,-3.3418,-3.3418,-3.3418,-3.3408,-3.3359,-3.3359,-3.3389,-3.3262,-3.2949,-3.2744,-3.2549,-3.1934,-3.1592,-3.1406,-3.1113,-3.0928,-3.0898,-3.0898,-3.0898,-3.0898,-3.0898,-3.0898,-3.0898,-3.0898,-3.0898,-3.0898,-3.0898,-3.0898,-3.0898,-3.0898,-3.0898,-3.0898,-3.0898,-3.0693,-3.0234,-2.9853,-2.9394,-2.8984,-2.8574,-2.833,-2.8301,-2.8301,-2.8301,-2.8301,-2.833,-2.8525,-2.8906,-2.8965,-2.9365,-3.0019,-3.0166,-3.041,-3.0762,-3.0869,-3.0898,-3.0898,-3.0898,-3.0898,-3.1064,-3.215,-3.3462,-3.4958,-3.6541,-3.7861,-3.9089,-3.9581,-3.9697,-3.9697,-3.9697,-3.9697,-3.9697,-3.9697,-3.9697,-3.9697,-3.9697,-3.9697,-3.9697,-3.9697,-3.9697,-3.9839,-4.0693,-4.2035,-4.3313,-4.4456,-4.5598,-4.6417,-4.6072,-4.5289,-4.517,-4.4167,-4.3409,-4.3305,-4.3305,-4.3305,-4.3305,-4.3305,-4.3305,-4.3305,-4.3305,-4.3305,-4.3305,-4.3305,-4.3305,-4.3305,-4.3305,-4.3305,-4.3309,-4.3829,-4.385,-4.4089,-4.4666,-4.4926,-4.4646,-4.4336,-4.4592,-3.3418,-3.3418,-3.3418,-3.3418,-3.3418,-3.3418,-3.3418,-3.3408,-3.3271,-3.3076,-3.2773,-3.251,-3.209,-3.1592,-3.1367,-3.1172,-3.0898,-3.0898,-3.0898,-3.0898,-3.0898,-3.0898,-3.0898,-3.0898,-3.0898,-3.0898,-3.0898,-3.0898,-3.0898,-3.0898,-3.0898,-3.0898,-3.0898,-3.082,-3.0644,-3.0234,-2.9795,-2.9375,-2.8945,-2.8594,-2.833,-2.8301,-2.8301,-2.8301,-2.8301,-2.8359,-2.8486,-2.8769,-2.9043,-2.9346,-2.9609,-2.9961,-3.0371,-3.0723,-3.0889,-3.0898,-3.0898,-3.0898,-3.0947,-3.1325,-3.2254,-3.3687,-3.5167,-3.6595,-3.8072,-3.9129,-3.9645,-3.9697,-3.9697,-3.9697,-3.9697,-3.9697,-3.9697,-3.9697,-3.9697,-3.9697,-3.9697,-3.9697,-3.9697,-3.9749,-4.0083,-4.0831,-4.2021,-4.3313,-4.4581,-4.5768,-4.5529,-4.5221,-4.508,-4.4097,-4.3349,-4.3305,-4.3305,-4.3305,-4.3305,-4.3305,-4.3305,-4.3305,-4.3305,-4.3305,-4.3305,-4.3305,-4.3305,-4.3305,-4.3305,-4.3269,-4.3274,-4.3238,-4.3266,-4.3174,-4.3429,-4.3606,-4.3695,-4.3909,-4.4217,-3.3418,-3.3418,-3.3418,-3.3418,-3.3418,-3.3418,-3.3418,-3.3418,-3.3418,-3.3271,-3.3037,-3.2861,-3.2422,-3.1836,-3.1601,-3.1279,-3.0918,-3.0898,-3.0898,-3.0898,-3.0898,-3.0898,-3.0898,-3.0898,-3.0898,-3.0898,-3.0898,-3.0898,-3.0898,-3.0898,-3.0898,-3.0898,-3.0898,-3.0889,-3.084,-3.043,-2.999,-2.958,-2.9131,-2.8711,-2.8389,-2.8301,-2.8301,-2.8301,-2.8301,-2.8301,-2.831,-2.8555,-2.876,-2.8955,-2.9336,-2.9766,-3.0176,-3.0478,-3.0703,-3.0869,-3.0898,-3.0898,-3.0898,-3.0947,-3.1546,-3.3031,-3.4459,-3.5956,-3.7423,-3.8856,-3.9645,-3.9697,-3.9697,-3.9697,-3.9697,-3.9697,-3.9697,-3.9697,-3.9697,-3.9697,-3.9697,-3.9697,-3.9697,-3.9697,-3.9749,-4.0364,-4.1419,-4.2168,-4.3427,-4.461,-4.4807,-4.4763,-4.462,-4.3977,-4.3544,-4.3305,-4.3305,-4.3305,-4.3305,-4.3305,-4.3305,-4.3305,-4.3305,-4.3305,-4.3305,-4.3305,-4.3305,-4.3305,-4.3305,-4.306,-4.2995,-4.2764,-4.2674,-4.2498,-4.2287,-4.2563,-4.2846,-4.3515,-4.3885,-3.3418,-3.3418,-3.3418,-3.3418,-3.3418,-3.3418,-3.3418,-3.3418,-3.3418,-3.3408,-3.3301,-3.3037,-3.2588,-3.2139,-3.1768,-3.1367,-3.0957,-3.0898,-3.0898,-3.0898,-3.0898,-3.0898,-3.0898,-3.0898,-3.0898,-3.0898,-3.0898,-3.0898,-3.0898,-3.0898,-3.0898,-3.0898,-3.0898,-3.0898,-3.082,-3.0449,-3.0059,-2.9636,-2.918,-2.8789,-2.834,-2.8301,-2.8301,-2.8301,-2.8301,-2.8301,-2.8301,-2.835,-2.8506,-2.8877,-2.9248,-2.9629,-3.001,-3.0137,-3.0351,-3.0742,-3.084,-3.0859,-3.0869,-3.0898,-3.1383,-3.2701,-3.4348,-3.5836,-3.7091,-3.8635,-3.9697,-3.9697,-3.9697,-3.9697,-3.9697,-3.9697,-3.9697,-3.9697,-3.9697,-3.9697,-3.9697,-3.9697,-3.9697,-3.9697,-3.9736,-4.0121,-4.1219,-4.1505,-4.2562,-4.3607,-4.3832,-4.3945,-4.4124,-4.3858,-4.3424,-4.3305,-4.3305,-4.3305,-4.3305,-4.3305,-4.3305,-4.3305,-4.3305,-4.3305,-4.3305,-4.3305,-4.3305,-4.3305,-4.326,-4.2985,-4.2611,-4.2381,-4.1826,-4.1299,-4.1341,-4.165,-4.2252,-4.3007,-4.3676,-3.3418,-3.3418,-3.3418,-3.3418,-3.3418,-3.3418,-3.3418,-3.3418,-3.3418,-3.3418,-3.3379,-3.3301,-3.2832,-3.2258,-3.2041,-3.1601,-3.1035,-3.0898,-3.0898,-3.0898,-3.0898,-3.0898,-3.0898,-3.0898,-3.0898,-3.0898,-3.0898,-3.0898,-3.0898,-3.0898,-3.0898,-3.0898,-3.0898,-3.0898,-3.085,-3.0752,-3.0293,-2.9724,-2.9482,-2.9014,-2.8398,-2.8301,-2.8301,-2.8301,-2.8301,-2.8301,-2.8301,-2.8301,-2.833,-2.8467,-2.8867,-2.9121,-2.9307,-2.958,-2.9941,-3.0332,-3.042,-3.0557,-3.082,-3.0898,-3.1112,-3.1604,-3.381,-3.5453,-3.589,-3.8255,-3.9478,-3.9697,-3.9697,-3.9697,-3.9697,-3.9697,-3.9697,-3.9697,-3.9697,-3.9697,-3.9697,-3.9697,-3.9697,-3.9697,-3.9697,-3.9942,-4.0313,-4.1043,-4.1879,-4.2773,-4.3229,-4.3544,-4.3808,-4.3753,-4.3305,-4.3305,-4.3305,-4.3305,-4.3305,-4.3305,-4.3305,-4.3305,-4.3305,-4.3305,-4.3305,-4.3305,-4.3305,-4.3305,-4.3305,-4.312,-4.2491,-4.2051,-4.1242,-4.0472,-4.0598,-4.1038,-4.193,-4.2724,-4.3406,-3.3418,-3.3418,-3.3418,-3.3418,-3.3418,-3.3418,-3.3418,-3.3418,-3.3418,-3.3418,-3.3418,-3.3418,-3.2959,-3.2278,-3.2158,-3.1689,-3.0967,-3.0898,-3.0898,-3.0898,-3.0898,-3.0898,-3.0898,-3.0898,-3.0898,-3.0898,-3.0898,-3.0898,-3.0898,-3.0898,-3.0898,-3.0898,-3.0898,-3.0898,-3.0898,-3.0869,-3.0449,-2.9783,-2.9607,-2.916,-2.8369,-2.8301,-2.8301,-2.8301,-2.8301,-2.8301,-2.8301,-2.8301,-2.8301,-2.835,-2.8535,-2.873,-2.8916,-2.915,-2.958,-3.0117,-3.0205,-3.041,-3.0781,-3.0898,-3.0898,-3.1276,-3.3145,-3.4526,-3.5519,-3.7489,-3.8856,-3.9581,-3.9697,-3.9697,-3.9697,-3.9697,-3.9697,-3.9697,-3.9697,-3.9697,-3.9697,-3.9697,-3.9697,-3.9697,-3.9697,-3.9697,-3.9697,-4.0402,-4.112,-4.1854,-4.2356,-4.2941,-4.3556,-4.3358,-4.3305,-4.3305,-4.3305,-4.3305,-4.3305,-4.3305,-4.3305,-4.3305,-4.3305,-4.3305,-4.3305,-4.3305,-4.3305,-4.3305,-4.3305,-4.3021,-4.2297,-4.1632,-4.0965,-4.0461,-4.036,-4.0512,-4.1377,-4.1853,-4.2621,-3.3418,-3.3418,-3.3418,-3.3418,-3.3418,-3.3418,-3.3418,-3.3418,-3.3418,-3.3418,-3.3398,-3.3369,-3.2861,-3.2178,-3.2051,-3.165,-3.0898,-3.0898,-3.0898,-3.0898,-3.0898,-3.0898,-3.0898,-3.0898,-3.0898,-3.0898,-3.0898,-3.0898,-3.0898,-3.0898,-3.0898,-3.0898,-3.0898,-3.0898,-3.0898,-3.0889,-3.04,-2.9736,-2.958,-2.9141,-2.8457,-2.8301,-2.8301,-2.8301,-2.8301,-2.8301,-2.8301,-2.8301,-2.8301,-2.8301,-2.8301,-2.8496,-2.8799,-2.8848,-2.9219,-2.9795,-2.9961,-3.0176,-3.0684,-3.0752,-3.084,-3.1131,-3.2311,-3.3575,-3.4958,-3.6595,-3.8137,-3.9129,-3.9581,-3.9697,-3.9697,-3.9697,-3.9697,-3.9697,-3.9697,-3.9697,-3.9697,-3.9697,-3.9697,-3.9697,-3.9697,-3.9697,-3.9697,-3.9802,-4.0131,-4.1301,-4.1737,-4.2332,-4.3023,-4.3263,-4.323,-4.3305,-4.3305,-4.3305,-4.3305,-4.3305,-4.3305,-4.3305,-4.3305,-4.3305,-4.3305,-4.3305,-4.3305,-4.3305,-4.3305,-4.2761,-4.1788,-4.1145,-4.0711,-4.0149,-3.9838,-4.0111,-4.0538,-4.0749,-4.1278,-3.3418,-3.3418,-3.3418,-3.3418,-3.3418,-3.3418,-3.3418,-3.3418,-3.3418,-3.3418,-3.335,-3.3086,-3.2646,-3.2148,-3.1836,-3.1367,-3.0928,-3.0898,-3.0898,-3.0898,-3.0898,-3.0898,-3.0898,-3.0898,-3.0898,-3.0898,-3.0898,-3.0898,-3.0898,-3.0898,-3.0898,-3.0898,-3.0898,-3.0898,-3.0898,-3.0869,-3.0459,-2.9783,-2.958,-2.9141,-2.8467,-2.8301,-2.8301,-2.8301,-2.8301,-2.8301,-2.8301,-2.8301,-2.8301,-2.8301,-2.8301,-2.8359,-2.8447,-2.8467,-2.874,-2.9131,-2.9277,-2.956,-3.0156,-3.0381,-3.0518,-3.0965,-3.2072,-3.3237,-3.3631,-3.5988,-3.7412,-3.819,-3.8973,-3.9645,-3.9697,-3.9697,-3.9697,-3.9697,-3.9697,-3.9697,-3.9697,-3.9697,-3.9697,-3.9697,-3.9697,-3.9697,-3.9697,-3.9697,-4.0081,-4.0746,-4.1257,-4.1798,-4.2395,-4.2953,-4.314,-4.317,-4.3305,-4.3305,-4.3305,-4.3305,-4.3305,-4.3305,-4.3305,-4.3305,-4.3305,-4.3305,-4.3305,-4.3305,-4.3305,-4.2536,-4.1602,-4.119,-4.0846,-4.0098,-3.9424,-3.9829,-4.0093,-4.0031,-3.9787,-3.3418,-3.3418,-3.3418,-3.3418,-3.3418,-3.3418,-3.3418,-3.3418,-3.3418,-3.3418,-3.333,-3.2988,-3.2568,-3.2209,-3.1709,-3.1289,-3.0967,-3.0898,-3.0898,-3.0898,-3.0898,-3.0898,-3.0898,-3.0898,-3.0898,-3.0898,-3.0898,-3.0898,-3.0898,-3.0898,-3.0898,-3.0898,-3.0898,-3.0898,-3.0898,-3.0879,-3.041,-2.9802,-2.956,-2.916,-2.8437,-2.8301,-2.8301,-2.8301,-2.8301,-2.8301,-2.8301,-2.8301,-2.8301,-2.8301,-2.8301,-2.8301,-2.8301,-2.8301,-2.8506,-2.8828,-2.8935,-2.9209,-2.9746,-3.0098,-3.0312,-3.0547,-3.1569,-3.2348,-3.3247,-3.5222,-3.6703,-3.7583,-3.8752,-3.9697,-3.9697,-3.9697,-3.9697,-3.9697,-3.9697,-3.9697,-3.9697,-3.9697,-3.9697,-3.9697,-3.9697,-3.9697,-3.9697,-3.9697,-3.9994,-4.0565,-4.0378,-4.0918,-4.2052,-4.2575,-4.2843,-4.2981,-4.321,-4.3305,-4.3305,-4.3305,-4.3305,-4.3305,-4.3305,-4.3305,-4.3305,-4.3305,-4.3305,-4.326,-4.317,-4.2447,-4.1647,-4.1294,-4.0756,-3.9933,-3.9481,-3.9702,-3.9647,-3.9358,-3.896,-3.3418,-3.3418,-3.3418,-3.3418,-3.3418,-3.3418,-3.3418,-3.3418,-3.3418,-3.3369,-3.3232,-3.2881,-3.2402,-3.2021,-3.1592,-3.1211,-3.0986,-3.0898,-3.0898,-3.0898,-3.0898,-3.0898,-3.0898,-3.0898,-3.0898,-3.0898,-3.0898,-3.0898,-3.0898,-3.0898,-3.0898,-3.0898,-3.0898,-3.0898,-3.0898,-3.0762,-3.0361,-2.9668,-2.9434,-2.9072,-2.8428,-2.8301,-2.8301,-2.8301,-2.8301,-2.8301,-2.8301,-2.8301,-2.8301,-2.8301,-2.8301,-2.8301,-2.8301,-2.832,-2.8418,-2.8799,-2.8769,-2.9004,-2.9385,-2.9746,-2.998,-3.0146,-3.0575,-3.1409,-3.2659,-3.4292,-3.5836,-3.7198,-3.8413,-3.9697,-3.9697,-3.9697,-3.9697,-3.9697,-3.9697,-3.9697,-3.9697,-3.9697,-3.9697,-3.9697,-3.9697,-3.9697,-3.9697,-3.9736,-4.0031,-4.0244,-4.0009,-4.0254,-4.1423,-4.2147,-4.2424,-4.2941,-4.321,-4.3305,-4.3305,-4.3305,-4.3305,-4.3305,-4.3305,-4.3305,-4.3305,-4.3305,-4.3275,-4.3165,-4.2865,-4.2162,-4.1557,-4.101,-4.0412,-3.9642,-3.9415,-3.9484,-3.9178,-3.8676,-3.8217,-3.3418,-3.3418,-3.3418,-3.3418,-3.3418,-3.3418,-3.3418,-3.3418,-3.3398,-3.3213,-3.2871,-3.2461,-3.2031,-3.1631,-3.1191,-3.0947,-3.0908,-3.0898,-3.0898,-3.0898,-3.0898,-3.0898,-3.0898,-3.0898,-3.0898,-3.0898,-3.0898,-3.0898,-3.0898,-3.0898,-3.0898,-3.0898,-3.0898,-3.0898,-3.0781,-3.0518,-3.0137,-2.96,-2.9268,-2.8809,-2.8428,-2.8301,-2.8301,-2.8301,-2.8301,-2.8301,-2.8301,-2.8301,-2.8301,-2.8301,-2.8301,-2.8301,-2.8301,-2.8301,-2.835,-2.8418,-2.8467,-2.8662,-2.8994,-2.9121,-2.9541,-2.999,-3.0303,-3.0537,-3.1741,-3.3642,-3.5233,-3.6499,-3.8202,-3.9697,-3.9697,-3.9697,-3.9697,-3.9697,-3.9697,-3.9697,-3.9697,-3.9697,-3.9697,-3.9697,-3.9697,-3.9697,-3.9697,-3.9697,-3.9841,-3.9966,-3.976,-4.0285,-4.1363,-4.1838,-4.2009,-4.2633,-4.3265,-4.3305,-4.3305,-4.3305,-4.3305,-4.3305,-4.3305,-4.3305,-4.3305,-4.3305,-4.323,-4.303,-4.2641,-4.2096,-4.1467,-4.0801,-4.0187,-3.9523,-3.9364,-3.923,-3.8781,-3.8302,-3.7584,-3.3418,-3.3418,-3.3418,-3.3418,-3.3418,-3.3418,-3.3418,-3.3389,-3.3193,-3.2988,-3.2646,-3.2139,-3.1728,-3.1445,-3.1084,-3.0898,-3.0898,-3.0898,-3.0898,-3.0898,-3.0898,-3.0898,-3.0898,-3.0898,-3.0898,-3.0898,-3.0898,-3.0898,-3.0898,-3.0898,-3.0898,-3.0898,-3.0898,-3.0898,-3.0791,-3.0439,-2.999,-2.957,-2.9141,-2.8711,-2.834,-2.8301,-2.8301,-2.8301,-2.8301,-2.8301,-2.8301,-2.8301,-2.8301,-2.8301,-2.8301,-2.8301,-2.8301,-2.8301,-2.8301,-2.8301,-2.8301,-2.8359,-2.8613,-2.8769,-2.915,-2.9482,-2.9893,-3.0264,-3.1025,-3.2684,-3.4825,-3.6553,-3.8096,-3.9697,-3.9697,-3.9697,-3.9697,-3.9697,-3.9697,-3.9697,-3.9697,-3.9697,-3.9697,-3.9697,-3.9697,-3.9697,-3.9697,-3.9697,-3.9697,-3.9613,-3.9471,-4.0228,-4.1218,-4.1141,-4.1114,-4.247,-4.317,-4.3305,-4.3305,-4.3305,-4.3305,-4.3305,-4.3305,-4.3305,-4.3305,-4.3305,-4.3075,-4.2746,-4.2351,-4.1856,-4.125,-4.0606,-4.0038,-3.9493,-3.9388,-3.917,-3.8527,-3.7883,-3.7225,-3.3418,-3.3418,-3.3418,-3.3418,-3.3408,-3.332,-3.3281,-3.3213,-3.2842,-3.2588,-3.2441,-3.1855,-3.1484,-3.1318,-3.1084,-3.0898,-3.0898,-3.0898,-3.0898,-3.0898,-3.0898,-3.0898,-3.0898,-3.0898,-3.0898,-3.0898,-3.0898,-3.0898,-3.0898,-3.0898,-3.0898,-3.0898,-3.0898,-3.0898,-3.0801,-3.0303,-2.9912,-2.9531,-2.9033,-2.8603,-2.8379,-2.8301,-2.8301,-2.8301,-2.8301,-2.8301,-2.8301,-2.8301,-2.8301,-2.8301,-2.8301,-2.8301,-2.8301,-2.8301,-2.8301,-2.8301,-2.8301,-2.8301,-2.8389,-2.8555,-2.8809,-2.9072,-2.957,-2.9922,-3.0863,-3.2534,-3.4781,-3.7145,-3.8804,-3.9697,-3.9697,-3.9697,-3.9697,-3.9697,-3.9697,-3.9697,-3.9697,-3.9697,-3.9697,-3.9697,-3.9697,-3.9697,-3.9697,-3.9697,-3.9697,-3.9534,-3.9398,-3.9641,-4.0388,-3.9787,-4.0141,-4.1997,-4.2996,-4.325,-4.3305,-4.3305,-4.3305,-4.3305,-4.3305,-4.3305,-4.3305,-4.3305,-4.2985,-4.2611,-4.1991,-4.1482,-4.092,-4.0412,-3.9828,-3.9433,-3.9403,-3.897,-3.8197,-3.7659,-3.712,-3.3418,-3.3418,-3.3408,-3.3418,-3.335,-3.3027,-3.2871,-3.2812,-3.2422,-3.2012,-3.1777,-3.1562,-3.1289,-3.1045,-3.0957,-3.0898,-3.0898,-3.0898,-3.0898,-3.0898,-3.0898,-3.0898,-3.0898,-3.0898,-3.0898,-3.0898,-3.0898,-3.0898,-3.0898,-3.0898,-3.0898,-3.0898,-3.0898,-3.0869,-3.0723,-3.0098,-2.9648,-2.9434,-2.8789,-2.8369,-2.831,-2.8301,-2.8301,-2.8301,-2.8301,-2.8301,-2.8301,-2.8301,-2.8301,-2.8301,-2.8301,-2.8301,-2.8301,-2.8301,-2.8301,-2.8301,-2.8301,-2.8301,-2.831,-2.8398,-2.8555,-2.8789,-2.9092,-2.9482,-3.0651,-3.2833,-3.521,-3.7252,-3.8752,-3.9581,-3.9645,-3.9697,-3.9697,-3.9697,-3.9697,-3.9697,-3.9697,-3.9697,-3.9697,-3.9697,-3.9697,-3.9697,-3.9697,-3.9697,-3.9672,-3.9496,-3.9411,-3.9625,-3.9794,-3.9508,-3.8925,-4.0672,-4.2684,-4.3115,-4.3036,-4.3076,-4.325,-4.3265,-4.3305,-4.3305,-4.3305,-4.3245,-4.297,-4.2506,-4.1833,-4.1175,-4.0666,-4.0157,-3.9582,-3.9388,-3.9388,-3.8656,-3.7719,-3.73,-3.7011,-3.2988,-3.3398,-3.3164,-3.3066,-3.3008,-3.2617,-3.2441,-3.2344,-3.1992,-3.1699,-3.1494,-3.125,-3.1055,-3.0918,-3.0898,-3.0898,-3.0898,-3.0898,-3.0898,-3.0898,-3.0898,-3.0898,-3.0898,-3.0898,-3.0898,-3.0898,-3.0898,-3.0898,-3.0898,-3.0898,-3.0898,-3.0898,-3.0869,-3.0713,-3.0537,-2.9893,-2.9482,-2.9111,-2.8643,-2.832,-2.8301,-2.8301,-2.8301,-2.8301,-2.8301,-2.8301,-2.8301,-2.8301,-2.8301,-2.8301,-2.8301,-2.8301,-2.8301,-2.8301,-2.8301,-2.8301,-2.8301,-2.8301,-2.8301,-2.8301,-2.8418,-2.8574,-2.8828,-2.9326,-3.0442,-3.2284,-3.4483,-3.6097,-3.7583,-3.8687,-3.9465,-3.9697,-3.9697,-3.9697,-3.9697,-3.9697,-3.9697,-3.9697,-3.9697,-3.9697,-3.9697,-3.9697,-3.9697,-3.9697,-3.9697,-3.9622,-3.9511,-3.9597,-4.0105,-4.0474,-3.9724,-3.9162,-4.1239,-4.3021,-4.282,-4.2684,-4.3076,-4.317,-4.3305,-4.3305,-4.3305,-4.317,-4.2768,-4.2384,-4.178,-4.116,-4.0479,-3.9978,-3.9448,-3.9388,-3.9388,-3.8596,-3.7853,-3.7336,-3.6899,-3.2539,-3.3066,-3.2773,-3.2637,-3.2598,-3.2187,-3.2012,-3.1953,-3.1553,-3.1357,-3.1289,-3.1045,-3.0908,-3.0898,-3.0898,-3.0898,-3.0898,-3.0898,-3.0898,-3.0898,-3.0898,-3.0898,-3.0898,-3.0898,-3.0898,-3.0898,-3.0898,-3.0898,-3.0898,-3.0898,-3.0898,-3.0898,-3.0898,-3.0635,-3.0215,-2.9775,-2.9355,-2.875,-2.8467,-2.8301,-2.8301,-2.8301,-2.8301,-2.8301,-2.8301,-2.8301,-2.8301,-2.8301,-2.8301,-2.8301,-2.8301,-2.8301,-2.8301,-2.8301,-2.8301,-2.8301,-2.8301,-2.8301,-2.8301,-2.8301,-2.8301,-2.8428,-2.8672,-2.917,-2.9882,-3.1344,-3.278,-3.4483,-3.6657,-3.7942,-3.8856,-3.9362,-3.9697,-3.9697,-3.9697,-3.9697,-3.9697,-3.9697,-3.9697,-3.9697,-3.9697,-3.9697,-3.9697,-3.9697,-3.9697,-3.9697,-3.9651,-3.96,-3.9904,-4.045,-3.9823,-3.8827,-4.1028,-4.2548,-4.1864,-4.1947,-4.2482,-4.286,-4.2955,-4.2699,-4.2345,-4.242,-4.2294,-4.1908,-4.1418,-4.066,-3.9744,-3.9535,-3.9388,-3.9388,-3.9284,-3.8781,-3.8133,-3.7456,-3.6507,-3.2258,-3.2307,-3.2217,-3.2268,-3.2178,-3.1738,-3.1562,-3.1543,-3.1133,-3.0986,-3.0996,-3.0908,-3.0898,-3.0898,-3.0898,-3.0898,-3.0898,-3.0898,-3.0898,-3.0898,-3.0898,-3.0898,-3.0898,-3.0898,-3.0898,-3.0898,-3.0898,-3.0898,-3.0898,-3.0898,-3.0898,-3.0889,-3.0771,-3.0547,-3.0117,-2.958,-2.9053,-2.8555,-2.832,-2.8301,-2.8301,-2.8301,-2.8301,-2.8301,-2.8301,-2.8301,-2.8301,-2.8301,-2.8301,-2.8301,-2.8301,-2.8301,-2.8301,-2.8301,-2.8301,-2.8301,-2.8301,-2.8301,-2.8301,-2.8301,-2.8301,-2.8408,-2.8623,-2.8916,-2.9274,-3.1136,-3.2332,-3.301,-3.5303,-3.7056,-3.7967,-3.8675,-3.9245,-3.9697,-3.9697,-3.9697,-3.9697,-3.9697,-3.9697,-3.9697,-3.9697,-3.9697,-3.9697,-3.9697,-3.9697,-3.9697,-3.9408,-3.9348,-3.9038,-3.9296,-3.9042,-3.9077,-4.1253,-4.1864,-4.0618,-4.0788,-4.1616,-4.1823,-4.1838,-4.1309,-4.0703,-4.0971,-4.1468,-4.0963,-4.0386,-3.9664,-3.9049,-3.869,-3.8648,-3.9171,-3.9092,-3.8322,-3.7263,-3.6198,-3.5282,-3.1387,-3.1377,-3.1387,-3.1533,-3.1738,-3.1309,-3.1133,-3.1103,-3.0957,-3.0898,-3.0898,-3.0898,-3.0898,-3.0898,-3.0898,-3.0898,-3.0898,-3.0898,-3.0898,-3.0898,-3.0898,-3.0898,-3.0898,-3.0898,-3.0898,-3.0898,-3.0898,-3.0898,-3.0898,-3.0859,-3.0654,-3.0566,-3.0459,-3.0176,-2.9766,-2.9209,-2.8662,-2.8457,-2.8301,-2.8301,-2.8301,-2.8301,-2.8301,-2.8301,-2.8301,-2.8301,-2.8301,-2.8301,-2.8301,-2.8301,-2.8301,-2.8301,-2.8301,-2.8301,-2.8301,-2.8301,-2.8301,-2.8301,-2.8301,-2.8301,-2.8301,-2.831,-2.8457,-2.8633,-2.8857,-3.0118,-3.1318,-3.2496,-3.38,-3.5406,-3.7465,-3.8019,-3.8518,-3.931,-3.9697,-3.9697,-3.9697,-3.9697,-3.9697,-3.9697,-3.9697,-3.9697,-3.9697,-3.9697,-3.9697,-3.9672,-3.9346,-3.9007,-3.8741,-3.845,-3.8345,-3.84,-4.0304,-4.059,-3.9346,-3.9915,-4.0831,-4.0746,-4.0632,-4.0189,-3.9711,-4.0045,-4.035,-3.9873,-3.9353,-3.868,-3.8126,-3.7714,-3.7706,-3.7895,-3.7866,-3.754,-3.6335,-3.5058,-3.415,-3.0898,-3.0898,-3.0898,-3.1064,-3.1279,-3.1016,-3.0898,-3.0898,-3.0898,-3.0898,-3.0898,-3.0898,-3.0898,-3.0898,-3.0898,-3.0898,-3.0898,-3.0898,-3.0898,-3.0898,-3.0898,-3.0898,-3.0898,-3.0898,-3.0898,-3.0898,-3.0898,-3.0898,-3.0889,-3.0762,-3.0518,-3.0244,-2.9932,-2.9609,-2.9307,-2.8711,-2.8301,-2.8301,-2.8301,-2.8301,-2.8301,-2.8301,-2.8301,-2.8301,-2.8301,-2.8301,-2.8301,-2.8301,-2.8301,-2.8301,-2.8301,-2.8301,-2.8301,-2.8301,-2.8301,-2.8301,-2.8301,-2.8301,-2.8301,-2.8301,-2.8301,-2.8301,-2.831,-2.8476,-2.874,-2.9131,-3.0158,-3.1248,-3.2396,-3.3962,-3.6622,-3.7305,-3.8307,-3.9297,-3.9645,-3.9697,-3.9697,-3.9697,-3.9697,-3.9697,-3.9697,-3.9697,-3.9697,-3.9697,-3.9697,-3.9597,-3.9245,-3.8856,-3.8412,-3.8197,-3.8044,-3.8221,-3.8872,-3.8604,-3.7984,-3.9183,-4.0059,-3.9094,-3.905,-3.9227,-3.905,-3.9271,-3.9169,-3.8678,-3.816,-3.7629,-3.7222,-3.6803,-3.6563,-3.6408,-3.6476,-3.6606,-3.5564,-3.4289,-3.3275,-3.0898,-3.0898,-3.0898,-3.0908,-3.0947,-3.0908,-3.0898,-3.0898,-3.0898,-3.0898,-3.0898,-3.0898,-3.0898,-3.0898,-3.0898,-3.0898,-3.0898,-3.0898,-3.0898,-3.0898,-3.0898,-3.0898,-3.0898,-3.0898,-3.0898,-3.0898,-3.0879,-3.0879,-3.082,-3.0508,-3.0264,-2.9873,-2.9385,-2.9004,-2.8896,-2.8525,-2.831,-2.8301,-2.8301,-2.8301,-2.8301,-2.8301,-2.8301,-2.8301,-2.8301,-2.8301,-2.8301,-2.8301,-2.8301,-2.8301,-2.8301,-2.8301,-2.8301,-2.8301,-2.8301,-2.8301,-2.8301,-2.8301,-2.8301,-2.8301,-2.8301,-2.8301,-2.8301,-2.835,-2.8418,-2.873,-2.9254,-3.0404,-3.1314,-3.3149,-3.5021,-3.6595,-3.7861,-3.9193,-3.9581,-3.9697,-3.9697,-3.9697,-3.9697,-3.9697,-3.9697,-3.9697,-3.9697,-3.9697,-3.9697,-3.9534,-3.9157,-3.8768,-3.8288,-3.8028,-3.789,-3.7593,-3.7861,-3.7691,-3.7599,-3.8751,-3.9152,-3.8056,-3.7566,-3.7861,-3.7952,-3.7939,-3.7753,-3.7466,-3.6951,-3.6435,-3.6142,-3.5899,-3.5507,-3.5183,-3.5614,-3.5567,-3.4535,-3.3533,-3.2515,-3.0898,-3.0898,-3.0898,-3.0898,-3.0898,-3.0898,-3.0898,-3.0898,-3.0898,-3.0898,-3.0898,-3.0898,-3.0898,-3.0898,-3.0898,-3.0898,-3.0898,-3.0898,-3.0898,-3.0898,-3.0898,-3.0898,-3.0898,-3.0898,-3.0898,-3.0889,-3.0869,-3.0664,-3.041,-3.0166,-2.9766,-2.9336,-2.8896,-2.8545,-2.8486,-2.833,-2.8301,-2.8301,-2.8301,-2.8301,-2.8301,-2.8301,-2.8301,-2.8301,-2.8301,-2.8301,-2.8301,-2.8301,-2.8301,-2.8301,-2.8301,-2.8301,-2.8301,-2.8301,-2.8301,-2.8301,-2.8301,-2.8301,-2.8301,-2.8301,-2.8301,-2.8301,-2.8301,-2.8301,-2.834,-2.8691,-2.9101,-2.9558,-3.0436,-3.241,-3.477,-3.554,-3.6823,-3.9025,-3.9697,-3.9697,-3.9697,-3.9697,-3.9697,-3.9697,-3.9697,-3.9697,-3.9697,-3.9697,-3.9697,-3.9697,-3.9396,-3.8755,-3.8252,-3.8,-3.7779,-3.702,-3.6849,-3.6849,-3.7116,-3.7919,-3.8192,-3.7302,-3.6862,-3.6849,-3.6849,-3.693,-3.6823,-3.6792,-3.5955,-3.5213,-3.5033,-3.4816,-3.4276,-3.4095,-3.4526,-3.4385,-3.3432,-3.2578,-3.1702,-3.0898,-3.0898,-3.0898,-3.0898,-3.0898,-3.0898,-3.0898,-3.0898,-3.0898,-3.0898,-3.0898,-3.0898,-3.0898,-3.0898,-3.0898,-3.0898,-3.0898,-3.0898,-3.0898,-3.0898,-3.0898,-3.0898,-3.0898,-3.0898,-3.0898,-3.0859,-3.0684,-3.0459,-3.0215,-2.9883,-2.9375,-2.8818,-2.8437,-2.8369,-2.832,-2.8301,-2.8301,-2.8301,-2.8301,-2.8301,-2.8301,-2.8301,-2.8301,-2.8301,-2.8301,-2.8301,-2.8301,-2.8301,-2.8301,-2.8301,-2.8301,-2.8301,-2.8301,-2.8301,-2.8301,-2.8301,-2.8301,-2.8301,-2.8301,-2.8301,-2.8301,-2.8301,-2.8301,-2.8301,-2.832,-2.8525,-2.8877,-2.9277,-2.9736,-3.1574,-3.3778,-3.4428,-3.6356,-3.8558,-3.9581,-3.9581,-3.9697,-3.9697,-3.9697,-3.9697,-3.9697,-3.9697,-3.9697,-3.9697,-3.9697,-3.9697,-3.9659,-3.8931,-3.8253,-3.8002,-3.7626,-3.6883,-3.6452,-3.6546,-3.6546,-3.6722,-3.6815,-3.6452,-3.6417,-3.6417,-3.6452,-3.6628,-3.6386,-3.6056,-3.5461,-3.4812,-3.418,-3.3726,-3.3563,-3.3398,-3.3471,-3.3081,-3.2303,-3.1825,-3.1311,-3.0898,-3.0898,-3.0898,-3.0898,-3.0898,-3.0898,-3.0898,-3.0898,-3.0898,-3.0898,-3.0898,-3.0898,-3.0898,-3.0898,-3.0898,-3.0898,-3.0898,-3.0898,-3.0898,-3.0898,-3.0898,-3.0898,-3.0898,-3.0898,-3.082,-3.0684,-3.0488,-3.0215,-3.0049,-2.9385,-2.876,-2.8447,-2.834,-2.8301,-2.8301,-2.8301,-2.8301,-2.8301,-2.8301,-2.8301,-2.8301,-2.8301,-2.8301,-2.8301,-2.8301,-2.8301,-2.8301,-2.8301,-2.8301,-2.8301,-2.8301,-2.8301,-2.8301,-2.8301,-2.8301,-2.8301,-2.8301,-2.8301,-2.8301,-2.8301,-2.8301,-2.8301,-2.8301,-2.8301,-2.831,-2.8389,-2.8652,-2.8975,-2.9421,-3.0908,-3.2488,-3.4241,-3.5962,-3.7642,-3.9129,-3.9413,-3.9645,-3.9697,-3.9697,-3.9697,-3.9697,-3.9697,-3.9697,-3.9697,-3.9697,-3.9697,-3.9572,-3.9007,-3.8391,-3.8078,-3.7588,-3.6757,-3.6405,-3.6417,-3.6417,-3.6417,-3.6417,-3.6417,-3.6417,-3.6417,-3.6417,-3.6392,-3.6304,-3.5943,-3.5203,-3.4562,-3.3997,-3.3545,-3.3255,-3.3124,-3.3124,-3.2943,-3.2566,-3.2001,-3.1461,-3.0898,-3.0898,-3.0898,-3.0898,-3.0898,-3.0898,-3.0898,-3.0898,-3.0898,-3.0898,-3.0898,-3.0898,-3.0898,-3.0898,-3.0898,-3.0898,-3.0898,-3.0898,-3.0898,-3.0898,-3.0898,-3.0898,-3.0879,-3.085,-3.0693,-3.0449,-3.0195,-2.9834,-2.9316,-2.8701,-2.8486,-2.832,-2.8301,-2.8301,-2.8301,-2.8301,-2.8301,-2.8301,-2.8301,-2.8301,-2.8301,-2.8301,-2.8301,-2.8301,-2.8301,-2.8301,-2.8301,-2.8301,-2.8301,-2.8301,-2.8301,-2.8301,-2.8301,-2.8301,-2.8301,-2.8301,-2.8301,-2.8301,-2.8301,-2.8301,-2.8301,-2.8301,-2.8301,-2.8301,-2.8301,-2.834,-2.8486,-2.8779,-2.9108,-3.0354,-3.2148,-3.3987,-3.5741,-3.734,-3.8745,-3.953,-3.9697,-3.9697,-3.9697,-3.9697,-3.9697,-3.9697,-3.9697,-3.9697,-3.9697,-3.9697,-3.9471,-3.8956,-3.8479,-3.8153,-3.7525,-3.6694,-3.6417,-3.6417,-3.6417,-3.6417,-3.6417,-3.6417,-3.6417,-3.6417,-3.6417,-3.638,-3.6304,-3.5868,-3.5203,-3.455,-3.3922,-3.3508,-3.3149,-3.3124,-3.3111,-3.298,-3.2792,-3.2227,-3.17,-3.0898,-3.0898,-3.0898,-3.0898,-3.0898,-3.0898,-3.0898,-3.0898,-3.0898,-3.0898,-3.0898,-3.0898,-3.0898,-3.0898,-3.0898,-3.0898,-3.0898,-3.0898,-3.0898,-3.0898,-3.0869,-3.0898,-3.0869,-3.0684,-3.0459,-3.0185,-2.9814,-2.9385,-2.8832,-2.8535,-2.8301,-2.8301,-2.8301,-2.8301,-2.8301,-2.8301,-2.8301,-2.8301,-2.8301,-2.8301,-2.8301,-2.8301,-2.8301,-2.8301,-2.8301,-2.8301,-2.8301,-2.8301,-2.8301,-2.8301,-2.8301,-2.8301,-2.8301,-2.8301,-2.8301,-2.8301,-2.8301,-2.8301,-2.8301,-2.8301,-2.8301,-2.8301,-2.8301,-2.8301,-2.8301,-2.832,-2.8437,-2.8613,-2.9001,-2.9759,-3.1757,-3.3712,-3.5485,-3.7266,-3.8439,-3.962,-3.9697,-3.9697,-3.9697,-3.9697,-3.9697,-3.9697,-3.9697,-3.9697,-3.9697,-3.9697,-3.9484,-3.9032,-3.853,-3.8103,-3.7412,-3.6619,-3.6455,-3.6417,-3.6417,-3.6417,-3.6417,-3.6417,-3.6417,-3.6417,-3.6417,-3.6355,-3.6267,-3.5805,-3.5253,-3.4625,-3.3997,-3.3458,-3.3124,-3.3124,-3.3124,-3.3074,-3.2855,-3.2466,-3.1951,-3.0898,-3.0898,-3.0898,-3.0898,-3.0898,-3.0898,-3.0898,-3.0898,-3.0898,-3.0898,-3.0898,-3.0898,-3.0898,-3.0898,-3.0898,-3.0898,-3.0898,-3.0898,-3.0898,-3.0859,-3.0742,-3.0732,-3.0615,-3.0391,-3.0059,-2.9785,-2.9453,-2.9033,-2.8754,-2.8217,-2.7843,-2.8237,-2.8301,-2.8301,-2.8301,-2.8301,-2.8301,-2.8301,-2.8301,-2.8301,-2.8301,-2.8301,-2.8301,-2.8301,-2.8301,-2.8301,-2.8301,-2.8301,-2.8301,-2.8301,-2.8301,-2.8301,-2.8301,-2.8301,-2.8301,-2.8301,-2.8301,-2.8301,-2.8301,-2.8301,-2.8301,-2.8301,-2.8301,-2.8301,-2.8301,-2.8301,-2.8389,-2.8437,-2.8741,-2.9415,-3.1077,-3.3233,-3.5127,-3.6854,-3.8301,-3.925,-3.9697,-3.9697,-3.9697,-3.9697,-3.9697,-3.9697,-3.9697,-3.9697,-3.9697,-3.9697,-3.9572,-3.9145,-3.853,-3.8052,-3.7349,-3.6546,-3.648,-3.6417,-3.6417,-3.6417,-3.6417,-3.6417,-3.6417,-3.6417,-3.6417,-3.6329,-3.6182,-3.5793,-3.5378,-3.4738,-3.4135,-3.3571,-3.3199,-3.3124,-3.3124,-3.3124,-3.2893,-3.2629,-3.2265,-3.0898,-3.0898,-3.0898,-3.0898,-3.0889,-3.0898,-3.0879,-3.0898,-3.0898,-3.0859,-3.0889,-3.0879,-3.0898,-3.0898,-3.0889,-3.0879,-3.085,-3.0791,-3.0879,-3.0684,-3.0518,-3.0381,-3.0226,-2.9762,-2.9534,-2.9258,-2.8955,-2.8676,-2.8354,-2.7622,-2.734,-2.8184,-2.8301,-2.8301,-2.8301,-2.8301,-2.8301,-2.8301,-2.8301,-2.8301,-2.8301,-2.8301,-2.8301,-2.8301,-2.8301,-2.8301,-2.8301,-2.8301,-2.8301,-2.8301,-2.8301,-2.8301,-2.8301,-2.8301,-2.8301,-2.8301,-2.8301,-2.8301,-2.8301,-2.8301,-2.8301,-2.8301,-2.8301,-2.8301,-2.8301,-2.8301,-2.831,-2.833,-2.8632,-2.9357,-3.052,-3.2712,-3.477,-3.6459,-3.8139,-3.8918,-3.9672,-3.9697,-3.9697,-3.9697,-3.9697,-3.9697,-3.9697,-3.9697,-3.9697,-3.9697,-3.9697,-3.9333,-3.8504,-3.7902,-3.7324,-3.6707,-3.648,-3.6417,-3.6417,-3.6417,-3.6417,-3.6417,-3.6417,-3.6417,-3.6417,-3.6367,-3.6279,-3.5931,-3.5516,-3.4914,-3.4286,-3.3633,-3.3294,-3.3199,-3.3124,-3.3124,-3.3124,-3.288,-3.2554,-3.0576,-3.0566,-3.0381,-3.0312,-3.0303,-3.0303,-3.0303,-3.0303,-3.0303,-3.0303,-3.0458,-3.0684,-3.0889,-3.0879,-3.0889,-3.0635,-3.0567,-3.0576,-3.0381,-3.0205,-2.988,-2.9971,-2.9634,-2.8802,-2.8925,-2.8652,-2.8647,-2.8432,-2.814,-2.7833,-2.778,-2.8184,-2.8237,-2.8184,-2.8184,-2.8237,-2.8237,-2.8301,-2.813,-2.813,-2.813,-2.8237,-2.8291,-2.8301,-2.8301,-2.8301,-2.8301,-2.8301,-2.8301,-2.8301,-2.8301,-2.8301,-2.8301,-2.8301,-2.8301,-2.8301,-2.8301,-2.8301,-2.8301,-2.8301,-2.8301,-2.8301,-2.8301,-2.8301,-2.8301,-2.8301,-2.8301,-2.832,-2.832,-2.8906,-3.0422,-3.2402,-3.4342,-3.6102,-3.7788,-3.9079,-3.9509,-3.9697,-3.9697,-3.9697,-3.9697,-3.9697,-3.9697,-3.9697,-3.9685,-3.9597,-3.9609,-3.9107,-3.8354,-3.7764,-3.7174,-3.6769,-3.6518,-3.6417,-3.6417,-3.6417,-3.6417,-3.6417,-3.6417,-3.6417,-3.6417,-3.6417,-3.6329,-3.6103,-3.5705,-3.5165,-3.4525,-3.3847,-3.337,-3.3199,-3.3149,-3.3124,-3.3124,-3.3124,-3.2842,-3.0117,-3.0059,-2.9736,-2.9646,-2.958,-2.9646,-2.9609,-2.9609,-2.96,-2.9609,-2.9717,-3.0381,-3.0684,-3.0723,-3.0703,-3.0305,-2.9872,-2.9499,-2.942,-2.8842,-2.8625,-2.822,-2.7715,-2.7233,-2.7382,-2.7737,-2.7883,-2.8174,-2.8247,-2.7447,-2.6943,-2.7789,-2.796,-2.7897,-2.7843,-2.7897,-2.7726,-2.7232,-2.7114,-2.7403,-2.7736,-2.8121,-2.8237,-2.8301,-2.8301,-2.8301,-2.8301,-2.8301,-2.8301,-2.8301,-2.8301,-2.8301,-2.8301,-2.8301,-2.8301,-2.8301,-2.8301,-2.8301,-2.8301,-2.8301,-2.8301,-2.8301,-2.8301,-2.8301,-2.8301,-2.8301,-2.8301,-2.8301,-2.8301,-2.88,-3.0308,-3.199,-3.3914,-3.5608,-3.7307,-3.9019,-3.932,-3.9622,-3.9685,-3.9685,-3.9697,-3.9697,-3.9697,-3.9697,-3.9597,-3.9521,-3.9157,-3.858,-3.804,-3.7588,-3.7073,-3.6744,-3.648,-3.6417,-3.6417,-3.6417,-3.6417,-3.6417,-3.6417,-3.6417,-3.6417,-3.6417,-3.6392,-3.6317,-3.5868,-3.5316,-3.4763,-3.4135,-3.3696,-3.3232,-3.3162,-3.3124,-3.3124,-3.3124,-3.3124,-2.9744,-2.9678,-2.96,-2.956,-2.9551,-2.9551,-2.958,-2.957,-2.9551,-2.958,-2.9429,-2.9639,-2.9824,-2.9814,-2.988,-2.92,-2.7923,-2.7877,-2.6933,-2.6062,-2.6528,-2.5979,-2.5648,-2.5655,-2.5611,-2.609,-2.6727,-2.7196,-2.706,-2.5772,-2.538,-2.6445,-2.6499,-2.6045,-2.5049,-2.5434,-2.61,-2.5663,-2.538,-2.5498,-2.6,-2.6726,-2.813,-2.8301,-2.8301,-2.8301,-2.8301,-2.8301,-2.8301,-2.8301,-2.8301,-2.8301,-2.8301,-2.8301,-2.8301,-2.8301,-2.8301,-2.8301,-2.8301,-2.8301,-2.8301,-2.8301,-2.8301,-2.8301,-2.8301,-2.8301,-2.8301,-2.8301,-2.8344,-2.8451,-2.9751,-3.1709,-3.3554,-3.4913,-3.6471,-3.8062,-3.8993,-3.9383,-3.9609,-3.9647,-3.9697,-3.9697,-3.9697,-3.9597,-3.9396,-3.9233,-3.8894,-3.8316,-3.7626,-3.7262,-3.6935,-3.6719,-3.643,-3.6417,-3.6417,-3.6417,-3.6417,-3.6417,-3.6417,-3.6417,-3.6417,-3.6417,-3.638,-3.6355,-3.5956,-3.5441,-3.4889,-3.4449,-3.3847,-3.3395,-3.3224,-3.3124,-3.3124,-3.3124,-3.3124]}]]